<?xml version='1.0' encoding='UTF-8'?><gpx version="1.1" creator="JPX - https://github.com/jenetics/jpx" xmlns="http://www.topografix.com/GPX/1/1"><trk><trkseg><trkpt lat="38.896133642724934" lon="8.857202714235612"><ele>39.0</ele><time>2026-04-06T07:18:30Z</time></trkpt><trkpt lat="38.896100958707244" lon="8.857115505391699"><ele>39.0</ele><time>2026-04-06T07:18:32Z</time></trkpt><trkpt lat="38.89605150970242" lon="8.857002466703845"><ele>39.0</ele><time>2026-04-06T07:18:34Z</time></trkpt><trkpt lat="38.89598017228965" lon="8.856909702957179"><ele>39.0</ele><time>2026-04-06T07:18:36Z</time></trkpt><trkpt lat="38.89591834023316" lon="8.856854302317082"><ele>39.0</ele><time>2026-04-06T07:18:38Z</time></trkpt><trkpt lat="38.895835622845354" lon="8.856770731522595"><ele>37.333333333333336</ele><time>2026-04-06T07:18:40Z</time></trkpt><trkpt lat="38.89574693532434" lon="8.85667807805697"><ele>35.666666666666664</ele><time>2026-04-06T07:18:42Z</time></trkpt><trkpt lat="38.89569021472054" lon="8.85663587176142"><ele>34.0</ele><time>2026-04-06T07:18:43Z</time></trkpt><trkpt lat="38.89561841313834" lon="8.856579629962742"><ele>32.33333333333333</ele><time>2026-04-06T07:18:47Z</time></trkpt><trkpt lat="38.89555747320351" lon="8.856550896433063"><ele>30.666666666666664</ele><time>2026-04-06T07:19:15Z</time></trkpt><trkpt lat="38.89548770178591" lon="8.856515611026065"><ele>29.0</ele><time>2026-04-06T07:20:14Z</time></trkpt><trkpt lat="38.895418181621544" lon="8.856577567135048"><ele>29.0</ele><time>2026-04-06T07:20:17Z</time></trkpt><trkpt lat="38.895348751615124" lon="8.856659286531992"><ele>29.0</ele><time>2026-04-06T07:20:20Z</time></trkpt><trkpt lat="38.89527132853134" lon="8.856735865587245"><ele>29.0</ele><time>2026-04-06T07:20:23Z</time></trkpt><trkpt lat="38.89520721892548" lon="8.856807022917023"><ele>29.0</ele><time>2026-04-06T07:20:25Z</time></trkpt><trkpt lat="38.89514373858037" lon="8.856868796163143"><ele>29.0</ele><time>2026-04-06T07:20:27Z</time></trkpt><trkpt lat="38.89506726243471" lon="8.85693913031479"><ele>28.0</ele><time>2026-04-06T07:20:29Z</time></trkpt><trkpt lat="38.894991189406944" lon="8.857020572149029"><ele>27.0</ele><time>2026-04-06T07:20:31Z</time></trkpt><trkpt lat="38.89492117839531" lon="8.8571028003259"><ele>26.0</ele><time>2026-04-06T07:20:33Z</time></trkpt><trkpt lat="38.89486898594318" lon="8.857203190461563"><ele>25.0</ele><time>2026-04-06T07:20:35Z</time></trkpt><trkpt lat="38.89481956133531" lon="8.857319020046226"><ele>24.0</ele><time>2026-04-06T07:20:37Z</time></trkpt><trkpt lat="38.89478438705824" lon="8.857435904778448"><ele>24.0</ele><time>2026-04-06T07:20:39Z</time></trkpt><trkpt lat="38.89475312446388" lon="8.85754979984443"><ele>24.0</ele><time>2026-04-06T07:20:41Z</time></trkpt><trkpt lat="38.894727810022985" lon="8.85768117481969"><ele>24.0</ele><time>2026-04-06T07:20:43Z</time></trkpt><trkpt lat="38.894695549785006" lon="8.857806487775852"><ele>24.0</ele><time>2026-04-06T07:20:45Z</time></trkpt><trkpt lat="38.89465205591294" lon="8.857927041196975"><ele>24.0</ele><time>2026-04-06T07:20:47Z</time></trkpt><trkpt lat="38.894596500936956" lon="8.858053702220205"><ele>23.75</ele><time>2026-04-06T07:20:49Z</time></trkpt><trkpt lat="38.89452625110207" lon="8.858172463684275"><ele>23.5</ele><time>2026-04-06T07:20:51Z</time></trkpt><trkpt lat="38.89445118488965" lon="8.858290939433624"><ele>23.25</ele><time>2026-04-06T07:20:53Z</time></trkpt><trkpt lat="38.89437153046498" lon="8.858412271084301"><ele>23.0</ele><time>2026-04-06T07:20:55Z</time></trkpt><trkpt lat="38.894304757794956" lon="8.858535341486425"><ele>21.799999999999997</ele><time>2026-04-06T07:20:57Z</time></trkpt><trkpt lat="38.89423087587421" lon="8.858646779800893"><ele>20.599999999999998</ele><time>2026-04-06T07:20:59Z</time></trkpt><trkpt lat="38.89416083984355" lon="8.858744326252234"><ele>19.4</ele><time>2026-04-06T07:21:01Z</time></trkpt><trkpt lat="38.89408232472111" lon="8.858826884519969"><ele>18.2</ele><time>2026-04-06T07:21:03Z</time></trkpt><trkpt lat="38.89398625770135" lon="8.858840954788231"><ele>17.0</ele><time>2026-04-06T07:21:05Z</time></trkpt><trkpt lat="38.89388449552533" lon="8.858859091906327"><ele>17.0</ele><time>2026-04-06T07:21:07Z</time></trkpt><trkpt lat="38.893779648525175" lon="8.858837668582586"><ele>17.0</ele><time>2026-04-06T07:21:09Z</time></trkpt><trkpt lat="38.89368151633217" lon="8.85882691107929"><ele>17.0</ele><time>2026-04-06T07:21:11Z</time></trkpt><trkpt lat="38.89359914134224" lon="8.858762760344728"><ele>17.0</ele><time>2026-04-06T07:21:13Z</time></trkpt><trkpt lat="38.893533523151476" lon="8.858751356286357"><ele>17.0</ele><time>2026-04-06T07:21:16Z</time></trkpt><trkpt lat="38.89351141656526" lon="8.858656576554031"><ele>17.0</ele><time>2026-04-06T07:21:18Z</time></trkpt><trkpt lat="38.893511449503066" lon="8.85853951756398"><ele>17.2</ele><time>2026-04-06T07:21:20Z</time></trkpt><trkpt lat="38.89349514473012" lon="8.858422346041161"><ele>17.4</ele><time>2026-04-06T07:21:22Z</time></trkpt><trkpt lat="38.89348319075216" lon="8.858287844280568"><ele>17.6</ele><time>2026-04-06T07:21:24Z</time></trkpt><trkpt lat="38.89347240513669" lon="8.858145190919867"><ele>17.8</ele><time>2026-04-06T07:21:26Z</time></trkpt><trkpt lat="38.89345718329552" lon="8.858000514785001"><ele>18.0</ele><time>2026-04-06T07:21:28Z</time></trkpt><trkpt lat="38.89344110577445" lon="8.857849713633636"><ele>17.75</ele><time>2026-04-06T07:21:30Z</time></trkpt><trkpt lat="38.89342140861841" lon="8.857698769601665"><ele>17.5</ele><time>2026-04-06T07:21:32Z</time></trkpt><trkpt lat="38.893407943340954" lon="8.857548205916688"><ele>17.25</ele><time>2026-04-06T07:21:34Z</time></trkpt><trkpt lat="38.89339377412881" lon="8.85739563204064"><ele>17.0</ele><time>2026-04-06T07:21:36Z</time></trkpt><trkpt lat="38.89337682878176" lon="8.85724504019561"><ele>17.0</ele><time>2026-04-06T07:21:38Z</time></trkpt><trkpt lat="38.893361242649156" lon="8.857093144146903"><ele>17.0</ele><time>2026-04-06T07:21:40Z</time></trkpt><trkpt lat="38.89333670741871" lon="8.856943873258416"><ele>17.0</ele><time>2026-04-06T07:21:42Z</time></trkpt><trkpt lat="38.89332700854656" lon="8.856807790335893"><ele>17.0</ele><time>2026-04-06T07:21:44Z</time></trkpt><trkpt lat="38.893315328592806" lon="8.856675284130418"><ele>17.0</ele><time>2026-04-06T07:21:46Z</time></trkpt><trkpt lat="38.893180524084116" lon="8.856627716116124"><ele>17.142857142857142</ele><time>2026-04-06T07:21:48Z</time></trkpt><trkpt lat="38.893115646494664" lon="8.856640199212224"><ele>17.285714285714285</ele><time>2026-04-06T07:21:49Z</time></trkpt><trkpt lat="38.89304597525697" lon="8.856670950941908"><ele>17.42857142857143</ele><time>2026-04-06T07:21:50Z</time></trkpt><trkpt lat="38.89297004441151" lon="8.856690023340049"><ele>17.57142857142857</ele><time>2026-04-06T07:21:51Z</time></trkpt><trkpt lat="38.89290395496665" lon="8.85669420058998"><ele>17.714285714285715</ele><time>2026-04-06T07:21:52Z</time></trkpt><trkpt lat="38.892838347802645" lon="8.856721345818073"><ele>17.857142857142858</ele><time>2026-04-06T07:21:53Z</time></trkpt><trkpt lat="38.892767039993124" lon="8.856734925205712"><ele>18.0</ele><time>2026-04-06T07:21:54Z</time></trkpt><trkpt lat="38.892701038033074" lon="8.856746928661586"><ele>18.000000000000004</ele><time>2026-04-06T07:21:55Z</time></trkpt><trkpt lat="38.89263159389904" lon="8.856755244099121"><ele>18.0</ele><time>2026-04-06T07:21:56Z</time></trkpt><trkpt lat="38.89256875474104" lon="8.856768517030737"><ele>18.0</ele><time>2026-04-06T07:21:57Z</time></trkpt><trkpt lat="38.89250046279557" lon="8.856771171271072"><ele>18.0</ele><time>2026-04-06T07:21:58Z</time></trkpt><trkpt lat="38.892434781139556" lon="8.85679442822851"><ele>18.0</ele><time>2026-04-06T07:21:59Z</time></trkpt><trkpt lat="38.89236651964444" lon="8.856793329304896"><ele>18.000000000000004</ele><time>2026-04-06T07:22:00Z</time></trkpt><trkpt lat="38.892298231161234" lon="8.856805924963659"><ele>18.0</ele><time>2026-04-06T07:22:01Z</time></trkpt><trkpt lat="38.89222975930016" lon="8.85681855444052"><ele>17.571428571428573</ele><time>2026-04-06T07:22:02Z</time></trkpt><trkpt lat="38.892162230589676" lon="8.856848385126835"><ele>17.142857142857142</ele><time>2026-04-06T07:22:03Z</time></trkpt><trkpt lat="38.892099621301135" lon="8.85686220276427"><ele>16.714285714285715</ele><time>2026-04-06T07:22:04Z</time></trkpt><trkpt lat="38.892033001058806" lon="8.85687268647324"><ele>16.285714285714285</ele><time>2026-04-06T07:22:05Z</time></trkpt><trkpt lat="38.89196958299801" lon="8.856884805385805"><ele>15.857142857142858</ele><time>2026-04-06T07:22:06Z</time></trkpt><trkpt lat="38.891902825569026" lon="8.856878856619185"><ele>15.428571428571429</ele><time>2026-04-06T07:22:07Z</time></trkpt><trkpt lat="38.8918363567879" lon="8.85689111663451"><ele>15.0</ele><time>2026-04-06T07:22:08Z</time></trkpt><trkpt lat="38.89176808122065" lon="8.856903709898372"><ele>14.5</ele><time>2026-04-06T07:22:09Z</time></trkpt><trkpt lat="38.89170493356925" lon="8.856915357337865"><ele>14.0</ele><time>2026-04-06T07:22:10Z</time></trkpt><trkpt lat="38.891635477713415" lon="8.856928168325542"><ele>13.5</ele><time>2026-04-06T07:22:11Z</time></trkpt><trkpt lat="38.891574621955314" lon="8.8569582248429"><ele>13.0</ele><time>2026-04-06T07:22:12Z</time></trkpt><trkpt lat="38.89150999376884" lon="8.856951313543455"><ele>12.5</ele><time>2026-04-06T07:22:13Z</time></trkpt><trkpt lat="38.89144519339819" lon="8.856963265829945"><ele>12.0</ele><time>2026-04-06T07:22:14Z</time></trkpt><trkpt lat="38.891320837508765" lon="8.857006123575767"><ele>12.0</ele><time>2026-04-06T07:22:16Z</time></trkpt><trkpt lat="38.891254366622455" lon="8.857018225671245"><ele>12.0</ele><time>2026-04-06T07:22:17Z</time></trkpt><trkpt lat="38.89119110444117" lon="8.857026457680947"><ele>12.0</ele><time>2026-04-06T07:22:18Z</time></trkpt><trkpt lat="38.891127652147254" lon="8.857040211839218"><ele>12.0</ele><time>2026-04-06T07:22:19Z</time></trkpt><trkpt lat="38.89105917933091" lon="8.857034397915381"><ele>12.0</ele><time>2026-04-06T07:22:20Z</time></trkpt><trkpt lat="38.89099560510264" lon="8.857067116417124"><ele>12.0</ele><time>2026-04-06T07:22:21Z</time></trkpt><trkpt lat="38.89086632749219" lon="8.857069869327912"><ele>11.333333333333334</ele><time>2026-04-06T07:22:23Z</time></trkpt><trkpt lat="38.89079904619991" lon="8.857082241348015"><ele>10.666666666666666</ele><time>2026-04-06T07:22:24Z</time></trkpt><trkpt lat="38.89067555660979" lon="8.85710494923863"><ele>10.0</ele><time>2026-04-06T07:22:26Z</time></trkpt><trkpt lat="38.890615633893745" lon="8.85713652906883"><ele>9.333333333333332</ele><time>2026-04-06T07:22:27Z</time></trkpt><trkpt lat="38.89055202647913" lon="8.857148083349403"><ele>8.666666666666666</ele><time>2026-04-06T07:22:28Z</time></trkpt><trkpt lat="38.89048641964202" lon="8.857160394523621"><ele>8.0</ele><time>2026-04-06T07:22:29Z</time></trkpt><trkpt lat="38.89042242662967" lon="8.857172602921066"><ele>7.999999999999999</ele><time>2026-04-06T07:22:30Z</time></trkpt><trkpt lat="38.890358703606644" lon="8.857185929498572"><ele>8.0</ele><time>2026-04-06T07:22:31Z</time></trkpt><trkpt lat="38.89029366673584" lon="8.857177379098642"><ele>8.0</ele><time>2026-04-06T07:22:32Z</time></trkpt><trkpt lat="38.89022602084145" lon="8.857190895921661"><ele>8.0</ele><time>2026-04-06T07:22:33Z</time></trkpt><trkpt lat="38.89016298229703" lon="8.857203492144597"><ele>7.999999999999999</ele><time>2026-04-06T07:22:34Z</time></trkpt><trkpt lat="38.89009322282304" lon="8.85721798475053"><ele>8.0</ele><time>2026-04-06T07:22:35Z</time></trkpt><trkpt lat="38.88997680417703" lon="8.857267461093778"><ele>7.499999999999999</ele><time>2026-04-06T07:22:37Z</time></trkpt><trkpt lat="38.8898808314279" lon="8.857350437409053"><ele>7.0</ele><time>2026-04-06T07:22:39Z</time></trkpt><trkpt lat="38.88984472667889" lon="8.85749845961562"><ele>6.5</ele><time>2026-04-06T07:22:41Z</time></trkpt><trkpt lat="38.88984439754465" lon="8.857583324504091"><ele>6.0</ele><time>2026-04-06T07:22:42Z</time></trkpt><trkpt lat="38.88985380150138" lon="8.857664700092215"><ele>5.5</ele><time>2026-04-06T07:22:43Z</time></trkpt><trkpt lat="38.88987654572746" lon="8.857748803150898"><ele>5.0</ele><time>2026-04-06T07:22:44Z</time></trkpt><trkpt lat="38.88988176866456" lon="8.8579143948151"><ele>5.0</ele><time>2026-04-06T07:22:46Z</time></trkpt><trkpt lat="38.88989165091007" lon="8.858075909304803"><ele>5.0</ele><time>2026-04-06T07:22:48Z</time></trkpt><trkpt lat="38.88989720172363" lon="8.858229391889404"><ele>5.0</ele><time>2026-04-06T07:22:50Z</time></trkpt><trkpt lat="38.889888946072396" lon="8.858335074524083"><ele>5.0</ele><time>2026-04-06T07:22:52Z</time></trkpt><trkpt lat="38.88979789817214" lon="8.858354303246093"><ele>5.0</ele><time>2026-04-06T07:22:55Z</time></trkpt><trkpt lat="38.88970033378966" lon="8.85836414020823"><ele>5.0</ele><time>2026-04-06T07:22:57Z</time></trkpt><trkpt lat="38.889595983666275" lon="8.858358737065434"><ele>5.0</ele><time>2026-04-06T07:22:59Z</time></trkpt><trkpt lat="38.88948660073077" lon="8.85835690410773"><ele>5.0</ele><time>2026-04-06T07:23:01Z</time></trkpt><trkpt lat="38.88937763495655" lon="8.858349312969203"><ele>5.0</ele><time>2026-04-06T07:23:03Z</time></trkpt><trkpt lat="38.8892640497464" lon="8.858343556636484"><ele>5.0</ele><time>2026-04-06T07:23:05Z</time></trkpt><trkpt lat="38.88914972197029" lon="8.85834177170906"><ele>5.25</ele><time>2026-04-06T07:23:07Z</time></trkpt><trkpt lat="38.88903321781219" lon="8.858337423846221"><ele>5.5</ele><time>2026-04-06T07:23:09Z</time></trkpt><trkpt lat="38.88891637166752" lon="8.858325085884177"><ele>5.75</ele><time>2026-04-06T07:23:11Z</time></trkpt><trkpt lat="38.88879972924931" lon="8.858324376884184"><ele>6.0</ele><time>2026-04-06T07:23:13Z</time></trkpt><trkpt lat="38.88868651200807" lon="8.858319188148362"><ele>6.0</ele><time>2026-04-06T07:23:15Z</time></trkpt><trkpt lat="38.88856944499477" lon="8.858322782892577"><ele>6.0</ele><time>2026-04-06T07:23:17Z</time></trkpt><trkpt lat="38.88845680267412" lon="8.858325498967016"><ele>6.0</ele><time>2026-04-06T07:23:19Z</time></trkpt><trkpt lat="38.8883441244463" lon="8.85831677910616"><ele>6.0</ele><time>2026-04-06T07:23:21Z</time></trkpt><trkpt lat="38.888230068539755" lon="8.858315969092514"><ele>5.8</ele><time>2026-04-06T07:23:23Z</time></trkpt><trkpt lat="38.888116594535006" lon="8.858315141829062"><ele>5.6</ele><time>2026-04-06T07:23:25Z</time></trkpt><trkpt lat="38.88800300603211" lon="8.858318119971608"><ele>5.4</ele><time>2026-04-06T07:23:27Z</time></trkpt><trkpt lat="38.88789242578043" lon="8.858333087502952"><ele>5.2</ele><time>2026-04-06T07:23:29Z</time></trkpt><trkpt lat="38.88779558655117" lon="8.858374329330593"><ele>5.0</ele><time>2026-04-06T07:23:31Z</time></trkpt><trkpt lat="38.88770342479731" lon="8.858427856470326"><ele>4.8</ele><time>2026-04-06T07:23:33Z</time></trkpt><trkpt lat="38.88761682641927" lon="8.858498418827484"><ele>4.6</ele><time>2026-04-06T07:23:35Z</time></trkpt><trkpt lat="38.88752996589942" lon="8.8585802938601"><ele>4.4</ele><time>2026-04-06T07:23:37Z</time></trkpt><trkpt lat="38.887455090203446" lon="8.858686672717065"><ele>4.2</ele><time>2026-04-06T07:23:39Z</time></trkpt><trkpt lat="38.887387733777324" lon="8.858794227793542"><ele>4.0</ele><time>2026-04-06T07:23:41Z</time></trkpt><trkpt lat="38.88731933282714" lon="8.858893332046799"><ele>4.2</ele><time>2026-04-06T07:23:43Z</time></trkpt><trkpt lat="38.887256248417195" lon="8.85899610331642"><ele>4.4</ele><time>2026-04-06T07:23:45Z</time></trkpt><trkpt lat="38.88719384709689" lon="8.859097280629035"><ele>4.6</ele><time>2026-04-06T07:23:47Z</time></trkpt><trkpt lat="38.88713214790276" lon="8.859196517807298"><ele>4.8</ele><time>2026-04-06T07:23:49Z</time></trkpt><trkpt lat="38.88707019695773" lon="8.859292755504734"><ele>5.0</ele><time>2026-04-06T07:23:51Z</time></trkpt><trkpt lat="38.88700916095823" lon="8.859387230170212"><ele>5.0</ele><time>2026-04-06T07:23:53Z</time></trkpt><trkpt lat="38.886950575272564" lon="8.859480852559738"><ele>5.0</ele><time>2026-04-06T07:23:55Z</time></trkpt><trkpt lat="38.88688890144449" lon="8.859570666324059"><ele>5.0</ele><time>2026-04-06T07:23:57Z</time></trkpt><trkpt lat="38.88682093622513" lon="8.859657835929402"><ele>5.0</ele><time>2026-04-06T07:23:59Z</time></trkpt><trkpt lat="38.88675231558036" lon="8.859741546827388"><ele>5.0</ele><time>2026-04-06T07:24:01Z</time></trkpt><trkpt lat="38.886668755804244" lon="8.85979005406663"><ele>6.0</ele><time>2026-04-06T07:24:03Z</time></trkpt><trkpt lat="38.88658109400034" lon="8.85981883587247"><ele>7.0</ele><time>2026-04-06T07:24:05Z</time></trkpt><trkpt lat="38.88649611037662" lon="8.859831543468953"><ele>8.0</ele><time>2026-04-06T07:24:07Z</time></trkpt><trkpt lat="38.886407237540226" lon="8.859832494802085"><ele>9.0</ele><time>2026-04-06T07:24:09Z</time></trkpt><trkpt lat="38.88631954061366" lon="8.859803644391814"><ele>10.0</ele><time>2026-04-06T07:24:11Z</time></trkpt><trkpt lat="38.88622528384922" lon="8.859759413474247"><ele>10.0</ele><time>2026-04-06T07:24:13Z</time></trkpt><trkpt lat="38.886127306316794" lon="8.85971526728253"><ele>10.0</ele><time>2026-04-06T07:24:15Z</time></trkpt><trkpt lat="38.88601828929253" lon="8.85968915331623"><ele>10.0</ele><time>2026-04-06T07:24:17Z</time></trkpt><trkpt lat="38.88591098660646" lon="8.859656696437247"><ele>10.0</ele><time>2026-04-06T07:24:19Z</time></trkpt><trkpt lat="38.88579551684559" lon="8.859618714955499"><ele>10.0</ele><time>2026-04-06T07:24:21Z</time></trkpt><trkpt lat="38.88573333890234" lon="8.859602475707758"><ele>9.571428571428571</ele><time>2026-04-06T07:24:22Z</time></trkpt><trkpt lat="38.88567097052161" lon="8.859584467908165"><ele>9.142857142857142</ele><time>2026-04-06T07:24:23Z</time></trkpt><trkpt lat="38.88560506541577" lon="8.859564217808199"><ele>8.714285714285715</ele><time>2026-04-06T07:24:24Z</time></trkpt><trkpt lat="38.885536311153395" lon="8.859539745891828"><ele>8.285714285714285</ele><time>2026-04-06T07:24:25Z</time></trkpt><trkpt lat="38.885470443159214" lon="8.859507753817585"><ele>7.857142857142858</ele><time>2026-04-06T07:24:26Z</time></trkpt><trkpt lat="38.885394218318716" lon="8.859482728444457"><ele>7.428571428571429</ele><time>2026-04-06T07:24:27Z</time></trkpt><trkpt lat="38.88532098808993" lon="8.859450587326906"><ele>7.0</ele><time>2026-04-06T07:24:28Z</time></trkpt><trkpt lat="38.885245132242666" lon="8.859423220038234"><ele>7.0</ele><time>2026-04-06T07:24:29Z</time></trkpt><trkpt lat="38.88516307021688" lon="8.859395486684436"><ele>7.0</ele><time>2026-04-06T07:24:30Z</time></trkpt><trkpt lat="38.88509904810039" lon="8.85935658608858"><ele>7.0</ele><time>2026-04-06T07:24:31Z</time></trkpt><trkpt lat="38.885025108409955" lon="8.859320349500992"><ele>7.0</ele><time>2026-04-06T07:24:32Z</time></trkpt><trkpt lat="38.88495078393067" lon="8.859276166285087"><ele>7.0</ele><time>2026-04-06T07:24:33Z</time></trkpt><trkpt lat="38.88489185939672" lon="8.859236475439022"><ele>7.0</ele><time>2026-04-06T07:24:34Z</time></trkpt><trkpt lat="38.884829528516384" lon="8.859212821852378"><ele>7.0</ele><time>2026-04-06T07:24:35Z</time></trkpt><trkpt lat="38.88471009558714" lon="8.859144320987683"><ele>7.3999999999999995</ele><time>2026-04-06T07:24:37Z</time></trkpt><trkpt lat="38.88460750784574" lon="8.859073058701403"><ele>7.799999999999999</ele><time>2026-04-06T07:24:39Z</time></trkpt><trkpt lat="38.88450866378947" lon="8.8590066848243"><ele>8.2</ele><time>2026-04-06T07:24:41Z</time></trkpt><trkpt lat="38.88442833077561" lon="8.85893348201068"><ele>8.6</ele><time>2026-04-06T07:24:43Z</time></trkpt><trkpt lat="38.88433373090642" lon="8.858853419518791"><ele>9.0</ele><time>2026-04-06T07:24:45Z</time></trkpt><trkpt lat="38.88427875001431" lon="8.858809688498521"><ele>8.0</ele><time>2026-04-06T07:24:46Z</time></trkpt><trkpt lat="38.884161312044846" lon="8.85877186946979"><ele>7.0</ele><time>2026-04-06T07:24:48Z</time></trkpt><trkpt lat="38.88403490251187" lon="8.858768398310431"><ele>6.0</ele><time>2026-04-06T07:24:50Z</time></trkpt><trkpt lat="38.88392451151663" lon="8.85881305286698"><ele>5.0</ele><time>2026-04-06T07:24:52Z</time></trkpt><trkpt lat="38.88382646228318" lon="8.858868628416914"><ele>5.0</ele><time>2026-04-06T07:24:54Z</time></trkpt><trkpt lat="38.883728453773614" lon="8.858908571261448"><ele>5.0</ele><time>2026-04-06T07:24:56Z</time></trkpt><trkpt lat="38.8836334780484" lon="8.858962492552585"><ele>5.0</ele><time>2026-04-06T07:24:58Z</time></trkpt><trkpt lat="38.88355140805231" lon="8.85896756879636"><ele>5.0</ele><time>2026-04-06T07:25:00Z</time></trkpt><trkpt lat="38.88345731176025" lon="8.85892262408964"><ele>5.0</ele><time>2026-04-06T07:25:02Z</time></trkpt><trkpt lat="38.88336913702997" lon="8.858893374039145"><ele>5.166666666666667</ele><time>2026-04-06T07:25:04Z</time></trkpt><trkpt lat="38.88329686189137" lon="8.85883899660809"><ele>5.333333333333334</ele><time>2026-04-06T07:25:06Z</time></trkpt><trkpt lat="38.883229783572126" lon="8.85878406621593"><ele>5.5</ele><time>2026-04-06T07:25:08Z</time></trkpt><trkpt lat="38.8831607329137" lon="8.858725818482755"><ele>5.666666666666667</ele><time>2026-04-06T07:25:10Z</time></trkpt><trkpt lat="38.883086898276474" lon="8.858660705195469"><ele>5.833333333333333</ele><time>2026-04-06T07:25:12Z</time></trkpt><trkpt lat="38.88300851113315" lon="8.858568257972493"><ele>6.0</ele><time>2026-04-06T07:25:14Z</time></trkpt><trkpt lat="38.882910271086786" lon="8.858488243635575"><ele>7.0</ele><time>2026-04-06T07:25:16Z</time></trkpt><trkpt lat="38.88282778795378" lon="8.858381777619359"><ele>8.0</ele><time>2026-04-06T07:25:18Z</time></trkpt><trkpt lat="38.88278713852858" lon="8.858317410883524"><ele>9.0</ele><time>2026-04-06T07:25:19Z</time></trkpt><trkpt lat="38.88274636194269" lon="8.858253663233901"><ele>10.0</ele><time>2026-04-06T07:25:20Z</time></trkpt><trkpt lat="38.88267715704959" lon="8.85812735314877"><ele>11.0</ele><time>2026-04-06T07:25:22Z</time></trkpt><trkpt lat="38.88260318181917" lon="8.85800689033683"><ele>10.600000000000001</ele><time>2026-04-06T07:25:24Z</time></trkpt><trkpt lat="38.88255483139321" lon="8.857867874134525"><ele>10.200000000000001</ele><time>2026-04-06T07:25:26Z</time></trkpt><trkpt lat="38.88249760639997" lon="8.857763859316353"><ele>9.8</ele><time>2026-04-06T07:25:28Z</time></trkpt><trkpt lat="38.88245571881286" lon="8.857635213276827"><ele>9.4</ele><time>2026-04-06T07:25:30Z</time></trkpt><trkpt lat="38.882428617842386" lon="8.85756213977605"><ele>9.0</ele><time>2026-04-06T07:25:31Z</time></trkpt><trkpt lat="38.8823889638847" lon="8.8574335687549"><ele>9.0</ele><time>2026-04-06T07:25:33Z</time></trkpt><trkpt lat="38.882336798834885" lon="8.85730547850159"><ele>9.0</ele><time>2026-04-06T07:25:35Z</time></trkpt><trkpt lat="38.882282501344" lon="8.857187031333476"><ele>9.0</ele><time>2026-04-06T07:25:37Z</time></trkpt><trkpt lat="38.88222868889791" lon="8.857055214084248"><ele>9.0</ele><time>2026-04-06T07:25:39Z</time></trkpt><trkpt lat="38.882190503296414" lon="8.856938079859427"><ele>9.0</ele><time>2026-04-06T07:25:41Z</time></trkpt><trkpt lat="38.88212714970558" lon="8.85683391633382"><ele>9.0</ele><time>2026-04-06T07:25:43Z</time></trkpt><trkpt lat="38.88206929566558" lon="8.856708433085702"><ele>9.0</ele><time>2026-04-06T07:25:45Z</time></trkpt><trkpt lat="38.88201696042076" lon="8.856580357658402"><ele>9.0</ele><time>2026-04-06T07:25:47Z</time></trkpt><trkpt lat="38.88196293301955" lon="8.856458768365886"><ele>9.0</ele><time>2026-04-06T07:25:49Z</time></trkpt><trkpt lat="38.88190307859959" lon="8.856331102868918"><ele>9.0</ele><time>2026-04-06T07:25:51Z</time></trkpt><trkpt lat="38.88183422123758" lon="8.85622616652424"><ele>9.0</ele><time>2026-04-06T07:25:53Z</time></trkpt><trkpt lat="38.881785298899906" lon="8.856115631748542"><ele>9.0</ele><time>2026-04-06T07:25:55Z</time></trkpt><trkpt lat="38.881738385672435" lon="8.855994169451932"><ele>9.0</ele><time>2026-04-06T07:25:57Z</time></trkpt><trkpt lat="38.88163961132271" lon="8.855915184716967"><ele>9.0</ele><time>2026-04-06T07:25:59Z</time></trkpt><trkpt lat="38.88154813261528" lon="8.8558593752394"><ele>7.8</ele><time>2026-04-06T07:26:01Z</time></trkpt><trkpt lat="38.88146485112412" lon="8.855799786295817"><ele>6.6000000000000005</ele><time>2026-04-06T07:26:03Z</time></trkpt><trkpt lat="38.88138539542621" lon="8.8557358372266"><ele>5.4</ele><time>2026-04-06T07:26:05Z</time></trkpt><trkpt lat="38.88129427248326" lon="8.855690334109108"><ele>4.2</ele><time>2026-04-06T07:26:07Z</time></trkpt><trkpt lat="38.88121321301154" lon="8.855623902601018"><ele>3.0</ele><time>2026-04-06T07:26:09Z</time></trkpt><trkpt lat="38.88115065165309" lon="8.85553055632503"><ele>3.0</ele><time>2026-04-06T07:26:11Z</time></trkpt><trkpt lat="38.88110878044761" lon="8.855427076917005"><ele>3.0</ele><time>2026-04-06T07:26:13Z</time></trkpt><trkpt lat="38.88110245244822" lon="8.855325065441638"><ele>3.0</ele><time>2026-04-06T07:26:15Z</time></trkpt><trkpt lat="38.88111897782111" lon="8.855221452028218"><ele>3.0</ele><time>2026-04-06T07:26:17Z</time></trkpt><trkpt lat="38.88117863206346" lon="8.855143960607363"><ele>3.0</ele><time>2026-04-06T07:26:19Z</time></trkpt><trkpt lat="38.88121869367207" lon="8.855056946829547"><ele>3.0</ele><time>2026-04-06T07:26:21Z</time></trkpt><trkpt lat="38.88123855309977" lon="8.854958077324346"><ele>3.4</ele><time>2026-04-06T07:26:23Z</time></trkpt><trkpt lat="38.88121774590105" lon="8.854829809900568"><ele>3.8</ele><time>2026-04-06T07:26:25Z</time></trkpt><trkpt lat="38.88114673206481" lon="8.854734029401445"><ele>4.2</ele><time>2026-04-06T07:26:27Z</time></trkpt><trkpt lat="38.8810726120909" lon="8.854732790175479"><ele>4.6</ele><time>2026-04-06T07:26:28Z</time></trkpt><trkpt lat="38.880989100518185" lon="8.854706063543043"><ele>5.0</ele><time>2026-04-06T07:26:30Z</time></trkpt><trkpt lat="38.880904970355786" lon="8.854680026561654"><ele>6.0</ele><time>2026-04-06T07:26:32Z</time></trkpt><trkpt lat="38.88079882849923" lon="8.854647286286514"><ele>7.0</ele><time>2026-04-06T07:26:34Z</time></trkpt><trkpt lat="38.88070683823757" lon="8.85462115567592"><ele>8.0</ele><time>2026-04-06T07:26:36Z</time></trkpt><trkpt lat="38.880613866660276" lon="8.85460239597224"><ele>9.0</ele><time>2026-04-06T07:26:38Z</time></trkpt><trkpt lat="38.880522296728785" lon="8.854593036596588"><ele>10.0</ele><time>2026-04-06T07:26:40Z</time></trkpt><trkpt lat="38.880457993650104" lon="8.854587168843707"><ele>10.0</ele><time>2026-04-06T07:26:41Z</time></trkpt><trkpt lat="38.88039365547923" lon="8.85457565368432"><ele>10.0</ele><time>2026-04-06T07:26:42Z</time></trkpt><trkpt lat="38.880270453343456" lon="8.85456684317564"><ele>10.0</ele><time>2026-04-06T07:26:44Z</time></trkpt><trkpt lat="38.88021025712351" lon="8.854535901391014"><ele>10.0</ele><time>2026-04-06T07:26:45Z</time></trkpt><trkpt lat="38.88014914655797" lon="8.85451305766625"><ele>10.0</ele><time>2026-04-06T07:26:46Z</time></trkpt><trkpt lat="38.88008489726555" lon="8.854496062606744"><ele>10.0</ele><time>2026-04-06T07:26:47Z</time></trkpt><trkpt lat="38.879962092762625" lon="8.854508860317688"><ele>10.0</ele><time>2026-04-06T07:26:49Z</time></trkpt><trkpt lat="38.87989527461686" lon="8.854497106727305"><ele>10.0</ele><time>2026-04-06T07:26:50Z</time></trkpt><trkpt lat="38.879829640328936" lon="8.854500779930103"><ele>10.0</ele><time>2026-04-06T07:26:51Z</time></trkpt><trkpt lat="38.87976463593151" lon="8.854491754304828"><ele>10.0</ele><time>2026-04-06T07:26:52Z</time></trkpt><trkpt lat="38.879650144108" lon="8.8544263924071"><ele>10.0</ele><time>2026-04-06T07:26:54Z</time></trkpt><trkpt lat="38.879556134178465" lon="8.854346791849244"><ele>10.0</ele><time>2026-04-06T07:26:56Z</time></trkpt><trkpt lat="38.87947745930591" lon="8.854268171172796"><ele>10.0</ele><time>2026-04-06T07:26:58Z</time></trkpt><trkpt lat="38.87939647214471" lon="8.85418037285702"><ele>10.0</ele><time>2026-04-06T07:27:00Z</time></trkpt><trkpt lat="38.87931639742244" lon="8.854091041856835"><ele>10.0</ele><time>2026-04-06T07:27:02Z</time></trkpt><trkpt lat="38.87924110364969" lon="8.854020790239973"><ele>10.0</ele><time>2026-04-06T07:27:04Z</time></trkpt><trkpt lat="38.879158059539385" lon="8.853964149989213"><ele>10.0</ele><time>2026-04-06T07:27:06Z</time></trkpt><trkpt lat="38.87907704875599" lon="8.853888268205223"><ele>9.0</ele><time>2026-04-06T07:27:08Z</time></trkpt><trkpt lat="38.87897858369752" lon="8.853826105422606"><ele>8.0</ele><time>2026-04-06T07:27:10Z</time></trkpt><trkpt lat="38.87888771939888" lon="8.853748002536811"><ele>7.0</ele><time>2026-04-06T07:27:12Z</time></trkpt><trkpt lat="38.878789942999575" lon="8.853682412943018"><ele>6.0</ele><time>2026-04-06T07:27:14Z</time></trkpt><trkpt lat="38.87869799875698" lon="8.853617836349544"><ele>5.0</ele><time>2026-04-06T07:27:16Z</time></trkpt><trkpt lat="38.87861399908327" lon="8.853536547527863"><ele>5.0</ele><time>2026-04-06T07:27:18Z</time></trkpt><trkpt lat="38.878511110762574" lon="8.853463247496927"><ele>5.0</ele><time>2026-04-06T07:27:20Z</time></trkpt><trkpt lat="38.87842434044027" lon="8.853367735620104"><ele>5.0</ele><time>2026-04-06T07:27:22Z</time></trkpt><trkpt lat="38.87836070395686" lon="8.853266280239268"><ele>5.0</ele><time>2026-04-06T07:27:24Z</time></trkpt><trkpt lat="38.878317697464915" lon="8.853202701020082"><ele>5.0</ele><time>2026-04-06T07:27:25Z</time></trkpt><trkpt lat="38.878228380473935" lon="8.853088093003691"><ele>5.166666666666667</ele><time>2026-04-06T07:27:27Z</time></trkpt><trkpt lat="38.878181183807435" lon="8.853033436194515"><ele>5.333333333333334</ele><time>2026-04-06T07:27:28Z</time></trkpt><trkpt lat="38.8781317203759" lon="8.852981175173326"><ele>5.5</ele><time>2026-04-06T07:27:29Z</time></trkpt><trkpt lat="38.878049613380334" lon="8.852902352251869"><ele>5.666666666666667</ele><time>2026-04-06T07:27:31Z</time></trkpt><trkpt lat="38.87799726014142" lon="8.852815024994321"><ele>5.833333333333333</ele><time>2026-04-06T07:27:33Z</time></trkpt><trkpt lat="38.877945484477024" lon="8.852683444159483"><ele>6.0</ele><time>2026-04-06T07:27:35Z</time></trkpt><trkpt lat="38.877886448785326" lon="8.85253280664123"><ele>5.666666666666667</ele><time>2026-04-06T07:27:37Z</time></trkpt><trkpt lat="38.8778537298624" lon="8.852444782311425"><ele>5.333333333333333</ele><time>2026-04-06T07:27:38Z</time></trkpt><trkpt lat="38.87782484603156" lon="8.852366108802705"><ele>5.0</ele><time>2026-04-06T07:27:39Z</time></trkpt><trkpt lat="38.87777533414402" lon="8.852311903262038"><ele>4.666666666666666</ele><time>2026-04-06T07:27:40Z</time></trkpt><trkpt lat="38.87773390923244" lon="8.852247320294643"><ele>4.333333333333333</ele><time>2026-04-06T07:27:41Z</time></trkpt><trkpt lat="38.87765282091247" lon="8.852143681847695"><ele>4.0</ele><time>2026-04-06T07:27:43Z</time></trkpt><trkpt lat="38.87758136677896" lon="8.852052064450465"><ele>3.9999999999999996</ele><time>2026-04-06T07:27:45Z</time></trkpt><trkpt lat="38.87749735277483" lon="8.851983441045672"><ele>4.0</ele><time>2026-04-06T07:27:47Z</time></trkpt><trkpt lat="38.87742130612065" lon="8.851913277287155"><ele>4.0</ele><time>2026-04-06T07:27:49Z</time></trkpt><trkpt lat="38.87734596880291" lon="8.851878025341104"><ele>4.0</ele><time>2026-04-06T07:27:51Z</time></trkpt><trkpt lat="38.87734602564677" lon="8.851769404036755"><ele>3.9999999999999996</ele><time>2026-04-06T07:27:53Z</time></trkpt><trkpt lat="38.8773990226852" lon="8.851704615782582"><ele>4.0</ele><time>2026-04-06T07:27:55Z</time></trkpt><trkpt lat="38.87745688995155" lon="8.85164819940787"><ele>5.5</ele><time>2026-04-06T07:27:57Z</time></trkpt><trkpt lat="38.87751309884907" lon="8.85158615198036"><ele>7.0</ele><time>2026-04-06T07:27:59Z</time></trkpt><trkpt lat="38.877582995670025" lon="8.851537970907888"><ele>8.5</ele><time>2026-04-06T07:28:01Z</time></trkpt><trkpt lat="38.87766044536859" lon="8.851526477111836"><ele>10.0</ele><time>2026-04-06T07:28:03Z</time></trkpt><trkpt lat="38.87773684499281" lon="8.85153319973364"><ele>11.499999999999998</ele><time>2026-04-06T07:28:05Z</time></trkpt><trkpt lat="38.87781694358993" lon="8.851542288446943"><ele>13.0</ele><time>2026-04-06T07:28:07Z</time></trkpt><trkpt lat="38.87789533416864" lon="8.851541133697827"><ele>14.333333333333332</ele><time>2026-04-06T07:28:09Z</time></trkpt><trkpt lat="38.87797696834572" lon="8.851530882835569"><ele>15.666666666666666</ele><time>2026-04-06T07:28:11Z</time></trkpt><trkpt lat="38.878054874718764" lon="8.851504062331504"><ele>17.0</ele><time>2026-04-06T07:28:13Z</time></trkpt><trkpt lat="38.878109478686866" lon="8.851433283031927"><ele>18.333333333333332</ele><time>2026-04-06T07:28:15Z</time></trkpt><trkpt lat="38.87815682281341" lon="8.85135197123026"><ele>19.666666666666668</ele><time>2026-04-06T07:28:17Z</time></trkpt><trkpt lat="38.878200946419426" lon="8.851256693644084"><ele>21.0</ele><time>2026-04-06T07:28:19Z</time></trkpt><trkpt lat="38.87821733749613" lon="8.851158112034764"><ele>21.0</ele><time>2026-04-06T07:28:21Z</time></trkpt><trkpt lat="38.8782138339505" lon="8.851058328919565"><ele>21.0</ele><time>2026-04-06T07:28:23Z</time></trkpt><trkpt lat="38.87815684693891" lon="8.85097922355266"><ele>21.0</ele><time>2026-04-06T07:28:25Z</time></trkpt><trkpt lat="38.87813830697994" lon="8.8508878706975"><ele>21.0</ele><time>2026-04-06T07:28:27Z</time></trkpt><trkpt lat="38.87810847313048" lon="8.850799795547957"><ele>21.0</ele><time>2026-04-06T07:28:29Z</time></trkpt><trkpt lat="38.878083564669915" lon="8.850712807321502"><ele>21.0</ele><time>2026-04-06T07:28:31Z</time></trkpt><trkpt lat="38.87806616482581" lon="8.850632461200183"><ele>21.0</ele><time>2026-04-06T07:28:41Z</time></trkpt><trkpt lat="38.87804583568706" lon="8.850536118065513"><ele>21.833333333333332</ele><time>2026-04-06T07:28:46Z</time></trkpt><trkpt lat="38.878096904652914" lon="8.850460018027638"><ele>22.666666666666664</ele><time>2026-04-06T07:28:48Z</time></trkpt><trkpt lat="38.8781584991099" lon="8.850377806135318"><ele>23.5</ele><time>2026-04-06T07:28:50Z</time></trkpt><trkpt lat="38.87820908072285" lon="8.85028448614615"><ele>24.333333333333332</ele><time>2026-04-06T07:28:52Z</time></trkpt><trkpt lat="38.878238301699625" lon="8.850191610555836"><ele>25.166666666666664</ele><time>2026-04-06T07:28:54Z</time></trkpt><trkpt lat="38.878248945627476" lon="8.850089844052171"><ele>26.0</ele><time>2026-04-06T07:28:56Z</time></trkpt><trkpt lat="38.87827029933549" lon="8.850000504536062"><ele>26.857142857142854</ele><time>2026-04-06T07:28:58Z</time></trkpt><trkpt lat="38.87827018214464" lon="8.849895186587476"><ele>27.714285714285715</ele><time>2026-04-06T07:29:00Z</time></trkpt><trkpt lat="38.8782959812391" lon="8.84981439805588"><ele>28.57142857142857</ele><time>2026-04-06T07:29:02Z</time></trkpt><trkpt lat="38.87831380543144" lon="8.849731098404058"><ele>29.428571428571427</ele><time>2026-04-06T07:29:04Z</time></trkpt><trkpt lat="38.878330283501576" lon="8.84964701734681"><ele>30.285714285714285</ele><time>2026-04-06T07:29:06Z</time></trkpt><trkpt lat="38.87834253211739" lon="8.8495608391793"><ele>31.142857142857142</ele><time>2026-04-06T07:29:08Z</time></trkpt><trkpt lat="38.87835546262988" lon="8.849476709577816"><ele>32.0</ele><time>2026-04-06T07:29:10Z</time></trkpt><trkpt lat="38.87835971872092" lon="8.849390235311782"><ele>32.0</ele><time>2026-04-06T07:29:12Z</time></trkpt><trkpt lat="38.87837118987402" lon="8.849305665761486"><ele>31.999999999999996</ele><time>2026-04-06T07:29:14Z</time></trkpt><trkpt lat="38.878384271889075" lon="8.84922330370762"><ele>32.0</ele><time>2026-04-06T07:29:16Z</time></trkpt><trkpt lat="38.87840905442247" lon="8.849109467676465"><ele>32.0</ele><time>2026-04-06T07:29:19Z</time></trkpt><trkpt lat="38.87843440010672" lon="8.84899506697871"><ele>31.999999999999996</ele><time>2026-04-06T07:29:22Z</time></trkpt><trkpt lat="38.8784452232423" lon="8.848912770863706"><ele>32.0</ele><time>2026-04-06T07:29:24Z</time></trkpt><trkpt lat="38.8784651083961" lon="8.848833321654723"><ele>32.0</ele><time>2026-04-06T07:29:26Z</time></trkpt><trkpt lat="38.878456634010234" lon="8.848748690259965"><ele>33.0</ele><time>2026-04-06T07:29:28Z</time></trkpt><trkpt lat="38.878465016137376" lon="8.848662438482627"><ele>34.0</ele><time>2026-04-06T07:29:30Z</time></trkpt><trkpt lat="38.87847747402568" lon="8.848569995177458"><ele>35.0</ele><time>2026-04-06T07:29:32Z</time></trkpt><trkpt lat="38.87847223402309" lon="8.848477983222907"><ele>36.0</ele><time>2026-04-06T07:29:34Z</time></trkpt><trkpt lat="38.87847273335222" lon="8.848388453041265"><ele>37.0</ele><time>2026-04-06T07:29:36Z</time></trkpt><trkpt lat="38.87849408757383" lon="8.848303906834426"><ele>38.0</ele><time>2026-04-06T07:29:38Z</time></trkpt><trkpt lat="38.87850632400082" lon="8.848212549704554"><ele>39.0</ele><time>2026-04-06T07:29:40Z</time></trkpt><trkpt lat="38.87853983364123" lon="8.848132858359396"><ele>40.142857142857146</ele><time>2026-04-06T07:29:42Z</time></trkpt><trkpt lat="38.8785674764996" lon="8.848048834212836"><ele>41.285714285714285</ele><time>2026-04-06T07:29:44Z</time></trkpt><trkpt lat="38.87859910590839" lon="8.847973175491724"><ele>42.42857142857143</ele><time>2026-04-06T07:29:46Z</time></trkpt><trkpt lat="38.8786096611137" lon="8.8478870895679"><ele>43.57142857142857</ele><time>2026-04-06T07:29:48Z</time></trkpt><trkpt lat="38.87862172251023" lon="8.847804574739285"><ele>44.71428571428571</ele><time>2026-04-06T07:29:50Z</time></trkpt><trkpt lat="38.87863081745161" lon="8.8477203039477"><ele>45.857142857142854</ele><time>2026-04-06T07:29:52Z</time></trkpt><trkpt lat="38.87864171936493" lon="8.847605611037585"><ele>47.0</ele><time>2026-04-06T07:29:55Z</time></trkpt><trkpt lat="38.87864948269164" lon="8.847491942973734"><ele>48.33333333333333</ele><time>2026-04-06T07:29:58Z</time></trkpt><trkpt lat="38.878655499391506" lon="8.847381912732828"><ele>49.666666666666664</ele><time>2026-04-06T07:30:01Z</time></trkpt><trkpt lat="38.87866309842351" lon="8.847283193010268"><ele>51.0</ele><time>2026-04-06T07:30:04Z</time></trkpt><trkpt lat="38.8786827297789" lon="8.847187789858056"><ele>52.33333333333333</ele><time>2026-04-06T07:30:07Z</time></trkpt><trkpt lat="38.87868320831822" lon="8.847097807511624"><ele>53.666666666666664</ele><time>2026-04-06T07:30:10Z</time></trkpt><trkpt lat="38.87869676925106" lon="8.84700935608098"><ele>55.0</ele><time>2026-04-06T07:30:13Z</time></trkpt><trkpt lat="38.878705101733566" lon="8.846907116907564"><ele>54.99999999999999</ele><time>2026-04-06T07:30:16Z</time></trkpt><trkpt lat="38.87873591735583" lon="8.846807821661816"><ele>55.0</ele><time>2026-04-06T07:30:19Z</time></trkpt><trkpt lat="38.87872328687675" lon="8.84669299785659"><ele>55.0</ele><time>2026-04-06T07:30:22Z</time></trkpt><trkpt lat="38.8787107640025" lon="8.846612125696543"><ele>55.0</ele><time>2026-04-06T07:30:24Z</time></trkpt><trkpt lat="38.878655857436165" lon="8.846527380339797"><ele>54.99999999999999</ele><time>2026-04-06T07:30:27Z</time></trkpt><trkpt lat="38.878609997644176" lon="8.846426433790947"><ele>55.0</ele><time>2026-04-06T07:30:30Z</time></trkpt><trkpt lat="38.87856102648999" lon="8.84633977431856"><ele>55.83333333333333</ele><time>2026-04-06T07:30:33Z</time></trkpt><trkpt lat="38.87852479578005" lon="8.846238260122798"><ele>56.666666666666664</ele><time>2026-04-06T07:30:36Z</time></trkpt><trkpt lat="38.87847862706999" lon="8.846148808148259"><ele>57.5</ele><time>2026-04-06T07:30:39Z</time></trkpt><trkpt lat="38.878449987398135" lon="8.846036376908492"><ele>58.33333333333333</ele><time>2026-04-06T07:30:42Z</time></trkpt><trkpt lat="38.87840694377165" lon="8.845968264154678"><ele>59.166666666666664</ele><time>2026-04-06T07:30:44Z</time></trkpt><trkpt lat="38.87838358760661" lon="8.845888013060158"><ele>60.0</ele><time>2026-04-06T07:30:46Z</time></trkpt><trkpt lat="38.87836411233234" lon="8.845810514846194"><ele>61.0</ele><time>2026-04-06T07:30:48Z</time></trkpt><trkpt lat="38.87834266099975" lon="8.845727685987237"><ele>62.0</ele><time>2026-04-06T07:30:50Z</time></trkpt><trkpt lat="38.87832072481763" lon="8.845638035506424"><ele>63.0</ele><time>2026-04-06T07:30:52Z</time></trkpt><trkpt lat="38.878296912985725" lon="8.845553225996012"><ele>64.0</ele><time>2026-04-06T07:30:54Z</time></trkpt><trkpt lat="38.87827565294836" lon="8.84546617674855"><ele>65.0</ele><time>2026-04-06T07:30:56Z</time></trkpt><trkpt lat="38.87823867313316" lon="8.84537976678015"><ele>66.0</ele><time>2026-04-06T07:30:58Z</time></trkpt><trkpt lat="38.878203504674204" lon="8.845304736083246"><ele>67.0</ele><time>2026-04-06T07:31:00Z</time></trkpt><trkpt lat="38.87818319146103" lon="8.845226862084749"><ele>67.0</ele><time>2026-04-06T07:31:05Z</time></trkpt><trkpt lat="38.8781104637263" lon="8.84517948380643"><ele>67.0</ele><time>2026-04-06T07:32:57Z</time></trkpt><trkpt lat="38.878022778245175" lon="8.845177087067801"><ele>67.0</ele><time>2026-04-06T07:33:00Z</time></trkpt><trkpt lat="38.87794313607066" lon="8.845176825051942"><ele>67.0</ele><time>2026-04-06T07:33:02Z</time></trkpt><trkpt lat="38.87787263830896" lon="8.84515576033262"><ele>67.0</ele><time>2026-04-06T07:33:05Z</time></trkpt><trkpt lat="38.877806063745226" lon="8.845138832889539"><ele>67.0</ele><time>2026-04-06T07:33:13Z</time></trkpt><trkpt lat="38.87772665052767" lon="8.84511271765064"><ele>66.75</ele><time>2026-04-06T07:33:17Z</time></trkpt><trkpt lat="38.87768271877398" lon="8.84473885675139"><ele>66.5</ele><time>2026-04-06T07:33:20Z</time></trkpt><trkpt lat="38.87768848108441" lon="8.844652116077247"><ele>66.25</ele><time>2026-04-06T07:33:23Z</time></trkpt><trkpt lat="38.87769367491803" lon="8.844543330047888"><ele>66.0</ele><time>2026-04-06T07:33:26Z</time></trkpt><trkpt lat="38.877717536160894" lon="8.844465648062046"><ele>66.0</ele><time>2026-04-06T07:33:29Z</time></trkpt><trkpt lat="38.87775732853549" lon="8.844365603355527"><ele>66.0</ele><time>2026-04-06T07:33:32Z</time></trkpt><trkpt lat="38.87779565138555" lon="8.84427414062064"><ele>66.0</ele><time>2026-04-06T07:33:34Z</time></trkpt><trkpt lat="38.87781363614694" lon="8.844150819655361"><ele>66.0</ele><time>2026-04-06T07:33:37Z</time></trkpt><trkpt lat="38.87784301457566" lon="8.844067035753238"><ele>66.0</ele><time>2026-04-06T07:33:39Z</time></trkpt><trkpt lat="38.877873090756054" lon="8.843978187070697"><ele>66.0</ele><time>2026-04-06T07:33:42Z</time></trkpt><trkpt lat="38.8779148711276" lon="8.843911111183967"><ele>64.66666666666667</ele><time>2026-04-06T07:33:44Z</time></trkpt><trkpt lat="38.87796333781396" lon="8.843857197906106"><ele>63.33333333333333</ele><time>2026-04-06T07:33:46Z</time></trkpt><trkpt lat="38.87801584523893" lon="8.843810572543573"><ele>62.0</ele><time>2026-04-06T07:33:48Z</time></trkpt><trkpt lat="38.878056895883255" lon="8.84374266194591"><ele>60.666666666666664</ele><time>2026-04-06T07:33:50Z</time></trkpt><trkpt lat="38.878116314646654" lon="8.843670032992366"><ele>59.33333333333333</ele><time>2026-04-06T07:33:53Z</time></trkpt><trkpt lat="38.87818700746988" lon="8.8435990529902"><ele>58.0</ele><time>2026-04-06T07:34:04Z</time></trkpt><trkpt lat="38.8782670165888" lon="8.843522656867394"><ele>58.00000000000001</ele><time>2026-04-06T07:34:07Z</time></trkpt><trkpt lat="38.87832318486803" lon="8.84347200840058"><ele>58.0</ele><time>2026-04-06T07:34:09Z</time></trkpt><trkpt lat="38.87838858266657" lon="8.843432334542921"><ele>58.00000000000001</ele><time>2026-04-06T07:34:11Z</time></trkpt><trkpt lat="38.8784339080567" lon="8.843373745053407"><ele>58.00000000000001</ele><time>2026-04-06T07:34:13Z</time></trkpt><trkpt lat="38.87850470686547" lon="8.843396233607002"><ele>58.0</ele><time>2026-04-06T07:34:17Z</time></trkpt><trkpt lat="38.87857281465502" lon="8.843401348152733"><ele>58.00000000000001</ele><time>2026-04-06T07:34:19Z</time></trkpt><trkpt lat="38.878653895064275" lon="8.843411461814762"><ele>58.00000000000001</ele><time>2026-04-06T07:34:21Z</time></trkpt><trkpt lat="38.87872474526021" lon="8.843415079658485"><ele>56.49999999999999</ele><time>2026-04-06T07:34:23Z</time></trkpt><trkpt lat="38.87880287794266" lon="8.843409018945358"><ele>55.0</ele><time>2026-04-06T07:34:27Z</time></trkpt><trkpt lat="38.87886180209139" lon="8.843346923790154"><ele>53.5</ele><time>2026-04-06T07:34:37Z</time></trkpt><trkpt lat="38.8788963747017" lon="8.84325057288046"><ele>52.0</ele><time>2026-04-06T07:34:40Z</time></trkpt><trkpt lat="38.878917596736756" lon="8.843171293557512"><ele>50.49999999999999</ele><time>2026-04-06T07:34:42Z</time></trkpt><trkpt lat="38.87893938948427" lon="8.843069226778654"><ele>49.0</ele><time>2026-04-06T07:34:44Z</time></trkpt><trkpt lat="38.878971034526415" lon="8.842980880084225"><ele>49.0</ele><time>2026-04-06T07:34:46Z</time></trkpt><trkpt lat="38.879011475338146" lon="8.842876510383524"><ele>49.0</ele><time>2026-04-06T07:34:49Z</time></trkpt><trkpt lat="38.879022366130606" lon="8.842782439311618"><ele>49.0</ele><time>2026-04-06T07:34:52Z</time></trkpt><trkpt lat="38.879054762835025" lon="8.842682095759761"><ele>49.0</ele><time>2026-04-06T07:34:56Z</time></trkpt><trkpt lat="38.87908158816965" lon="8.842600605366858"><ele>49.0</ele><time>2026-04-06T07:34:59Z</time></trkpt><trkpt lat="38.87910359063689" lon="8.842518048114622"><ele>49.0</ele><time>2026-04-06T07:35:03Z</time></trkpt><trkpt lat="38.87913097489977" lon="8.842445100149448"><ele>49.0</ele><time>2026-04-06T07:35:06Z</time></trkpt><trkpt lat="38.87915587353351" lon="8.842369697466689"><ele>49.33333333333333</ele><time>2026-04-06T07:35:09Z</time></trkpt><trkpt lat="38.8791902331491" lon="8.842279438703114"><ele>49.666666666666664</ele><time>2026-04-06T07:35:18Z</time></trkpt><trkpt lat="38.87920090844972" lon="8.84218919671552"><ele>50.0</ele><time>2026-04-06T07:35:23Z</time></trkpt><trkpt lat="38.87923783599094" lon="8.842093478188568"><ele>50.33333333333333</ele><time>2026-04-06T07:35:28Z</time></trkpt><trkpt lat="38.879272767400835" lon="8.841992921140935"><ele>50.666666666666664</ele><time>2026-04-06T07:35:31Z</time></trkpt><trkpt lat="38.879288304103476" lon="8.841904366265336"><ele>51.0</ele><time>2026-04-06T07:35:33Z</time></trkpt><trkpt lat="38.879317524875454" lon="8.841807097572495"><ele>47.85714285714286</ele><time>2026-04-06T07:35:36Z</time></trkpt><trkpt lat="38.87935523430748" lon="8.841734882417356"><ele>44.714285714285715</ele><time>2026-04-06T07:35:39Z</time></trkpt><trkpt lat="38.879387594567156" lon="8.841661837051763"><ele>41.57142857142857</ele><time>2026-04-06T07:35:43Z</time></trkpt><trkpt lat="38.87941536315162" lon="8.841588510672636"><ele>38.42857142857143</ele><time>2026-04-06T07:35:55Z</time></trkpt><trkpt lat="38.879465309508326" lon="8.841521249574418"><ele>35.285714285714285</ele><time>2026-04-06T07:36:03Z</time></trkpt><trkpt lat="38.879512437387866" lon="8.841451836835512"><ele>32.142857142857146</ele><time>2026-04-06T07:36:06Z</time></trkpt><trkpt lat="38.87956438152189" lon="8.841392610881924"><ele>29.000000000000004</ele><time>2026-04-06T07:36:09Z</time></trkpt><trkpt lat="38.879628806411745" lon="8.841341727332988"><ele>29.000000000000004</ele><time>2026-04-06T07:36:13Z</time></trkpt><trkpt lat="38.879689245788185" lon="8.84130621986796"><ele>29.0</ele><time>2026-04-06T07:36:46Z</time></trkpt><trkpt lat="38.879734414628196" lon="8.841247304159182"><ele>29.000000000000004</ele><time>2026-04-06T07:36:53Z</time></trkpt><trkpt lat="38.87979812511867" lon="8.841205311496099"><ele>29.000000000000004</ele><time>2026-04-06T07:37:00Z</time></trkpt><trkpt lat="38.87987548540645" lon="8.841167671868797"><ele>29.0</ele><time>2026-04-06T07:37:03Z</time></trkpt><trkpt lat="38.879946489024505" lon="8.841136707898107"><ele>29.000000000000004</ele><time>2026-04-06T07:37:06Z</time></trkpt><trkpt lat="38.880004448524225" lon="8.841095275441534"><ele>29.000000000000004</ele><time>2026-04-06T07:37:21Z</time></trkpt><trkpt lat="38.88006316880257" lon="8.841061649233534"><ele>28.428571428571434</ele><time>2026-04-06T07:37:48Z</time></trkpt><trkpt lat="38.880131471380594" lon="8.841042114342097"><ele>27.857142857142858</ele><time>2026-04-06T07:38:02Z</time></trkpt><trkpt lat="38.88018750685636" lon="8.840982776926007"><ele>27.28571428571429</ele><time>2026-04-06T07:38:12Z</time></trkpt><trkpt lat="38.88024290243702" lon="8.840913960367178"><ele>26.714285714285715</ele><time>2026-04-06T07:38:16Z</time></trkpt><trkpt lat="38.88027855440493" lon="8.840828637234695"><ele>26.142857142857146</ele><time>2026-04-06T07:38:19Z</time></trkpt><trkpt lat="38.880294821781" lon="8.840743357790492"><ele>25.571428571428573</ele><time>2026-04-06T07:38:23Z</time></trkpt><trkpt lat="38.88036683483081" lon="8.840712282061117"><ele>25.0</ele><time>2026-04-06T07:39:09Z</time></trkpt><trkpt lat="38.880372243940144" lon="8.840615553728899"><ele>25.000000000000004</ele><time>2026-04-06T07:39:14Z</time></trkpt><trkpt lat="38.880375669906726" lon="8.84052670645766"><ele>25.0</ele><time>2026-04-06T07:39:33Z</time></trkpt><trkpt lat="38.880429022080556" lon="8.84045445831811"><ele>25.0</ele><time>2026-04-06T07:39:53Z</time></trkpt><trkpt lat="38.88045345316301" lon="8.84037923005038"><ele>25.0</ele><time>2026-04-06T07:40:22Z</time></trkpt><trkpt lat="38.88047157719894" lon="8.840291556480208"><ele>25.0</ele><time>2026-04-06T07:40:40Z</time></trkpt><trkpt lat="38.880506253972634" lon="8.840221214720671"><ele>25.000000000000004</ele><time>2026-04-06T07:40:53Z</time></trkpt><trkpt lat="38.88053013585434" lon="8.840133525798372"><ele>25.0</ele><time>2026-04-06T07:41:02Z</time></trkpt><trkpt lat="38.8805346078772" lon="8.840040259150529"><ele>24.714285714285715</ele><time>2026-04-06T07:41:11Z</time></trkpt><trkpt lat="38.8805035992101" lon="8.83996635572285"><ele>24.42857142857143</ele><time>2026-04-06T07:42:31Z</time></trkpt><trkpt lat="38.88047295586607" lon="8.839888674050991"><ele>24.142857142857146</ele><time>2026-04-06T07:42:35Z</time></trkpt><trkpt lat="38.880527119453575" lon="8.839837221575594"><ele>23.857142857142858</ele><time>2026-04-06T07:42:40Z</time></trkpt><trkpt lat="38.88058026064362" lon="8.839770424153288"><ele>23.57142857142857</ele><time>2026-04-06T07:42:45Z</time></trkpt><trkpt lat="38.88061418860932" lon="8.839694694865337"><ele>23.28571428571429</ele><time>2026-04-06T07:43:35Z</time></trkpt><trkpt lat="38.88061826021526" lon="8.839612770609879"><ele>23.0</ele><time>2026-04-06T07:43:55Z</time></trkpt><trkpt lat="38.880641296262624" lon="8.839534929683266"><ele>23.0</ele><time>2026-04-06T07:44:12Z</time></trkpt><trkpt lat="38.880675648620674" lon="8.83945541506669"><ele>23.0</ele><time>2026-04-06T07:44:40Z</time></trkpt><trkpt lat="38.880689852063895" lon="8.839371451953275"><ele>23.0</ele><time>2026-04-06T07:45:02Z</time></trkpt><trkpt lat="38.88072333579112" lon="8.839277746251472"><ele>23.0</ele><time>2026-04-06T07:45:17Z</time></trkpt><trkpt lat="38.88078037814949" lon="8.839219428507398"><ele>23.0</ele><time>2026-04-06T07:45:35Z</time></trkpt><trkpt lat="38.880835043138205" lon="8.839172212404321"><ele>23.0</ele><time>2026-04-06T07:45:48Z</time></trkpt><trkpt lat="38.880855918774856" lon="8.839078555512403"><ele>23.0</ele><time>2026-04-06T07:45:56Z</time></trkpt><trkpt lat="38.88087553852931" lon="8.838977369939078"><ele>23.333333333333336</ele><time>2026-04-06T07:46:10Z</time></trkpt><trkpt lat="38.88085701709013" lon="8.838882739949534"><ele>23.666666666666668</ele><time>2026-04-06T07:46:13Z</time></trkpt><trkpt lat="38.88082253504864" lon="8.838781914083729"><ele>24.0</ele><time>2026-04-06T07:46:16Z</time></trkpt><trkpt lat="38.88083131223688" lon="8.838692129619288"><ele>24.333333333333336</ele><time>2026-04-06T07:47:30Z</time></trkpt><trkpt lat="38.88090690593339" lon="8.838676473840675"><ele>24.666666666666668</ele><time>2026-04-06T07:47:33Z</time></trkpt><trkpt lat="38.88093955637842" lon="8.838603967082634"><ele>25.0</ele><time>2026-04-06T07:47:36Z</time></trkpt><trkpt lat="38.88093415070804" lon="8.838499226614745"><ele>22.714285714285715</ele><time>2026-04-06T07:47:39Z</time></trkpt><trkpt lat="38.880865533285196" lon="8.838463431418763"><ele>20.42857142857143</ele><time>2026-04-06T07:47:41Z</time></trkpt><trkpt lat="38.88082430056277" lon="8.838389080992917"><ele>18.142857142857146</ele><time>2026-04-06T07:48:11Z</time></trkpt><trkpt lat="38.880786135385755" lon="8.83831505575142"><ele>15.857142857142858</ele><time>2026-04-06T07:48:15Z</time></trkpt><trkpt lat="38.880709583756726" lon="8.838293921966025"><ele>13.571428571428573</ele><time>2026-04-06T07:48:23Z</time></trkpt><trkpt lat="38.88067980814972" lon="8.838212596754277"><ele>11.285714285714286</ele><time>2026-04-06T07:48:26Z</time></trkpt><trkpt lat="38.88062895049582" lon="8.838125823175849"><ele>9.0</ele><time>2026-04-06T07:48:30Z</time></trkpt><trkpt lat="38.88058140993469" lon="8.838043489074998"><ele>9.0</ele><time>2026-04-06T07:48:33Z</time></trkpt><trkpt lat="38.88057509303201" lon="8.837931501018288"><ele>9.0</ele><time>2026-04-06T07:48:36Z</time></trkpt><trkpt lat="38.880553489391126" lon="8.83784062442085"><ele>9.0</ele><time>2026-04-06T07:48:39Z</time></trkpt><trkpt lat="38.88051410863244" lon="8.837769696488454"><ele>9.0</ele><time>2026-04-06T07:48:43Z</time></trkpt><trkpt lat="38.880490477699375" lon="8.837674097662418"><ele>9.0</ele><time>2026-04-06T07:48:47Z</time></trkpt><trkpt lat="38.88052532878962" lon="8.837584658421559"><ele>9.0</ele><time>2026-04-06T07:48:51Z</time></trkpt><trkpt lat="38.88046901967862" lon="8.837519843096011"><ele>10.285714285714286</ele><time>2026-04-06T07:48:54Z</time></trkpt><trkpt lat="38.880438821047726" lon="8.83742986026815"><ele>11.571428571428573</ele><time>2026-04-06T07:48:58Z</time></trkpt><trkpt lat="38.88045931640858" lon="8.837351250490858"><ele>12.857142857142858</ele><time>2026-04-06T07:49:16Z</time></trkpt><trkpt lat="38.880465639652215" lon="8.837266218986933"><ele>14.142857142857144</ele><time>2026-04-06T07:49:24Z</time></trkpt><trkpt lat="38.88042453425076" lon="8.837199361017314"><ele>15.428571428571429</ele><time>2026-04-06T07:49:37Z</time></trkpt><trkpt lat="38.88042555490207" lon="8.83710785555861"><ele>16.714285714285715</ele><time>2026-04-06T07:49:41Z</time></trkpt><trkpt lat="38.88045617621014" lon="8.837022767108527"><ele>18.0</ele><time>2026-04-06T07:49:44Z</time></trkpt><trkpt lat="38.880442867931286" lon="8.836935082667413"><ele>18.000000000000004</ele><time>2026-04-06T07:49:47Z</time></trkpt><trkpt lat="38.880397234763905" lon="8.836869746860204"><ele>18.0</ele><time>2026-04-06T07:49:50Z</time></trkpt><trkpt lat="38.88034337760684" lon="8.836821646923742"><ele>18.0</ele><time>2026-04-06T07:49:53Z</time></trkpt><trkpt lat="38.88027674139066" lon="8.836803367888079"><ele>18.0</ele><time>2026-04-06T07:49:57Z</time></trkpt><trkpt lat="38.88024777263953" lon="8.836728680847935"><ele>18.0</ele><time>2026-04-06T07:50:12Z</time></trkpt><trkpt lat="38.88019915997535" lon="8.836654310811673"><ele>18.000000000000004</ele><time>2026-04-06T07:50:25Z</time></trkpt><trkpt lat="38.880147956066374" lon="8.836600375226505"><ele>18.0</ele><time>2026-04-06T07:50:28Z</time></trkpt><trkpt lat="38.88012464667927" lon="8.836517877284244"><ele>18.714285714285715</ele><time>2026-04-06T07:50:32Z</time></trkpt><trkpt lat="38.88008724164923" lon="8.836419826021304"><ele>19.42857142857143</ele><time>2026-04-06T07:51:05Z</time></trkpt><trkpt lat="38.88003040044474" lon="8.836368295626453"><ele>20.142857142857146</ele><time>2026-04-06T07:51:07Z</time></trkpt><trkpt lat="38.879965791165354" lon="8.836370494060496"><ele>20.857142857142858</ele><time>2026-04-06T07:51:09Z</time></trkpt><trkpt lat="38.87991279091874" lon="8.836322886493152"><ele>21.57142857142857</ele><time>2026-04-06T07:51:11Z</time></trkpt><trkpt lat="38.87989634782097" lon="8.83621180210334"><ele>22.28571428571429</ele><time>2026-04-06T07:51:13Z</time></trkpt><trkpt lat="38.87991697380575" lon="8.836129654391025"><ele>23.0</ele><time>2026-04-06T07:51:15Z</time></trkpt><trkpt lat="38.879893832303885" lon="8.836053453385066"><ele>23.0</ele><time>2026-04-06T07:51:20Z</time></trkpt><trkpt lat="38.87984105800508" lon="8.836004099791335"><ele>23.0</ele><time>2026-04-06T07:51:22Z</time></trkpt><trkpt lat="38.87982799821469" lon="8.8359156717892"><ele>23.0</ele><time>2026-04-06T07:51:25Z</time></trkpt><trkpt lat="38.87988558784288" lon="8.835863841311902"><ele>23.0</ele><time>2026-04-06T07:51:27Z</time></trkpt><trkpt lat="38.87995863159663" lon="8.8358721253138"><ele>23.0</ele><time>2026-04-06T07:51:29Z</time></trkpt><trkpt lat="38.880002900932794" lon="8.8357909304907"><ele>23.0</ele><time>2026-04-06T07:51:33Z</time></trkpt><trkpt lat="38.88001176933704" lon="8.83569133183378"><ele>23.0</ele><time>2026-04-06T07:51:36Z</time></trkpt><trkpt lat="38.880068248682676" lon="8.835621250850371"><ele>22.833333333333336</ele><time>2026-04-06T07:51:39Z</time></trkpt><trkpt lat="38.88012399961388" lon="8.83557896240164"><ele>22.666666666666668</ele><time>2026-04-06T07:51:41Z</time></trkpt><trkpt lat="38.88010400948727" lon="8.835476998934144"><ele>22.5</ele><time>2026-04-06T07:51:43Z</time></trkpt><trkpt lat="38.88011165413505" lon="8.835384832005067"><ele>22.333333333333332</ele><time>2026-04-06T07:51:45Z</time></trkpt><trkpt lat="38.880128838749336" lon="8.835282561241439"><ele>22.166666666666664</ele><time>2026-04-06T07:51:47Z</time></trkpt><trkpt lat="38.88015083330355" lon="8.83518306513324"><ele>22.0</ele><time>2026-04-06T07:51:49Z</time></trkpt><trkpt lat="38.88016671083828" lon="8.835071526165972"><ele>21.166666666666664</ele><time>2026-04-06T07:51:51Z</time></trkpt><trkpt lat="38.880185625920085" lon="8.834983455749164"><ele>20.333333333333332</ele><time>2026-04-06T07:51:53Z</time></trkpt><trkpt lat="38.88020540862497" lon="8.834868131501747"><ele>19.5</ele><time>2026-04-06T07:51:55Z</time></trkpt><trkpt lat="38.88028267991964" lon="8.834791319687499"><ele>18.666666666666668</ele><time>2026-04-06T07:51:57Z</time></trkpt><trkpt lat="38.88029257437656" lon="8.834693852320813"><ele>17.833333333333336</ele><time>2026-04-06T07:52:01Z</time></trkpt><trkpt lat="38.88032639743118" lon="8.834610320194548"><ele>17.0</ele><time>2026-04-06T07:52:04Z</time></trkpt><trkpt lat="38.88035240961103" lon="8.834531224458887"><ele>17.0</ele><time>2026-04-06T07:52:07Z</time></trkpt><trkpt lat="38.88040922229072" lon="8.83444142922545"><ele>17.0</ele><time>2026-04-06T07:52:10Z</time></trkpt><trkpt lat="38.88045917690864" lon="8.834386861285104"><ele>17.0</ele><time>2026-04-06T07:52:12Z</time></trkpt><trkpt lat="38.88054470490682" lon="8.834328061114187"><ele>17.0</ele><time>2026-04-06T07:52:15Z</time></trkpt><trkpt lat="38.88060087743745" lon="8.834289934170624"><ele>17.0</ele><time>2026-04-06T07:52:17Z</time></trkpt><trkpt lat="38.880662671717886" lon="8.834244245969726"><ele>17.0</ele><time>2026-04-06T07:52:19Z</time></trkpt><trkpt lat="38.88072403693536" lon="8.834189014147375"><ele>17.142857142857142</ele><time>2026-04-06T07:52:21Z</time></trkpt><trkpt lat="38.88075474029357" lon="8.834107941558912"><ele>17.285714285714285</ele><time>2026-04-06T07:52:23Z</time></trkpt><trkpt lat="38.88080211223376" lon="8.834027398313808"><ele>17.42857142857143</ele><time>2026-04-06T07:52:25Z</time></trkpt><trkpt lat="38.880849532467664" lon="8.83395696524562"><ele>17.57142857142857</ele><time>2026-04-06T07:52:27Z</time></trkpt><trkpt lat="38.88089773032101" lon="8.833883930324472"><ele>17.714285714285715</ele><time>2026-04-06T07:52:29Z</time></trkpt><trkpt lat="38.88094209281273" lon="8.833805157555846"><ele>17.857142857142858</ele><time>2026-04-06T07:52:31Z</time></trkpt><trkpt lat="38.880986653598384" lon="8.83373066430402"><ele>18.0</ele><time>2026-04-06T07:52:33Z</time></trkpt><trkpt lat="38.88102754191457" lon="8.833642668294734"><ele>18.4</ele><time>2026-04-06T07:52:35Z</time></trkpt><trkpt lat="38.88104240489754" lon="8.833534919813294"><ele>18.8</ele><time>2026-04-06T07:52:37Z</time></trkpt><trkpt lat="38.881055771868425" lon="8.833420449018776"><ele>19.2</ele><time>2026-04-06T07:52:39Z</time></trkpt><trkpt lat="38.88108259676418" lon="8.833305110225265"><ele>19.6</ele><time>2026-04-06T07:52:41Z</time></trkpt><trkpt lat="38.8810811486911" lon="8.83318071069908"><ele>20.0</ele><time>2026-04-06T07:52:43Z</time></trkpt><trkpt lat="38.881075450284364" lon="8.833059960308473"><ele>20.166666666666668</ele><time>2026-04-06T07:52:45Z</time></trkpt><trkpt lat="38.8810859363274" lon="8.8329457682645"><ele>20.333333333333336</ele><time>2026-04-06T07:52:47Z</time></trkpt><trkpt lat="38.881115450485765" lon="8.832832447682428"><ele>20.5</ele><time>2026-04-06T07:52:49Z</time></trkpt><trkpt lat="38.881129611551025" lon="8.832706862352039"><ele>20.666666666666668</ele><time>2026-04-06T07:52:51Z</time></trkpt><trkpt lat="38.88116174267168" lon="8.832603601750295"><ele>20.833333333333332</ele><time>2026-04-06T07:52:53Z</time></trkpt><trkpt lat="38.88119851178963" lon="8.832510743105617"><ele>21.0</ele><time>2026-04-06T07:52:55Z</time></trkpt><trkpt lat="38.881211618306395" lon="8.832400926461085"><ele>21.0</ele><time>2026-04-06T07:52:57Z</time></trkpt><trkpt lat="38.88122773035649" lon="8.832282954621695"><ele>21.0</ele><time>2026-04-06T07:52:59Z</time></trkpt><trkpt lat="38.88122733051132" lon="8.832163708337971"><ele>21.0</ele><time>2026-04-06T07:53:01Z</time></trkpt><trkpt lat="38.88120823948824" lon="8.832050318138304"><ele>21.0</ele><time>2026-04-06T07:53:03Z</time></trkpt><trkpt lat="38.881171680675855" lon="8.831926356471524"><ele>21.0</ele><time>2026-04-06T07:53:05Z</time></trkpt><trkpt lat="38.88115055236133" lon="8.831806828276772"><ele>20.166666666666668</ele><time>2026-04-06T07:53:07Z</time></trkpt><trkpt lat="38.88114487352427" lon="8.831689654195312"><ele>19.333333333333332</ele><time>2026-04-06T07:53:09Z</time></trkpt><trkpt lat="38.88113971869058" lon="8.831568661807554"><ele>18.5</ele><time>2026-04-06T07:53:11Z</time></trkpt><trkpt lat="38.88113108336022" lon="8.831462704072976"><ele>17.666666666666664</ele><time>2026-04-06T07:53:13Z</time></trkpt><trkpt lat="38.88110729444279" lon="8.83136860147155"><ele>16.833333333333332</ele><time>2026-04-06T07:53:15Z</time></trkpt><trkpt lat="38.88108484124237" lon="8.831266709651201"><ele>16.0</ele><time>2026-04-06T07:53:17Z</time></trkpt><trkpt lat="38.88106486928753" lon="8.831160446894845"><ele>15.999999999999998</ele><time>2026-04-06T07:53:19Z</time></trkpt><trkpt lat="38.88108846040532" lon="8.831054621102245"><ele>16.0</ele><time>2026-04-06T07:53:21Z</time></trkpt><trkpt lat="38.88113593335742" lon="8.83095908627926"><ele>16.0</ele><time>2026-04-06T07:53:23Z</time></trkpt><trkpt lat="38.88115942464465" lon="8.83084507924122"><ele>16.0</ele><time>2026-04-06T07:53:25Z</time></trkpt><trkpt lat="38.88113139252157" lon="8.83075471107098"><ele>15.999999999999998</ele><time>2026-04-06T07:53:27Z</time></trkpt><trkpt lat="38.88111313977151" lon="8.830648898694749"><ele>16.0</ele><time>2026-04-06T07:53:29Z</time></trkpt><trkpt lat="38.881131334699475" lon="8.830528015343694"><ele>14.999999999999998</ele><time>2026-04-06T07:53:31Z</time></trkpt><trkpt lat="38.88117003344639" lon="8.83046389805142"><ele>14.0</ele><time>2026-04-06T07:53:33Z</time></trkpt><trkpt lat="38.881214387961805" lon="8.830364963694672"><ele>13.0</ele><time>2026-04-06T07:53:37Z</time></trkpt><trkpt lat="38.8812534816233" lon="8.830279125954087"><ele>12.0</ele><time>2026-04-06T07:53:40Z</time></trkpt><trkpt lat="38.88129720702799" lon="8.830193202573435"><ele>11.0</ele><time>2026-04-06T07:53:43Z</time></trkpt><trkpt lat="38.881322673841815" lon="8.83010857330298"><ele>10.0</ele><time>2026-04-06T07:53:45Z</time></trkpt><trkpt lat="38.88135307767563" lon="8.83000301317999"><ele>9.166666666666668</ele><time>2026-04-06T07:53:48Z</time></trkpt><trkpt lat="38.88137891255899" lon="8.82991720834374"><ele>8.333333333333334</ele><time>2026-04-06T07:53:50Z</time></trkpt><trkpt lat="38.881347159338254" lon="8.829813613464564"><ele>7.5</ele><time>2026-04-06T07:55:26Z</time></trkpt><trkpt lat="38.881329001054" lon="8.82972977540814"><ele>6.666666666666667</ele><time>2026-04-06T07:55:28Z</time></trkpt><trkpt lat="38.88139055143215" lon="8.829661083482485"><ele>5.833333333333334</ele><time>2026-04-06T07:55:31Z</time></trkpt><trkpt lat="38.88145965641436" lon="8.829627770755044"><ele>5.0</ele><time>2026-04-06T07:55:34Z</time></trkpt><trkpt lat="38.881529194094796" lon="8.829615548719001"><ele>5.0</ele><time>2026-04-06T07:58:21Z</time></trkpt><trkpt lat="38.88160415821155" lon="8.829615803927517"><ele>5.0</ele><time>2026-04-06T07:58:23Z</time></trkpt><trkpt lat="38.881658459103505" lon="8.829671876076281"><ele>5.0</ele><time>2026-04-06T07:58:34Z</time></trkpt><trkpt lat="38.88173546730074" lon="8.829689882916014"><ele>5.0</ele><time>2026-04-06T07:58:40Z</time></trkpt><trkpt lat="38.88180798962728" lon="8.829699637473647"><ele>5.0</ele><time>2026-04-06T07:58:46Z</time></trkpt><trkpt lat="38.88187174666874" lon="8.82969236501562"><ele>5.0</ele><time>2026-04-06T07:58:52Z</time></trkpt><trkpt lat="38.881939483237836" lon="8.829664041017422"><ele>5.0</ele><time>2026-04-06T07:58:59Z</time></trkpt><trkpt lat="38.88200657270665" lon="8.829653578395439"><ele>6.333333333333334</ele><time>2026-04-06T07:59:07Z</time></trkpt><trkpt lat="38.88200799657341" lon="8.829741681654408"><ele>7.666666666666666</ele><time>2026-04-06T07:59:18Z</time></trkpt><trkpt lat="38.88199765820086" lon="8.8298345011494"><ele>9.0</ele><time>2026-04-06T07:59:21Z</time></trkpt><trkpt lat="38.88201067534537" lon="8.829940602858185"><ele>10.333333333333332</ele><time>2026-04-06T07:59:24Z</time></trkpt><trkpt lat="38.882004571068954" lon="8.830048062950842"><ele>11.666666666666666</ele><time>2026-04-06T07:59:27Z</time></trkpt><trkpt lat="38.88200202433422" lon="8.830156539308295"><ele>13.0</ele><time>2026-04-06T07:59:31Z</time></trkpt><trkpt lat="38.88196926090968" lon="8.8302322221133"><ele>13.714285714285714</ele><time>2026-04-06T07:59:35Z</time></trkpt><trkpt lat="38.881960432764465" lon="8.830334154175219"><ele>14.42857142857143</ele><time>2026-04-06T07:59:39Z</time></trkpt><trkpt lat="38.88194704200443" lon="8.830435687609834"><ele>15.142857142857144</ele><time>2026-04-06T07:59:44Z</time></trkpt><trkpt lat="38.88192363007226" lon="8.830523256086725"><ele>15.857142857142858</ele><time>2026-04-06T07:59:49Z</time></trkpt><trkpt lat="38.88190497417739" lon="8.830629968101357"><ele>16.571428571428573</ele><time>2026-04-06T07:59:55Z</time></trkpt><trkpt lat="38.88194466664949" lon="8.830695433697702"><ele>17.28571428571429</ele><time>2026-04-06T08:00:12Z</time></trkpt><trkpt lat="38.88196545476825" lon="8.830773320917531"><ele>18.0</ele><time>2026-04-06T08:00:22Z</time></trkpt><trkpt lat="38.8820177854858" lon="8.830833933228554"><ele>18.000000000000004</ele><time>2026-04-06T08:00:31Z</time></trkpt><trkpt lat="38.882021018775546" lon="8.830915773105122"><ele>18.0</ele><time>2026-04-06T08:00:49Z</time></trkpt><trkpt lat="38.88203969741496" lon="8.830994533462274"><ele>18.0</ele><time>2026-04-06T08:00:57Z</time></trkpt><trkpt lat="38.88207014628276" lon="8.831080566749485"><ele>18.0</ele><time>2026-04-06T08:01:06Z</time></trkpt><trkpt lat="38.882087075598655" lon="8.831164230140073"><ele>18.0</ele><time>2026-04-06T08:01:13Z</time></trkpt><trkpt lat="38.882127359334454" lon="8.831234898665803"><ele>18.000000000000004</ele><time>2026-04-06T08:01:20Z</time></trkpt><trkpt lat="38.882173116351424" lon="8.831295881153899"><ele>18.0</ele><time>2026-04-06T08:01:28Z</time></trkpt><trkpt lat="38.882229742263604" lon="8.831334367945843"><ele>18.28571428571429</ele><time>2026-04-06T08:01:35Z</time></trkpt><trkpt lat="38.88229501171799" lon="8.831354284256099"><ele>18.571428571428573</ele><time>2026-04-06T08:01:43Z</time></trkpt><trkpt lat="38.88235389695625" lon="8.831387561449299"><ele>18.857142857142858</ele><time>2026-04-06T08:02:16Z</time></trkpt><trkpt lat="38.88239157210826" lon="8.831458845428692"><ele>19.142857142857146</ele><time>2026-04-06T08:02:24Z</time></trkpt><trkpt lat="38.88242194792426" lon="8.831529853921634"><ele>19.42857142857143</ele><time>2026-04-06T08:02:33Z</time></trkpt><trkpt lat="38.88244566356756" lon="8.831606151052611"><ele>19.714285714285715</ele><time>2026-04-06T08:02:41Z</time></trkpt><trkpt lat="38.88248772520104" lon="8.831667443610128"><ele>20.0</ele><time>2026-04-06T08:02:48Z</time></trkpt><trkpt lat="38.88251598419774" lon="8.83174731602992"><ele>20.57142857142857</ele><time>2026-04-06T08:02:59Z</time></trkpt><trkpt lat="38.88255136280953" lon="8.831816366518808"><ele>21.142857142857142</ele><time>2026-04-06T08:04:56Z</time></trkpt><trkpt lat="38.882563656869394" lon="8.83189614881545"><ele>21.714285714285715</ele><time>2026-04-06T08:05:03Z</time></trkpt><trkpt lat="38.88260116198944" lon="8.831969324851658"><ele>22.285714285714285</ele><time>2026-04-06T08:05:13Z</time></trkpt><trkpt lat="38.88264849722635" lon="8.832025855863227"><ele>22.857142857142858</ele><time>2026-04-06T08:05:21Z</time></trkpt><trkpt lat="38.882714515480885" lon="8.83203597174329"><ele>23.428571428571427</ele><time>2026-04-06T08:05:29Z</time></trkpt><trkpt lat="38.882782566177696" lon="8.832035338710831"><ele>24.0</ele><time>2026-04-06T08:05:37Z</time></trkpt><trkpt lat="38.882805436992385" lon="8.832113321490093"><ele>25.0</ele><time>2026-04-06T08:05:56Z</time></trkpt><trkpt lat="38.8828416853888" lon="8.832190302669217"><ele>26.0</ele><time>2026-04-06T08:06:00Z</time></trkpt><trkpt lat="38.88289179574092" lon="8.832243428678678"><ele>27.0</ele><time>2026-04-06T08:06:02Z</time></trkpt><trkpt lat="38.88293734230525" lon="8.832323020088634"><ele>28.0</ele><time>2026-04-06T08:06:05Z</time></trkpt><trkpt lat="38.88295666022468" lon="8.832414339218454"><ele>29.000000000000004</ele><time>2026-04-06T08:06:11Z</time></trkpt><trkpt lat="38.883008674203616" lon="8.832464484315063"><ele>30.0</ele><time>2026-04-06T08:06:25Z</time></trkpt><trkpt lat="38.88305778522602" lon="8.832523518591746"><ele>31.0</ele><time>2026-04-06T08:06:29Z</time></trkpt><trkpt lat="38.88309998099334" lon="8.832619421702924"><ele>31.000000000000004</ele><time>2026-04-06T08:06:33Z</time></trkpt><trkpt lat="38.88316529583083" lon="8.832666302047755"><ele>31.0</ele><time>2026-04-06T08:06:36Z</time></trkpt><trkpt lat="38.883237705680706" lon="8.832703173430701"><ele>31.0</ele><time>2026-04-06T08:06:40Z</time></trkpt><trkpt lat="38.88330563353653" lon="8.832744717790312"><ele>31.0</ele><time>2026-04-06T08:06:44Z</time></trkpt><trkpt lat="38.88339000310787" lon="8.832773153624165"><ele>31.000000000000004</ele><time>2026-04-06T08:06:47Z</time></trkpt><trkpt lat="38.883467353588934" lon="8.832783347103163"><ele>31.0</ele><time>2026-04-06T08:06:50Z</time></trkpt><trkpt lat="38.883544505744794" lon="8.832784443673063"><ele>31.000000000000004</ele><time>2026-04-06T08:06:53Z</time></trkpt><trkpt lat="38.88361115881959" lon="8.832806416152465"><ele>31.0</ele><time>2026-04-06T08:06:57Z</time></trkpt><trkpt lat="38.883693242464595" lon="8.832801541986962"><ele>31.0</ele><time>2026-04-06T08:07:02Z</time></trkpt><trkpt lat="38.88376943827706" lon="8.832857566527712"><ele>31.0</ele><time>2026-04-06T08:07:06Z</time></trkpt><trkpt lat="38.883843008216694" lon="8.8328787329253"><ele>31.000000000000004</ele><time>2026-04-06T08:07:10Z</time></trkpt><trkpt lat="38.883920919714726" lon="8.83283263050111"><ele>31.0</ele><time>2026-04-06T08:07:14Z</time></trkpt><trkpt lat="38.88397008747078" lon="8.832774240235167"><ele>31.0</ele><time>2026-04-06T08:07:16Z</time></trkpt><trkpt lat="38.88404991424269" lon="8.832736351373182"><ele>31.000000000000004</ele><time>2026-04-06T08:07:20Z</time></trkpt><trkpt lat="38.88411401034144" lon="8.832716639555555"><ele>31.0</ele><time>2026-04-06T08:07:23Z</time></trkpt><trkpt lat="38.88418512566475" lon="8.83270189683075"><ele>31.0</ele><time>2026-04-06T08:07:26Z</time></trkpt><trkpt lat="38.88424223235768" lon="8.832639096773077"><ele>31.000000000000004</ele><time>2026-04-06T08:07:38Z</time></trkpt><trkpt lat="38.88430085065828" lon="8.832578433905727"><ele>31.0</ele><time>2026-04-06T08:07:43Z</time></trkpt><trkpt lat="38.884368753204186" lon="8.832553994586577"><ele>31.0</ele><time>2026-04-06T08:07:55Z</time></trkpt><trkpt lat="38.88443306273887" lon="8.832538683481312"><ele>32.85714285714286</ele><time>2026-04-06T08:07:58Z</time></trkpt><trkpt lat="38.884502807207234" lon="8.832504171720602"><ele>34.714285714285715</ele><time>2026-04-06T08:08:01Z</time></trkpt><trkpt lat="38.88457289982519" lon="8.832497968090301"><ele>36.57142857142857</ele><time>2026-04-06T08:08:04Z</time></trkpt><trkpt lat="38.88464158333413" lon="8.83247676345695"><ele>38.42857142857143</ele><time>2026-04-06T08:08:07Z</time></trkpt><trkpt lat="38.88469885929258" lon="8.832440001282379"><ele>40.285714285714285</ele><time>2026-04-06T08:08:10Z</time></trkpt><trkpt lat="38.88470895618459" lon="8.8323447924921"><ele>42.142857142857146</ele><time>2026-04-06T08:08:13Z</time></trkpt><trkpt lat="38.884706553818965" lon="8.832234350264493"><ele>44.0</ele><time>2026-04-06T08:08:16Z</time></trkpt><trkpt lat="38.8847565693948" lon="8.832161096858774"><ele>44.0</ele><time>2026-04-06T08:08:19Z</time></trkpt><trkpt lat="38.884768592792646" lon="8.832080406999605"><ele>44.0</ele><time>2026-04-06T08:08:22Z</time></trkpt><trkpt lat="38.884820656552115" lon="8.832029779155025"><ele>44.0</ele><time>2026-04-06T08:08:30Z</time></trkpt><trkpt lat="38.88486404906781" lon="8.831958757462923"><ele>44.0</ele><time>2026-04-06T08:08:39Z</time></trkpt><trkpt lat="38.8848789618995" lon="8.831867259432927"><ele>44.0</ele><time>2026-04-06T08:08:53Z</time></trkpt><trkpt lat="38.884878021733904" lon="8.83177984251665"><ele>44.0</ele><time>2026-04-06T08:09:01Z</time></trkpt><trkpt lat="38.88488674987715" lon="8.831687728667259"><ele>44.0</ele><time>2026-04-06T08:09:19Z</time></trkpt><trkpt lat="38.884897414519486" lon="8.831601314754803"><ele>44.285714285714285</ele><time>2026-04-06T08:09:28Z</time></trkpt><trkpt lat="38.8849187341724" lon="8.831515827694355"><ele>44.57142857142857</ele><time>2026-04-06T08:09:39Z</time></trkpt><trkpt lat="38.884945452269626" lon="8.83143389931519"><ele>44.85714285714286</ele><time>2026-04-06T08:09:47Z</time></trkpt><trkpt lat="38.88496687134526" lon="8.831357151051428"><ele>45.14285714285714</ele><time>2026-04-06T08:09:54Z</time></trkpt><trkpt lat="38.88500799276029" lon="8.831295684790408"><ele>45.42857142857142</ele><time>2026-04-06T08:10:02Z</time></trkpt><trkpt lat="38.88501184304368" lon="8.831201311292414"><ele>45.714285714285715</ele><time>2026-04-06T08:10:12Z</time></trkpt><trkpt lat="38.885012622160055" lon="8.831106517291373"><ele>46.0</ele><time>2026-04-06T08:10:16Z</time></trkpt><trkpt lat="38.885035458462475" lon="8.831016091013321"><ele>45.85714285714286</ele><time>2026-04-06T08:10:23Z</time></trkpt><trkpt lat="38.885071685567745" lon="8.830938456079277"><ele>45.71428571428571</ele><time>2026-04-06T08:10:26Z</time></trkpt><trkpt lat="38.885079924926124" lon="8.830857741166378"><ele>45.57142857142857</ele><time>2026-04-06T08:10:29Z</time></trkpt><trkpt lat="38.8851126831402" lon="8.83077581604827"><ele>45.42857142857143</ele><time>2026-04-06T08:10:33Z</time></trkpt><trkpt lat="38.88508913520688" lon="8.830695986490827"><ele>45.28571428571429</ele><time>2026-04-06T08:10:39Z</time></trkpt><trkpt lat="38.88508829910152" lon="8.830610837781377"><ele>45.14285714285714</ele><time>2026-04-06T08:10:43Z</time></trkpt><trkpt lat="38.885092716258285" lon="8.830511452495797"><ele>45.0</ele><time>2026-04-06T08:10:48Z</time></trkpt><trkpt lat="38.88513596526271" lon="8.830451584583924"><ele>46.5</ele><time>2026-04-06T08:10:51Z</time></trkpt><trkpt lat="38.88517508186628" lon="8.830377134472466"><ele>48.0</ele><time>2026-04-06T08:10:55Z</time></trkpt><trkpt lat="38.885226830159326" lon="8.830287660596536"><ele>49.5</ele><time>2026-04-06T08:10:59Z</time></trkpt><trkpt lat="38.885292327912296" lon="8.83023291077819"><ele>51.0</ele><time>2026-04-06T08:11:02Z</time></trkpt><trkpt lat="38.88535381656891" lon="8.830165585869826"><ele>52.5</ele><time>2026-04-06T08:12:01Z</time></trkpt><trkpt lat="38.88539464291579" lon="8.830098125154187"><ele>54.0</ele><time>2026-04-06T08:12:03Z</time></trkpt><trkpt lat="38.885451317634946" lon="8.830039225729193"><ele>54.0</ele><time>2026-04-06T08:12:06Z</time></trkpt><trkpt lat="38.885511086296574" lon="8.829985507063274"><ele>54.0</ele><time>2026-04-06T08:12:09Z</time></trkpt><trkpt lat="38.88559430465349" lon="8.829910528893228"><ele>54.0</ele><time>2026-04-06T08:12:12Z</time></trkpt><trkpt lat="38.88566925017368" lon="8.829851426644812"><ele>54.0</ele><time>2026-04-06T08:12:15Z</time></trkpt><trkpt lat="38.88572192172885" lon="8.82978925381226"><ele>54.0</ele><time>2026-04-06T08:12:18Z</time></trkpt><trkpt lat="38.885780365847076" lon="8.82971128817758"><ele>54.0</ele><time>2026-04-06T08:12:21Z</time></trkpt><trkpt lat="38.88581825187999" lon="8.82961860799898"><ele>54.0</ele><time>2026-04-06T08:12:23Z</time></trkpt><trkpt lat="38.885881826680375" lon="8.829525890876482"><ele>54.0</ele><time>2026-04-06T08:12:26Z</time></trkpt><trkpt lat="38.8859218297833" lon="8.829448218974711"><ele>54.0</ele><time>2026-04-06T08:12:29Z</time></trkpt><trkpt lat="38.885955487861885" lon="8.829346706940505"><ele>54.0</ele><time>2026-04-06T08:12:32Z</time></trkpt><trkpt lat="38.88597651555541" lon="8.829248212193407"><ele>54.0</ele><time>2026-04-06T08:12:35Z</time></trkpt><trkpt lat="38.88601682913616" lon="8.82915115778411"><ele>54.0</ele><time>2026-04-06T08:12:37Z</time></trkpt><trkpt lat="38.88605460847969" lon="8.829050708259564"><ele>54.0</ele><time>2026-04-06T08:12:39Z</time></trkpt><trkpt lat="38.88609812540828" lon="8.828969396325283"><ele>54.0</ele><time>2026-04-06T08:12:41Z</time></trkpt><trkpt lat="38.88612915970971" lon="8.828896857990726"><ele>54.0</ele><time>2026-04-06T08:12:43Z</time></trkpt><trkpt lat="38.886163442001816" lon="8.828792909923589"><ele>54.0</ele><time>2026-04-06T08:12:46Z</time></trkpt><trkpt lat="38.886179902554716" lon="8.828708496618775"><ele>54.0</ele><time>2026-04-06T08:12:50Z</time></trkpt><trkpt lat="38.88623449266563" lon="8.828645032903044"><ele>54.0</ele><time>2026-04-06T08:12:53Z</time></trkpt><trkpt lat="38.88624865347314" lon="8.828549692328515"><ele>54.0</ele><time>2026-04-06T08:12:57Z</time></trkpt><trkpt lat="38.88629337325813" lon="8.828479659623053"><ele>51.857142857142854</ele><time>2026-04-06T08:13:01Z</time></trkpt><trkpt lat="38.88633468332267" lon="8.82841379486198"><ele>49.71428571428571</ele><time>2026-04-06T08:13:20Z</time></trkpt><trkpt lat="38.886386667269434" lon="8.82833924293819"><ele>47.57142857142857</ele><time>2026-04-06T08:14:09Z</time></trkpt><trkpt lat="38.886414421700515" lon="8.828253372594151"><ele>45.42857142857143</ele><time>2026-04-06T08:14:13Z</time></trkpt><trkpt lat="38.886448278009595" lon="8.828168379309059"><ele>43.285714285714285</ele><time>2026-04-06T08:14:17Z</time></trkpt><trkpt lat="38.88650351295578" lon="8.82811573521006"><ele>41.142857142857146</ele><time>2026-04-06T08:14:21Z</time></trkpt><trkpt lat="38.88657111232981" lon="8.828093976569324"><ele>39.0</ele><time>2026-04-06T08:14:24Z</time></trkpt><trkpt lat="38.88664022691581" lon="8.828086632960064"><ele>39.0</ele><time>2026-04-06T08:14:26Z</time></trkpt><trkpt lat="38.88671382234768" lon="8.828055586403405"><ele>39.0</ele><time>2026-04-06T08:14:30Z</time></trkpt><trkpt lat="38.88678778000323" lon="8.828035497698442"><ele>39.0</ele><time>2026-04-06T08:14:34Z</time></trkpt><trkpt lat="38.88691131408061" lon="8.828016228961907"><ele>39.0</ele><time>2026-04-06T08:15:37Z</time></trkpt><trkpt lat="38.88697155808784" lon="8.828071449183811"><ele>39.0</ele><time>2026-04-06T08:15:42Z</time></trkpt><trkpt lat="38.887030575783875" lon="8.828124152871652"><ele>39.0</ele><time>2026-04-06T08:15:55Z</time></trkpt><trkpt lat="38.88710535945092" lon="8.828160905212778"><ele>37.142857142857146</ele><time>2026-04-06T08:15:59Z</time></trkpt><trkpt lat="38.88716677524046" lon="8.828185007458977"><ele>35.285714285714285</ele><time>2026-04-06T08:16:20Z</time></trkpt><trkpt lat="38.887241906467494" lon="8.828183916348285"><ele>33.42857142857143</ele><time>2026-04-06T08:16:48Z</time></trkpt><trkpt lat="38.887308728333515" lon="8.82819859161623"><ele>31.571428571428573</ele><time>2026-04-06T08:17:04Z</time></trkpt><trkpt lat="38.887380219107435" lon="8.828221729451407"><ele>29.714285714285715</ele><time>2026-04-06T08:17:25Z</time></trkpt><trkpt lat="38.88745325896909" lon="8.828257517316748"><ele>27.857142857142854</ele><time>2026-04-06T08:17:34Z</time></trkpt><trkpt lat="38.88750978730385" lon="8.82831680531219"><ele>26.0</ele><time>2026-04-06T08:18:14Z</time></trkpt><trkpt lat="38.88755215169751" lon="8.82839327741818"><ele>24.166666666666664</ele><time>2026-04-06T08:18:27Z</time></trkpt><trkpt lat="38.88760697227312" lon="8.828450972383116"><ele>22.333333333333332</ele><time>2026-04-06T08:18:45Z</time></trkpt><trkpt lat="38.88767265888301" lon="8.828488482724447"><ele>20.5</ele><time>2026-04-06T08:18:50Z</time></trkpt><trkpt lat="38.887749080694256" lon="8.82853922120632"><ele>18.666666666666664</ele><time>2026-04-06T08:18:54Z</time></trkpt><trkpt lat="38.88780499720356" lon="8.828588404939946"><ele>16.833333333333332</ele><time>2026-04-06T08:18:57Z</time></trkpt><trkpt lat="38.8878532377285" lon="8.828650620422607"><ele>15.0</ele><time>2026-04-06T08:19:00Z</time></trkpt><trkpt lat="38.88792004284922" lon="8.828720950129"><ele>15.0</ele><time>2026-04-06T08:19:03Z</time></trkpt><trkpt lat="38.887974714338675" lon="8.82878783279761"><ele>15.0</ele><time>2026-04-06T08:19:08Z</time></trkpt><trkpt lat="38.88802197251328" lon="8.828844363706507"><ele>15.0</ele><time>2026-04-06T08:19:11Z</time></trkpt><trkpt lat="38.88808299516459" lon="8.82889170229493"><ele>15.0</ele><time>2026-04-06T08:19:13Z</time></trkpt><trkpt lat="38.8881380311192" lon="8.828957447775588"><ele>15.0</ele><time>2026-04-06T08:19:16Z</time></trkpt><trkpt lat="38.88819266563366" lon="8.829013429313939"><ele>15.0</ele><time>2026-04-06T08:19:27Z</time></trkpt><trkpt lat="38.888265366642706" lon="8.829102753833869"><ele>15.0</ele><time>2026-04-06T08:19:36Z</time></trkpt><trkpt lat="38.88829566452449" lon="8.829215326131756"><ele>15.0</ele><time>2026-04-06T08:19:38Z</time></trkpt><trkpt lat="38.88833841426237" lon="8.829289677759137"><ele>15.0</ele><time>2026-04-06T08:19:57Z</time></trkpt><trkpt lat="38.888383910766095" lon="8.829356258592906"><ele>15.0</ele><time>2026-04-06T08:20:10Z</time></trkpt><trkpt lat="38.88845318235568" lon="8.829422060241852"><ele>15.0</ele><time>2026-04-06T08:20:21Z</time></trkpt><trkpt lat="38.88846163086999" lon="8.829520086753082"><ele>15.0</ele><time>2026-04-06T08:20:24Z</time></trkpt><trkpt lat="38.888506180308816" lon="8.8295827293728"><ele>13.8</ele><time>2026-04-06T08:20:34Z</time></trkpt><trkpt lat="38.88854400507685" lon="8.829657018594657"><ele>12.6</ele><time>2026-04-06T08:20:57Z</time></trkpt><trkpt lat="38.8886870502142" lon="8.829768641599385"><ele>11.4</ele><time>2026-04-06T08:22:04Z</time></trkpt><trkpt lat="38.88875655431635" lon="8.829821373911292"><ele>10.2</ele><time>2026-04-06T08:22:07Z</time></trkpt><trkpt lat="38.88877971669329" lon="8.829898249143698"><ele>9.0</ele><time>2026-04-06T08:22:19Z</time></trkpt><trkpt lat="38.888845323333506" lon="8.829988945856703"><ele>9.0</ele><time>2026-04-06T08:22:22Z</time></trkpt><trkpt lat="38.888913649966014" lon="8.830013159455918"><ele>9.0</ele><time>2026-04-06T08:22:24Z</time></trkpt><trkpt lat="38.88899348070053" lon="8.830029124310972"><ele>9.0</ele><time>2026-04-06T08:22:27Z</time></trkpt><trkpt lat="38.88908230472217" lon="8.830028648257928"><ele>9.0</ele><time>2026-04-06T08:22:30Z</time></trkpt><trkpt lat="38.88914392208706" lon="8.830086598603291"><ele>9.0</ele><time>2026-04-06T08:22:33Z</time></trkpt><trkpt lat="38.88917971476069" lon="8.83017244065302"><ele>9.0</ele><time>2026-04-06T08:22:37Z</time></trkpt><trkpt lat="38.889145717958314" lon="8.830279059689541"><ele>10.166666666666666</ele><time>2026-04-06T08:22:39Z</time></trkpt><trkpt lat="38.88912391912153" lon="8.83037016137619"><ele>11.333333333333332</ele><time>2026-04-06T08:22:42Z</time></trkpt><trkpt lat="38.88911471548963" lon="8.830471613192584"><ele>12.5</ele><time>2026-04-06T08:23:25Z</time></trkpt><trkpt lat="38.88912006154225" lon="8.83056910078761"><ele>13.666666666666666</ele><time>2026-04-06T08:23:27Z</time></trkpt><trkpt lat="38.88910618481805" lon="8.830665092359306"><ele>14.833333333333332</ele><time>2026-04-06T08:23:29Z</time></trkpt><trkpt lat="38.889044645283" lon="8.830749527342958"><ele>16.0</ele><time>2026-04-06T08:23:31Z</time></trkpt><trkpt lat="38.88900525600329" lon="8.830849821083493"><ele>16.0</ele><time>2026-04-06T08:23:33Z</time></trkpt><trkpt lat="38.88897903309674" lon="8.830954545715965"><ele>15.999999999999998</ele><time>2026-04-06T08:23:35Z</time></trkpt><trkpt lat="38.888989861581464" lon="8.831059371515101"><ele>16.0</ele><time>2026-04-06T08:23:37Z</time></trkpt><trkpt lat="38.88899261811725" lon="8.831155924302957"><ele>16.0</ele><time>2026-04-06T08:23:39Z</time></trkpt><trkpt lat="38.88898758900342" lon="8.83123816530048"><ele>15.999999999999998</ele><time>2026-04-06T08:23:41Z</time></trkpt><trkpt lat="38.88898739739157" lon="8.83132714944562"><ele>16.0</ele><time>2026-04-06T08:23:43Z</time></trkpt><trkpt lat="38.888948257606074" lon="8.831405467658868"><ele>16.0</ele><time>2026-04-06T08:23:45Z</time></trkpt><trkpt lat="38.88890780750146" lon="8.83147638964958"><ele>16.285714285714285</ele><time>2026-04-06T08:23:47Z</time></trkpt><trkpt lat="38.88885174385402" lon="8.831528255321478"><ele>16.57142857142857</ele><time>2026-04-06T08:23:49Z</time></trkpt><trkpt lat="38.88880391780926" lon="8.831590847536663"><ele>16.857142857142858</ele><time>2026-04-06T08:23:51Z</time></trkpt><trkpt lat="38.88882475295427" lon="8.831668319190653"><ele>17.142857142857142</ele><time>2026-04-06T08:23:53Z</time></trkpt><trkpt lat="38.888869181576375" lon="8.831753086824913"><ele>17.42857142857143</ele><time>2026-04-06T08:23:55Z</time></trkpt><trkpt lat="38.888919324464595" lon="8.8318163155593"><ele>17.714285714285715</ele><time>2026-04-06T08:23:57Z</time></trkpt><trkpt lat="38.88896600288277" lon="8.831877644523777"><ele>18.0</ele><time>2026-04-06T08:23:59Z</time></trkpt><trkpt lat="38.888999472381315" lon="8.831957615863235"><ele>18.166666666666668</ele><time>2026-04-06T08:24:01Z</time></trkpt><trkpt lat="38.88901110966507" lon="8.832049365886057"><ele>18.333333333333332</ele><time>2026-04-06T08:24:03Z</time></trkpt><trkpt lat="38.888992980255914" lon="8.83215859079737"><ele>18.5</ele><time>2026-04-06T08:24:05Z</time></trkpt><trkpt lat="38.88903970956662" lon="8.83225671859468"><ele>18.666666666666664</ele><time>2026-04-06T08:24:07Z</time></trkpt><trkpt lat="38.88909769306615" lon="8.832343611231714"><ele>18.833333333333332</ele><time>2026-04-06T08:24:09Z</time></trkpt><trkpt lat="38.88914299587473" lon="8.83242935781335"><ele>19.0</ele><time>2026-04-06T08:24:11Z</time></trkpt><trkpt lat="38.8891893075827" lon="8.832500454937435"><ele>19.0</ele><time>2026-04-06T08:24:13Z</time></trkpt><trkpt lat="38.88923592488809" lon="8.832566505542486"><ele>19.0</ele><time>2026-04-06T08:24:15Z</time></trkpt><trkpt lat="38.889246382116426" lon="8.832668682769373"><ele>19.0</ele><time>2026-04-06T08:24:17Z</time></trkpt><trkpt lat="38.88929698479661" lon="8.832768462671774"><ele>19.0</ele><time>2026-04-06T08:24:19Z</time></trkpt><trkpt lat="38.889335745639016" lon="8.8328723052878"><ele>19.0</ele><time>2026-04-06T08:24:21Z</time></trkpt><trkpt lat="38.88938306267684" lon="8.83295806222793"><ele>19.0</ele><time>2026-04-06T08:24:23Z</time></trkpt><trkpt lat="38.889407025975174" lon="8.833052605394224"><ele>19.666666666666664</ele><time>2026-04-06T08:24:25Z</time></trkpt><trkpt lat="38.88941577309536" lon="8.833147358404155"><ele>20.333333333333332</ele><time>2026-04-06T08:24:27Z</time></trkpt><trkpt lat="38.88946495856964" lon="8.833228801281438"><ele>21.0</ele><time>2026-04-06T08:24:29Z</time></trkpt><trkpt lat="38.889502271925664" lon="8.833321692422285"><ele>21.666666666666668</ele><time>2026-04-06T08:24:31Z</time></trkpt><trkpt lat="38.88952859151407" lon="8.833418741966906"><ele>22.333333333333336</ele><time>2026-04-06T08:24:33Z</time></trkpt><trkpt lat="38.88951206879193" lon="8.833519164864034"><ele>23.0</ele><time>2026-04-06T08:24:35Z</time></trkpt><trkpt lat="38.88948377019541" lon="8.833602044946135"><ele>23.142857142857142</ele><time>2026-04-06T08:24:37Z</time></trkpt><trkpt lat="38.88948234787983" lon="8.833693240355451"><ele>23.285714285714285</ele><time>2026-04-06T08:24:39Z</time></trkpt><trkpt lat="38.8895109408779" lon="8.833773463073761"><ele>23.428571428571427</ele><time>2026-04-06T08:24:41Z</time></trkpt><trkpt lat="38.88957242671684" lon="8.833828746504919"><ele>23.57142857142857</ele><time>2026-04-06T08:24:43Z</time></trkpt><trkpt lat="38.889633073092604" lon="8.83388456378896"><ele>23.714285714285715</ele><time>2026-04-06T08:24:45Z</time></trkpt><trkpt lat="38.88970360280819" lon="8.833930167210244"><ele>23.857142857142854</ele><time>2026-04-06T08:24:47Z</time></trkpt><trkpt lat="38.889769134540785" lon="8.833978756495034"><ele>24.0</ele><time>2026-04-06T08:24:49Z</time></trkpt><trkpt lat="38.88983334931213" lon="8.83401358077462"><ele>23.999999999999996</ele><time>2026-04-06T08:24:51Z</time></trkpt><trkpt lat="38.88991124836756" lon="8.83401221188341"><ele>24.0</ele><time>2026-04-06T08:24:53Z</time></trkpt><trkpt lat="38.88999028960865" lon="8.833996793298262"><ele>24.0</ele><time>2026-04-06T08:24:55Z</time></trkpt><trkpt lat="38.89006103881002" lon="8.83402921669966"><ele>24.0</ele><time>2026-04-06T08:24:57Z</time></trkpt><trkpt lat="38.89012216368988" lon="8.834071890619391"><ele>24.0</ele><time>2026-04-06T08:24:59Z</time></trkpt><trkpt lat="38.890187996236975" lon="8.8340946308438"><ele>23.999999999999996</ele><time>2026-04-06T08:25:01Z</time></trkpt><trkpt lat="38.89024876103913" lon="8.834126679641031"><ele>24.0</ele><time>2026-04-06T08:25:03Z</time></trkpt><trkpt lat="38.89030769568233" lon="8.83417063114962"><ele>24.666666666666668</ele><time>2026-04-06T08:25:05Z</time></trkpt><trkpt lat="38.8903704482591" lon="8.83420712818591"><ele>25.333333333333336</ele><time>2026-04-06T08:25:07Z</time></trkpt><trkpt lat="38.890433918871025" lon="8.83424708900674"><ele>26.0</ele><time>2026-04-06T08:25:09Z</time></trkpt><trkpt lat="38.8904936000386" lon="8.834290897588222"><ele>26.666666666666668</ele><time>2026-04-06T08:25:11Z</time></trkpt><trkpt lat="38.890558983809484" lon="8.834320638754944"><ele>27.333333333333336</ele><time>2026-04-06T08:25:13Z</time></trkpt><trkpt lat="38.890630936955105" lon="8.834318837702096"><ele>28.0</ele><time>2026-04-06T08:25:15Z</time></trkpt><trkpt lat="38.890727773902846" lon="8.834361083174178"><ele>28.500000000000004</ele><time>2026-04-06T08:25:19Z</time></trkpt><trkpt lat="38.89074856426441" lon="8.834470157976256"><ele>29.0</ele><time>2026-04-06T08:25:22Z</time></trkpt><trkpt lat="38.890829879532454" lon="8.834475809713666"><ele>29.5</ele><time>2026-04-06T08:25:24Z</time></trkpt><trkpt lat="38.89089017113795" lon="8.834444643474153"><ele>30.0</ele><time>2026-04-06T08:25:26Z</time></trkpt><trkpt lat="38.890952655008526" lon="8.834467138914691"><ele>30.500000000000004</ele><time>2026-04-06T08:25:28Z</time></trkpt><trkpt lat="38.89102118756707" lon="8.834486703834719"><ele>31.0</ele><time>2026-04-06T08:25:31Z</time></trkpt><trkpt lat="38.891099466150806" lon="8.834528205382247"><ele>33.333333333333336</ele><time>2026-04-06T08:25:56Z</time></trkpt><trkpt lat="38.89116591536987" lon="8.834571780641609"><ele>35.66666666666667</ele><time>2026-04-06T08:25:59Z</time></trkpt><trkpt lat="38.89125093037267" lon="8.834614597402219"><ele>38.0</ele><time>2026-04-06T08:26:02Z</time></trkpt><trkpt lat="38.89128939998843" lon="8.834720110453029"><ele>40.333333333333336</ele><time>2026-04-06T08:26:05Z</time></trkpt><trkpt lat="38.891275818170556" lon="8.834803089589528"><ele>42.666666666666664</ele><time>2026-04-06T08:26:07Z</time></trkpt><trkpt lat="38.89127731327621" lon="8.834887289513546"><ele>45.0</ele><time>2026-04-06T08:26:09Z</time></trkpt><trkpt lat="38.891278230562335" lon="8.834986030647686"><ele>45.0</ele><time>2026-04-06T08:26:11Z</time></trkpt><trkpt lat="38.8913038870893" lon="8.835067299789122"><ele>45.0</ele><time>2026-04-06T08:26:14Z</time></trkpt><trkpt lat="38.8913550981582" lon="8.835126025505726"><ele>45.0</ele><time>2026-04-06T08:26:17Z</time></trkpt><trkpt lat="38.8913771398154" lon="8.83520799003144"><ele>45.0</ele><time>2026-04-06T08:26:20Z</time></trkpt><trkpt lat="38.89143519189438" lon="8.835260172824128"><ele>45.0</ele><time>2026-04-06T08:26:23Z</time></trkpt><trkpt lat="38.89145317633251" lon="8.835351163484845"><ele>45.0</ele><time>2026-04-06T08:26:26Z</time></trkpt><trkpt lat="38.8914615400096" lon="8.835440716793794"><ele>45.0</ele><time>2026-04-06T08:26:29Z</time></trkpt><trkpt lat="38.891505366699924" lon="8.835509246860388"><ele>45.42857142857142</ele><time>2026-04-06T08:26:32Z</time></trkpt><trkpt lat="38.891583435068455" lon="8.83554370797342"><ele>45.85714285714286</ele><time>2026-04-06T08:26:36Z</time></trkpt><trkpt lat="38.891641778721336" lon="8.835594123412884"><ele>46.285714285714285</ele><time>2026-04-06T08:26:39Z</time></trkpt><trkpt lat="38.891708596769504" lon="8.835640277766124"><ele>46.71428571428571</ele><time>2026-04-06T08:26:43Z</time></trkpt><trkpt lat="38.89174014640826" lon="8.835710496750682"><ele>47.14285714285714</ele><time>2026-04-06T08:26:46Z</time></trkpt><trkpt lat="38.891771517852824" lon="8.835782760327238"><ele>47.57142857142857</ele><time>2026-04-06T08:26:49Z</time></trkpt><trkpt lat="38.891800753253605" lon="8.83585871536409"><ele>48.0</ele><time>2026-04-06T08:26:52Z</time></trkpt><trkpt lat="38.891829862617655" lon="8.835932952157489"><ele>52.333333333333336</ele><time>2026-04-06T08:26:55Z</time></trkpt><trkpt lat="38.89186395527633" lon="8.836020650907685"><ele>56.66666666666667</ele><time>2026-04-06T08:30:15Z</time></trkpt><trkpt lat="38.891900796471525" lon="8.83611591587438"><ele>61.0</ele><time>2026-04-06T08:30:18Z</time></trkpt><trkpt lat="38.891936900079024" lon="8.836202582497519"><ele>65.33333333333334</ele><time>2026-04-06T08:30:22Z</time></trkpt><trkpt lat="38.89197598518485" lon="8.836267694658494"><ele>69.66666666666667</ele><time>2026-04-06T08:30:25Z</time></trkpt><trkpt lat="38.89202057562857" lon="8.83636506546177"><ele>74.0</ele><time>2026-04-06T08:30:28Z</time></trkpt><trkpt lat="38.89205977384143" lon="8.836447491486114"><ele>74.0</ele><time>2026-04-06T08:30:31Z</time></trkpt><trkpt lat="38.89208760680461" lon="8.836527659699138"><ele>74.0</ele><time>2026-04-06T08:30:35Z</time></trkpt><trkpt lat="38.89213816081696" lon="8.836588077968736"><ele>74.0</ele><time>2026-04-06T08:30:49Z</time></trkpt><trkpt lat="38.89218204901426" lon="8.836651044383796"><ele>74.0</ele><time>2026-04-06T08:31:02Z</time></trkpt><trkpt lat="38.89213783964996" lon="8.836586750333904"><ele>74.0</ele><time>2026-04-06T08:31:45Z</time></trkpt><trkpt lat="38.89207598937336" lon="8.83650622818529"><ele>74.0</ele><time>2026-04-06T08:31:48Z</time></trkpt><trkpt lat="38.89203284350372" lon="8.83640649231465"><ele>74.0</ele><time>2026-04-06T08:31:50Z</time></trkpt><trkpt lat="38.89197822159007" lon="8.836296696914584"><ele>74.0</ele><time>2026-04-06T08:31:52Z</time></trkpt><trkpt lat="38.89192510083054" lon="8.836180219604952"><ele>74.0</ele><time>2026-04-06T08:31:54Z</time></trkpt><trkpt lat="38.89187230819503" lon="8.83606893137485"><ele>74.0</ele><time>2026-04-06T08:31:56Z</time></trkpt><trkpt lat="38.891833290616205" lon="8.835959434402739"><ele>74.0</ele><time>2026-04-06T08:31:58Z</time></trkpt><trkpt lat="38.89178826139078" lon="8.835872601401089"><ele>74.0</ele><time>2026-04-06T08:32:00Z</time></trkpt><trkpt lat="38.891754852380686" lon="8.835771405046293"><ele>69.66666666666667</ele><time>2026-04-06T08:32:02Z</time></trkpt><trkpt lat="38.891717524303886" lon="8.835690349514703"><ele>65.33333333333334</ele><time>2026-04-06T08:32:04Z</time></trkpt><trkpt lat="38.8916838958382" lon="8.835608771001555"><ele>61.0</ele><time>2026-04-06T08:32:07Z</time></trkpt><trkpt lat="38.891620814724185" lon="8.835584308275271"><ele>56.66666666666667</ele><time>2026-04-06T08:32:31Z</time></trkpt><trkpt lat="38.89154784133495" lon="8.835548895630572"><ele>52.333333333333336</ele><time>2026-04-06T08:32:34Z</time></trkpt><trkpt lat="38.89146644487547" lon="8.835472673746782"><ele>48.0</ele><time>2026-04-06T08:32:36Z</time></trkpt><trkpt lat="38.89144371114096" lon="8.835392662272715"><ele>48.0</ele><time>2026-04-06T08:32:38Z</time></trkpt><trkpt lat="38.891435874199175" lon="8.835284614679336"><ele>48.0</ele><time>2026-04-06T08:32:41Z</time></trkpt><trkpt lat="38.89137343835486" lon="8.835218997139602"><ele>48.0</ele><time>2026-04-06T08:32:45Z</time></trkpt><trkpt lat="38.89133366768826" lon="8.835150387595588"><ele>48.0</ele><time>2026-04-06T08:32:47Z</time></trkpt><trkpt lat="38.89130680507707" lon="8.835045109992311"><ele>48.0</ele><time>2026-04-06T08:32:49Z</time></trkpt><trkpt lat="38.891269725384085" lon="8.834975907063756"><ele>48.0</ele><time>2026-04-06T08:32:52Z</time></trkpt><trkpt lat="38.89127761989779" lon="8.834855537381863"><ele>47.57142857142857</ele><time>2026-04-06T08:32:55Z</time></trkpt><trkpt lat="38.89128053990432" lon="8.834755277234127"><ele>47.14285714285714</ele><time>2026-04-06T08:32:57Z</time></trkpt><trkpt lat="38.89128004176876" lon="8.83464432788443"><ele>46.71428571428571</ele><time>2026-04-06T08:32:59Z</time></trkpt><trkpt lat="38.89121479466496" lon="8.834598219074312"><ele>46.285714285714285</ele><time>2026-04-06T08:33:01Z</time></trkpt><trkpt lat="38.89115066030264" lon="8.834573281931364"><ele>45.85714285714286</ele><time>2026-04-06T08:33:03Z</time></trkpt><trkpt lat="38.89108271892438" lon="8.834524544932291"><ele>45.42857142857142</ele><time>2026-04-06T08:33:05Z</time></trkpt><trkpt lat="38.89104023435025" lon="8.83446163770247"><ele>45.0</ele><time>2026-04-06T08:33:09Z</time></trkpt><trkpt lat="38.891064082402636" lon="8.834370108260131"><ele>44.714285714285715</ele><time>2026-04-06T08:33:12Z</time></trkpt><trkpt lat="38.89110314497511" lon="8.834285847857137"><ele>44.42857142857143</ele><time>2026-04-06T08:33:15Z</time></trkpt><trkpt lat="38.89109207198294" lon="8.83420151158265"><ele>44.142857142857146</ele><time>2026-04-06T08:33:18Z</time></trkpt><trkpt lat="38.89106631944644" lon="8.834112970111619"><ele>43.85714285714286</ele><time>2026-04-06T08:33:21Z</time></trkpt><trkpt lat="38.891023882432705" lon="8.834037794739327"><ele>43.57142857142857</ele><time>2026-04-06T08:33:24Z</time></trkpt><trkpt lat="38.89097764309629" lon="8.833973932395429"><ele>43.28571428571429</ele><time>2026-04-06T08:33:27Z</time></trkpt><trkpt lat="38.89093781868411" lon="8.833890290110045"><ele>43.0</ele><time>2026-04-06T08:33:30Z</time></trkpt><trkpt lat="38.89091288711333" lon="8.83378899947194"><ele>43.28571428571429</ele><time>2026-04-06T08:33:33Z</time></trkpt><trkpt lat="38.89089408587188" lon="8.833696395705834"><ele>43.57142857142857</ele><time>2026-04-06T08:33:36Z</time></trkpt><trkpt lat="38.89090950824428" lon="8.833602430957258"><ele>43.85714285714286</ele><time>2026-04-06T08:33:39Z</time></trkpt><trkpt lat="38.890919422036404" lon="8.833508770557208"><ele>44.142857142857146</ele><time>2026-04-06T08:33:42Z</time></trkpt><trkpt lat="38.89093538839239" lon="8.833411721899068"><ele>44.42857142857143</ele><time>2026-04-06T08:33:45Z</time></trkpt><trkpt lat="38.890929379716304" lon="8.833319466141834"><ele>44.714285714285715</ele><time>2026-04-06T08:33:48Z</time></trkpt><trkpt lat="38.89094393709188" lon="8.833230442976845"><ele>45.0</ele><time>2026-04-06T08:33:51Z</time></trkpt><trkpt lat="38.89093401690044" lon="8.833145193062439"><ele>45.0</ele><time>2026-04-06T08:33:54Z</time></trkpt><trkpt lat="38.890901261754344" lon="8.833060277737328"><ele>45.0</ele><time>2026-04-06T08:33:57Z</time></trkpt><trkpt lat="38.89086176492492" lon="8.832989319038633"><ele>45.0</ele><time>2026-04-06T08:34:00Z</time></trkpt><trkpt lat="38.890895612336124" lon="8.832909562243849"><ele>45.0</ele><time>2026-04-06T08:34:03Z</time></trkpt><trkpt lat="38.89094572755921" lon="8.832843570152388"><ele>45.0</ele><time>2026-04-06T08:34:05Z</time></trkpt><trkpt lat="38.890997388951874" lon="8.832758283862553"><ele>45.0</ele><time>2026-04-06T08:34:09Z</time></trkpt><trkpt lat="38.8910611676349" lon="8.83274274554515"><ele>45.0</ele><time>2026-04-06T08:34:12Z</time></trkpt><trkpt lat="38.89112485681205" lon="8.83277080739742"><ele>45.0</ele><time>2026-04-06T08:34:16Z</time></trkpt><trkpt lat="38.89118021654686" lon="8.832844018684131"><ele>45.0</ele><time>2026-04-06T08:34:19Z</time></trkpt><trkpt lat="38.89123276237244" lon="8.83289970329129"><ele>45.0</ele><time>2026-04-06T08:34:22Z</time></trkpt><trkpt lat="38.891294358611916" lon="8.83294997826604"><ele>45.0</ele><time>2026-04-06T08:34:25Z</time></trkpt><trkpt lat="38.89133514598171" lon="8.833024138268618"><ele>45.0</ele><time>2026-04-06T08:34:28Z</time></trkpt><trkpt lat="38.891377445695966" lon="8.833097537542953"><ele>45.0</ele><time>2026-04-06T08:34:31Z</time></trkpt><trkpt lat="38.891424239683715" lon="8.833170940643242"><ele>45.0</ele><time>2026-04-06T08:34:34Z</time></trkpt><trkpt lat="38.8914810181671" lon="8.833231494564266"><ele>45.0</ele><time>2026-04-06T08:34:37Z</time></trkpt><trkpt lat="38.89153133970196" lon="8.8332920238626"><ele>45.0</ele><time>2026-04-06T08:34:40Z</time></trkpt><trkpt lat="38.89158857495693" lon="8.833352624861385"><ele>45.0</ele><time>2026-04-06T08:34:43Z</time></trkpt><trkpt lat="38.891635479864014" lon="8.833406696598201"><ele>45.0</ele><time>2026-04-06T08:34:46Z</time></trkpt><trkpt lat="38.891702617133724" lon="8.833453669109968"><ele>45.0</ele><time>2026-04-06T08:34:51Z</time></trkpt><trkpt lat="38.891706666512405" lon="8.833557937083906"><ele>45.0</ele><time>2026-04-06T08:34:54Z</time></trkpt><trkpt lat="38.891720814523154" lon="8.833665015354935"><ele>45.0</ele><time>2026-04-06T08:34:57Z</time></trkpt><trkpt lat="38.89173359968706" lon="8.833744800140128"><ele>44.714285714285715</ele><time>2026-04-06T08:34:59Z</time></trkpt><trkpt lat="38.89174631069425" lon="8.833825667676704"><ele>44.42857142857143</ele><time>2026-04-06T08:35:01Z</time></trkpt><trkpt lat="38.89175888495685" lon="8.83391308274286"><ele>44.142857142857146</ele><time>2026-04-06T08:35:03Z</time></trkpt><trkpt lat="38.891769904087454" lon="8.833998364898655"><ele>43.85714285714286</ele><time>2026-04-06T08:35:05Z</time></trkpt><trkpt lat="38.89179095859813" lon="8.834116572618095"><ele>43.57142857142857</ele><time>2026-04-06T08:35:08Z</time></trkpt><trkpt lat="38.891806077381325" lon="8.834196182583796"><ele>43.28571428571429</ele><time>2026-04-06T08:35:10Z</time></trkpt><trkpt lat="38.89181748455285" lon="8.83427576933833"><ele>43.0</ele><time>2026-04-06T08:35:12Z</time></trkpt><trkpt lat="38.8918322567421" lon="8.834356508032418"><ele>49.0</ele><time>2026-04-06T08:35:14Z</time></trkpt><trkpt lat="38.89185324272092" lon="8.834438224003822"><ele>55.0</ele><time>2026-04-06T08:35:16Z</time></trkpt><trkpt lat="38.891867553315" lon="8.834555250974184"><ele>61.0</ele><time>2026-04-06T08:35:19Z</time></trkpt><trkpt lat="38.89188320695012" lon="8.83463648202846"><ele>67.0</ele><time>2026-04-06T08:35:21Z</time></trkpt><trkpt lat="38.89189288792838" lon="8.834720994553058"><ele>73.0</ele><time>2026-04-06T08:35:23Z</time></trkpt><trkpt lat="38.89190215119593" lon="8.834804776591024"><ele>79.0</ele><time>2026-04-06T08:35:25Z</time></trkpt><trkpt lat="38.89191540044067" lon="8.834888960346468"><ele>85.0</ele><time>2026-04-06T08:35:27Z</time></trkpt><trkpt lat="38.89192503927058" lon="8.834972911354008"><ele>85.0</ele><time>2026-04-06T08:35:29Z</time></trkpt><trkpt lat="38.891943212502945" lon="8.83505501255997"><ele>85.0</ele><time>2026-04-06T08:35:31Z</time></trkpt><trkpt lat="38.89195678823244" lon="8.835139237156147"><ele>85.0</ele><time>2026-04-06T08:35:33Z</time></trkpt><trkpt lat="38.89196786737591" lon="8.835220191177099"><ele>85.0</ele><time>2026-04-06T08:35:35Z</time></trkpt><trkpt lat="38.89198353477723" lon="8.83530560333226"><ele>85.0</ele><time>2026-04-06T08:35:37Z</time></trkpt><trkpt lat="38.891993929787105" lon="8.835395317320396"><ele>85.0</ele><time>2026-04-06T08:35:39Z</time></trkpt><trkpt lat="38.89200669923094" lon="8.835483993024717"><ele>85.0</ele><time>2026-04-06T08:35:41Z</time></trkpt><trkpt lat="38.89202404255006" lon="8.835571627542139"><ele>84.57142857142857</ele><time>2026-04-06T08:35:43Z</time></trkpt><trkpt lat="38.89204038271538" lon="8.835660415099913"><ele>84.14285714285714</ele><time>2026-04-06T08:35:45Z</time></trkpt><trkpt lat="38.89206064929527" lon="8.835749113364951"><ele>83.71428571428571</ele><time>2026-04-06T08:35:47Z</time></trkpt><trkpt lat="38.89208832638576" lon="8.835829282490101"><ele>83.28571428571428</ele><time>2026-04-06T08:35:49Z</time></trkpt><trkpt lat="38.892115536857" lon="8.83590956128693"><ele>82.85714285714286</ele><time>2026-04-06T08:35:51Z</time></trkpt><trkpt lat="38.89214534977176" lon="8.83598855112029"><ele>82.42857142857142</ele><time>2026-04-06T08:35:53Z</time></trkpt><trkpt lat="38.892176193455825" lon="8.836066751022459"><ele>82.0</ele><time>2026-04-06T08:35:55Z</time></trkpt><trkpt lat="38.89220442212617" lon="8.836153191708354"><ele>80.85714285714285</ele><time>2026-04-06T08:35:57Z</time></trkpt><trkpt lat="38.89223726172859" lon="8.836237059690777"><ele>79.71428571428571</ele><time>2026-04-06T08:35:59Z</time></trkpt><trkpt lat="38.892275102089265" lon="8.836318113124028"><ele>78.57142857142857</ele><time>2026-04-06T08:36:01Z</time></trkpt><trkpt lat="38.89230575196837" lon="8.836400967827197"><ele>77.42857142857142</ele><time>2026-04-06T08:36:03Z</time></trkpt><trkpt lat="38.892333123500116" lon="8.83648638817741"><ele>76.28571428571428</ele><time>2026-04-06T08:36:05Z</time></trkpt><trkpt lat="38.89236471538768" lon="8.836568335947826"><ele>75.14285714285714</ele><time>2026-04-06T08:36:07Z</time></trkpt><trkpt lat="38.892399242342435" lon="8.836651992459938"><ele>74.0</ele><time>2026-04-06T08:36:09Z</time></trkpt><trkpt lat="38.8924320747118" lon="8.836731094593961"><ele>74.57142857142857</ele><time>2026-04-06T08:36:11Z</time></trkpt><trkpt lat="38.8924635814365" lon="8.83681271687074"><ele>75.14285714285714</ele><time>2026-04-06T08:36:13Z</time></trkpt><trkpt lat="38.892494156885476" lon="8.836888306139066"><ele>75.71428571428572</ele><time>2026-04-06T08:36:15Z</time></trkpt><trkpt lat="38.89252330331571" lon="8.836961914999534"><ele>76.28571428571428</ele><time>2026-04-06T08:36:17Z</time></trkpt><trkpt lat="38.89255390761154" lon="8.837040338056088"><ele>76.85714285714285</ele><time>2026-04-06T08:36:19Z</time></trkpt><trkpt lat="38.892587965346266" lon="8.83711909828506"><ele>77.42857142857143</ele><time>2026-04-06T08:36:21Z</time></trkpt><trkpt lat="38.89262969403109" lon="8.8371958868869"><ele>78.0</ele><time>2026-04-06T08:36:23Z</time></trkpt><trkpt lat="38.892674292901354" lon="8.837278423644113"><ele>78.5</ele><time>2026-04-06T08:36:25Z</time></trkpt><trkpt lat="38.892719989879524" lon="8.837365314979284"><ele>79.0</ele><time>2026-04-06T08:36:27Z</time></trkpt><trkpt lat="38.89276705279528" lon="8.837452324722388"><ele>79.5</ele><time>2026-04-06T08:36:29Z</time></trkpt><trkpt lat="38.89281229701674" lon="8.837542534055569"><ele>80.0</ele><time>2026-04-06T08:36:31Z</time></trkpt><trkpt lat="38.89286537100707" lon="8.837638681273662"><ele>80.5</ele><time>2026-04-06T08:36:33Z</time></trkpt><trkpt lat="38.892923500556066" lon="8.837748822354344"><ele>81.0</ele><time>2026-04-06T08:36:35Z</time></trkpt><trkpt lat="38.892985038770085" lon="8.837871897502676"><ele>78.39999999999999</ele><time>2026-04-06T08:36:37Z</time></trkpt><trkpt lat="38.8930478130895" lon="8.83802104290627"><ele>75.8</ele><time>2026-04-06T08:36:39Z</time></trkpt><trkpt lat="38.89310237791569" lon="8.83815565991192"><ele>73.19999999999999</ele><time>2026-04-06T08:36:41Z</time></trkpt><trkpt lat="38.89310824910239" lon="8.838262113893462"><ele>70.6</ele><time>2026-04-06T08:36:42Z</time></trkpt><trkpt lat="38.893072081914134" lon="8.838332910551477"><ele>68.0</ele><time>2026-04-06T08:36:45Z</time></trkpt><trkpt lat="38.893097433915926" lon="8.838433530432646"><ele>65.8</ele><time>2026-04-06T08:37:47Z</time></trkpt><trkpt lat="38.89310022932904" lon="8.838545936596766"><ele>63.599999999999994</ele><time>2026-04-06T08:37:50Z</time></trkpt><trkpt lat="38.89314357798082" lon="8.838656504960905"><ele>61.400000000000006</ele><time>2026-04-06T08:37:52Z</time></trkpt><trkpt lat="38.89317570941168" lon="8.838766171970178"><ele>59.2</ele><time>2026-04-06T08:37:54Z</time></trkpt><trkpt lat="38.893187918897695" lon="8.838901858405931"><ele>57.0</ele><time>2026-04-06T08:37:56Z</time></trkpt><trkpt lat="38.893209133623806" lon="8.83906808302357"><ele>57.0</ele><time>2026-04-06T08:37:58Z</time></trkpt><trkpt lat="38.89321933962457" lon="8.839164568164911"><ele>57.0</ele><time>2026-04-06T08:37:59Z</time></trkpt><trkpt lat="38.893230017571916" lon="8.83926685907442"><ele>57.0</ele><time>2026-04-06T08:38:00Z</time></trkpt><trkpt lat="38.893243193564835" lon="8.839370310535632"><ele>57.0</ele><time>2026-04-06T08:38:01Z</time></trkpt><trkpt lat="38.89325858962862" lon="8.839480955779358"><ele>57.0</ele><time>2026-04-06T08:38:02Z</time></trkpt><trkpt lat="38.893266416447624" lon="8.839594862852996"><ele>57.0</ele><time>2026-04-06T08:38:03Z</time></trkpt><trkpt lat="38.893249723706575" lon="8.839711143573473"><ele>56.6</ele><time>2026-04-06T08:38:04Z</time></trkpt><trkpt lat="38.893208417413774" lon="8.839822011398242"><ele>56.2</ele><time>2026-04-06T08:38:05Z</time></trkpt><trkpt lat="38.89314842015054" lon="8.83992233156516"><ele>55.8</ele><time>2026-04-06T08:38:06Z</time></trkpt><trkpt lat="38.89307355752532" lon="8.84000416951085"><ele>55.4</ele><time>2026-04-06T08:38:07Z</time></trkpt><trkpt lat="38.89298975773989" lon="8.84007019946094"><ele>55.0</ele><time>2026-04-06T08:38:08Z</time></trkpt><trkpt lat="38.89290379847203" lon="8.840134774429686"><ele>54.6</ele><time>2026-04-06T08:38:09Z</time></trkpt><trkpt lat="38.89282421395855" lon="8.840206261856899"><ele>54.2</ele><time>2026-04-06T08:38:10Z</time></trkpt><trkpt lat="38.89274500154723" lon="8.840284240195661"><ele>53.8</ele><time>2026-04-06T08:38:11Z</time></trkpt><trkpt lat="38.892663727618896" lon="8.840355537838752"><ele>53.4</ele><time>2026-04-06T08:38:12Z</time></trkpt><trkpt lat="38.892587560014015" lon="8.840421491979889"><ele>53.0</ele><time>2026-04-06T08:38:13Z</time></trkpt><trkpt lat="38.89251324173592" lon="8.840488514367099"><ele>52.2</ele><time>2026-04-06T08:38:14Z</time></trkpt><trkpt lat="38.892439385409695" lon="8.840560548444973"><ele>51.4</ele><time>2026-04-06T08:38:15Z</time></trkpt><trkpt lat="38.89236259426843" lon="8.840636761286591"><ele>50.6</ele><time>2026-04-06T08:38:16Z</time></trkpt><trkpt lat="38.89229045933903" lon="8.840721788539248"><ele>49.800000000000004</ele><time>2026-04-06T08:38:17Z</time></trkpt><trkpt lat="38.89223035248098" lon="8.840821074495203"><ele>49.0</ele><time>2026-04-06T08:38:18Z</time></trkpt><trkpt lat="38.89217746456116" lon="8.840932270530914"><ele>47.6</ele><time>2026-04-06T08:38:19Z</time></trkpt><trkpt lat="38.892133573566646" lon="8.841053207241766"><ele>46.2</ele><time>2026-04-06T08:38:20Z</time></trkpt><trkpt lat="38.89209895193449" lon="8.841181490783967"><ele>44.800000000000004</ele><time>2026-04-06T08:38:21Z</time></trkpt><trkpt lat="38.89207394123142" lon="8.841314465825548"><ele>43.400000000000006</ele><time>2026-04-06T08:38:22Z</time></trkpt><trkpt lat="38.89205475016938" lon="8.841446327274866"><ele>42.0</ele><time>2026-04-06T08:38:23Z</time></trkpt><trkpt lat="38.89203673646562" lon="8.841567403053263"><ele>42.0</ele><time>2026-04-06T08:38:24Z</time></trkpt><trkpt lat="38.89201911942972" lon="8.841683139585433"><ele>42.0</ele><time>2026-04-06T08:38:25Z</time></trkpt><trkpt lat="38.891998890891955" lon="8.841799885205669"><ele>42.0</ele><time>2026-04-06T08:38:26Z</time></trkpt><trkpt lat="38.89197832734839" lon="8.841922063006175"><ele>42.0</ele><time>2026-04-06T08:38:27Z</time></trkpt><trkpt lat="38.89195930953956" lon="8.842044899184685"><ele>42.0</ele><time>2026-04-06T08:38:28Z</time></trkpt><trkpt lat="38.89194131756002" lon="8.842166993307494"><ele>41.4</ele><time>2026-04-06T08:38:29Z</time></trkpt><trkpt lat="38.891920761458614" lon="8.84229090006999"><ele>40.800000000000004</ele><time>2026-04-06T08:38:30Z</time></trkpt><trkpt lat="38.891899563225614" lon="8.842416412196933"><ele>40.2</ele><time>2026-04-06T08:38:31Z</time></trkpt><trkpt lat="38.891881281499046" lon="8.842543241312818"><ele>39.6</ele><time>2026-04-06T08:38:32Z</time></trkpt><trkpt lat="38.8918628889433" lon="8.84266871401266"><ele>39.0</ele><time>2026-04-06T08:38:33Z</time></trkpt><trkpt lat="38.89184555812184" lon="8.842792667637728"><ele>38.2</ele><time>2026-04-06T08:38:34Z</time></trkpt><trkpt lat="38.8918307325198" lon="8.842915308230875"><ele>37.4</ele><time>2026-04-06T08:38:35Z</time></trkpt><trkpt lat="38.891829323184105" lon="8.843034468907318"><ele>36.6</ele><time>2026-04-06T08:38:36Z</time></trkpt><trkpt lat="38.8918388422114" lon="8.843152298619936"><ele>35.8</ele><time>2026-04-06T08:38:37Z</time></trkpt><trkpt lat="38.89185258077207" lon="8.84326747188159"><ele>35.0</ele><time>2026-04-06T08:38:38Z</time></trkpt><trkpt lat="38.89186241151485" lon="8.84337993324168"><ele>34.83333333333333</ele><time>2026-04-06T08:38:39Z</time></trkpt><trkpt lat="38.89187380665378" lon="8.84349150607585"><ele>34.666666666666664</ele><time>2026-04-06T08:38:40Z</time></trkpt><trkpt lat="38.89188391747019" lon="8.843600046858349"><ele>34.5</ele><time>2026-04-06T08:38:41Z</time></trkpt><trkpt lat="38.89189741606119" lon="8.843707338776696"><ele>34.333333333333336</ele><time>2026-04-06T08:38:42Z</time></trkpt><trkpt lat="38.89190916407171" lon="8.843810681379443"><ele>34.16666666666667</ele><time>2026-04-06T08:38:43Z</time></trkpt><trkpt lat="38.89191970868784" lon="8.84391247343304"><ele>34.0</ele><time>2026-04-06T08:38:44Z</time></trkpt><trkpt lat="38.89192999127108" lon="8.84401153500981"><ele>33.99999999999999</ele><time>2026-04-06T08:38:45Z</time></trkpt><trkpt lat="38.89193923959907" lon="8.84410778058037"><ele>34.0</ele><time>2026-04-06T08:38:46Z</time></trkpt><trkpt lat="38.891949375624115" lon="8.844199881188011"><ele>34.0</ele><time>2026-04-06T08:38:47Z</time></trkpt><trkpt lat="38.89195947689711" lon="8.844290947091313"><ele>34.0</ele><time>2026-04-06T08:38:48Z</time></trkpt><trkpt lat="38.891968337607906" lon="8.844379647684905"><ele>34.0</ele><time>2026-04-06T08:38:49Z</time></trkpt><trkpt lat="38.8919776181796" lon="8.844466590735697"><ele>33.99999999999999</ele><time>2026-04-06T08:38:50Z</time></trkpt><trkpt lat="38.89198592421944" lon="8.844550807385048"><ele>34.0</ele><time>2026-04-06T08:38:51Z</time></trkpt><trkpt lat="38.891995053908914" lon="8.84463626712899"><ele>33.42857142857142</ele><time>2026-04-06T08:38:52Z</time></trkpt><trkpt lat="38.89200103447859" lon="8.844721798048939"><ele>32.857142857142854</ele><time>2026-04-06T08:38:53Z</time></trkpt><trkpt lat="38.89201073830328" lon="8.844804345707258"><ele>32.285714285714285</ele><time>2026-04-06T08:38:54Z</time></trkpt><trkpt lat="38.892019813175885" lon="8.844886761813536"><ele>31.71428571428571</ele><time>2026-04-06T08:38:55Z</time></trkpt><trkpt lat="38.89203075182577" lon="8.844969066409226"><ele>31.14285714285714</ele><time>2026-04-06T08:38:56Z</time></trkpt><trkpt lat="38.89203859638934" lon="8.845052481156795"><ele>30.571428571428573</ele><time>2026-04-06T08:38:57Z</time></trkpt><trkpt lat="38.8920471803468" lon="8.845133483434854"><ele>30.0</ele><time>2026-04-06T08:38:58Z</time></trkpt><trkpt lat="38.89205577523674" lon="8.845215152588331"><ele>29.5</ele><time>2026-04-06T08:38:59Z</time></trkpt><trkpt lat="38.8920744147993" lon="8.84537464385154"><ele>29.0</ele><time>2026-04-06T08:39:01Z</time></trkpt><trkpt lat="38.892093279466565" lon="8.845534156870178"><ele>28.5</ele><time>2026-04-06T08:39:03Z</time></trkpt><trkpt lat="38.89210880377796" lon="8.845693794246458"><ele>28.0</ele><time>2026-04-06T08:39:05Z</time></trkpt><trkpt lat="38.89212700422583" lon="8.845851166252663"><ele>27.799999999999997</ele><time>2026-04-06T08:39:07Z</time></trkpt><trkpt lat="38.89214364957692" lon="8.846007603589749"><ele>27.599999999999998</ele><time>2026-04-06T08:39:09Z</time></trkpt><trkpt lat="38.892158299539304" lon="8.846168875279627"><ele>27.400000000000002</ele><time>2026-04-06T08:39:11Z</time></trkpt><trkpt lat="38.89217504142933" lon="8.84632917720208"><ele>27.200000000000003</ele><time>2026-04-06T08:39:13Z</time></trkpt><trkpt lat="38.89218340399558" lon="8.846410641272492"><ele>27.0</ele><time>2026-04-06T08:39:14Z</time></trkpt><trkpt lat="38.892192297332244" lon="8.84649226978679"><ele>27.0</ele><time>2026-04-06T08:39:15Z</time></trkpt><trkpt lat="38.89220208725593" lon="8.846576136556775"><ele>27.0</ele><time>2026-04-06T08:39:16Z</time></trkpt><trkpt lat="38.89221144579783" lon="8.846660701903462"><ele>27.0</ele><time>2026-04-06T08:39:17Z</time></trkpt><trkpt lat="38.89221986133921" lon="8.846744298045314"><ele>27.0</ele><time>2026-04-06T08:39:18Z</time></trkpt><trkpt lat="38.892229303408115" lon="8.846828843442994"><ele>27.0</ele><time>2026-04-06T08:39:19Z</time></trkpt><trkpt lat="38.892238930836086" lon="8.846912728086403"><ele>27.0</ele><time>2026-04-06T08:39:20Z</time></trkpt><trkpt lat="38.89224877267263" lon="8.846994370035397"><ele>27.0</ele><time>2026-04-06T08:39:21Z</time></trkpt><trkpt lat="38.89225535219247" lon="8.847076783028141"><ele>27.0</ele><time>2026-04-06T08:39:22Z</time></trkpt><trkpt lat="38.89226108752691" lon="8.847159276825293"><ele>27.0</ele><time>2026-04-06T08:39:23Z</time></trkpt><trkpt lat="38.89227037442068" lon="8.847241398481351"><ele>27.0</ele><time>2026-04-06T08:39:24Z</time></trkpt><trkpt lat="38.892279721098646" lon="8.847323949111782"><ele>27.0</ele><time>2026-04-06T08:39:25Z</time></trkpt><trkpt lat="38.89229608975632" lon="8.847483457485344"><ele>27.0</ele><time>2026-04-06T08:39:27Z</time></trkpt><trkpt lat="38.892313027813394" lon="8.847612121293706"><ele>27.0</ele><time>2026-04-06T08:39:29Z</time></trkpt><trkpt lat="38.89231598362424" lon="8.847712316410586"><ele>27.0</ele><time>2026-04-06T08:39:32Z</time></trkpt><trkpt lat="38.89232702714641" lon="8.847792061143947"><ele>27.000000000000004</ele><time>2026-04-06T08:39:34Z</time></trkpt><trkpt lat="38.89234343107365" lon="8.847912009118815"><ele>27.000000000000004</ele><time>2026-04-06T08:39:36Z</time></trkpt><trkpt lat="38.89235975536122" lon="8.84806152667256"><ele>27.0</ele><time>2026-04-06T08:39:38Z</time></trkpt><trkpt lat="38.89237571233374" lon="8.848214425081323"><ele>27.0</ele><time>2026-04-06T08:39:40Z</time></trkpt><trkpt lat="38.89239227544174" lon="8.848365417687917"><ele>26.75</ele><time>2026-04-06T08:39:42Z</time></trkpt><trkpt lat="38.892406541668976" lon="8.848516259988902"><ele>26.5</ele><time>2026-04-06T08:39:44Z</time></trkpt><trkpt lat="38.892423755724835" lon="8.848663407308019"><ele>26.25</ele><time>2026-04-06T08:39:46Z</time></trkpt><trkpt lat="38.89243912749974" lon="8.84881487009481"><ele>26.0</ele><time>2026-04-06T08:39:48Z</time></trkpt><trkpt lat="38.892457734170705" lon="8.848967076358644"><ele>26.0</ele><time>2026-04-06T08:39:50Z</time></trkpt><trkpt lat="38.89247287414579" lon="8.849120761529056"><ele>26.0</ele><time>2026-04-06T08:39:52Z</time></trkpt><trkpt lat="38.892489445968806" lon="8.849273946123843"><ele>26.0</ele><time>2026-04-06T08:39:54Z</time></trkpt><trkpt lat="38.89250539654725" lon="8.84942789804477"><ele>26.0</ele><time>2026-04-06T08:39:56Z</time></trkpt><trkpt lat="38.89251850541606" lon="8.849579375313626"><ele>25.71428571428571</ele><time>2026-04-06T08:39:58Z</time></trkpt><trkpt lat="38.892526782327856" lon="8.84966016911526"><ele>25.42857142857143</ele><time>2026-04-06T08:39:59Z</time></trkpt><trkpt lat="38.89253775698762" lon="8.849743059384899"><ele>25.142857142857142</ele><time>2026-04-06T08:40:00Z</time></trkpt><trkpt lat="38.892545090761466" lon="8.849826221047318"><ele>24.857142857142854</ele><time>2026-04-06T08:40:01Z</time></trkpt><trkpt lat="38.89255564067194" lon="8.84990925150284"><ele>24.57142857142857</ele><time>2026-04-06T08:40:02Z</time></trkpt><trkpt lat="38.8925644076231" lon="8.849994334736012"><ele>24.285714285714285</ele><time>2026-04-06T08:40:03Z</time></trkpt><trkpt lat="38.892571575258685" lon="8.850075182644671"><ele>24.0</ele><time>2026-04-06T08:40:04Z</time></trkpt><trkpt lat="38.89258258502077" lon="8.85016024710645"><ele>24.166666666666668</ele><time>2026-04-06T08:40:05Z</time></trkpt><trkpt lat="38.892590383221936" lon="8.850245623083467"><ele>24.333333333333336</ele><time>2026-04-06T08:40:06Z</time></trkpt><trkpt lat="38.892601086567005" lon="8.85032794974253"><ele>24.5</ele><time>2026-04-06T08:40:07Z</time></trkpt><trkpt lat="38.89261009786163" lon="8.850411893524901"><ele>24.666666666666668</ele><time>2026-04-06T08:40:08Z</time></trkpt><trkpt lat="38.89261813575738" lon="8.850494704098924"><ele>24.833333333333336</ele><time>2026-04-06T08:40:09Z</time></trkpt><trkpt lat="38.89262547581746" lon="8.850577692046203"><ele>25.0</ele><time>2026-04-06T08:40:10Z</time></trkpt><trkpt lat="38.89263835418726" lon="8.850734512451355"><ele>25.000000000000004</ele><time>2026-04-06T08:40:12Z</time></trkpt><trkpt lat="38.89265799979465" lon="8.850884650066389"><ele>25.0</ele><time>2026-04-06T08:40:14Z</time></trkpt><trkpt lat="38.89267549292157" lon="8.85102535452783"><ele>25.0</ele><time>2026-04-06T08:40:16Z</time></trkpt><trkpt lat="38.892630678822" lon="8.851098738419052"><ele>25.0</ele><time>2026-04-06T08:40:18Z</time></trkpt><trkpt lat="38.89256402716161" lon="8.851049328119881"><ele>25.000000000000004</ele><time>2026-04-06T08:40:20Z</time></trkpt><trkpt lat="38.89253625244702" lon="8.850976651509022"><ele>25.0</ele><time>2026-04-06T08:40:22Z</time></trkpt><trkpt lat="38.892478681525525" lon="8.850897845816872"><ele>24.8</ele><time>2026-04-06T08:40:24Z</time></trkpt><trkpt lat="38.892420128556395" lon="8.850819635984871"><ele>24.6</ele><time>2026-04-06T08:40:26Z</time></trkpt><trkpt lat="38.89234914493351" lon="8.85074333886171"><ele>24.4</ele><time>2026-04-06T08:40:28Z</time></trkpt><trkpt lat="38.89227477143014" lon="8.850676255239438"><ele>24.2</ele><time>2026-04-06T08:40:30Z</time></trkpt><trkpt lat="38.89217957144664" lon="8.850624557169803"><ele>24.0</ele><time>2026-04-06T08:40:32Z</time></trkpt><trkpt lat="38.89210738755919" lon="8.85057613349175"><ele>24.0</ele><time>2026-04-06T08:40:34Z</time></trkpt><trkpt lat="38.89205359664282" lon="8.850510708996289"><ele>24.0</ele><time>2026-04-06T08:40:36Z</time></trkpt><trkpt lat="38.89200305121608" lon="8.850460992513282"><ele>24.0</ele><time>2026-04-06T08:40:49Z</time></trkpt><trkpt lat="38.89175912087515" lon="8.850469149727722"><ele>24.0</ele><time>2026-04-06T08:41:19Z</time></trkpt><trkpt lat="38.89170280840239" lon="8.850513085093104"><ele>24.0</ele><time>2026-04-06T08:41:21Z</time></trkpt><trkpt lat="38.89164111818222" lon="8.850546758485775"><ele>23.2</ele><time>2026-04-06T08:41:23Z</time></trkpt><trkpt lat="38.89157115815414" lon="8.850556721592524"><ele>22.4</ele><time>2026-04-06T08:41:25Z</time></trkpt><trkpt lat="38.89148992085768" lon="8.850610704000216"><ele>21.6</ele><time>2026-04-06T08:41:27Z</time></trkpt><trkpt lat="38.89138842183193" lon="8.850642264137475"><ele>20.8</ele><time>2026-04-06T08:41:29Z</time></trkpt><trkpt lat="38.89128985350297" lon="8.850707678784293"><ele>20.0</ele><time>2026-04-06T08:41:31Z</time></trkpt><trkpt lat="38.8911878723023" lon="8.850755641059443"><ele>20.0</ele><time>2026-04-06T08:41:33Z</time></trkpt><trkpt lat="38.89108210876497" lon="8.850785793641123"><ele>20.0</ele><time>2026-04-06T08:41:35Z</time></trkpt><trkpt lat="38.89097888713176" lon="8.85083098862955"><ele>20.0</ele><time>2026-04-06T08:41:37Z</time></trkpt><trkpt lat="38.890869039852454" lon="8.850880719579736"><ele>20.0</ele><time>2026-04-06T08:41:39Z</time></trkpt><trkpt lat="38.89076265200545" lon="8.850929227573285"><ele>20.0</ele><time>2026-04-06T08:41:41Z</time></trkpt><trkpt lat="38.89065212592499" lon="8.85098081971536"><ele>19.25</ele><time>2026-04-06T08:41:43Z</time></trkpt><trkpt lat="38.890542753372216" lon="8.851032349226566"><ele>18.5</ele><time>2026-04-06T08:41:45Z</time></trkpt><trkpt lat="38.89042802473933" lon="8.851088294765304"><ele>17.75</ele><time>2026-04-06T08:41:47Z</time></trkpt><trkpt lat="38.89031444669893" lon="8.851143679244778"><ele>17.0</ele><time>2026-04-06T08:41:49Z</time></trkpt><trkpt lat="38.89020377349207" lon="8.851195960869655"><ele>17.0</ele><time>2026-04-06T08:41:51Z</time></trkpt><trkpt lat="38.890105424868075" lon="8.85126528877879"><ele>17.0</ele><time>2026-04-06T08:41:53Z</time></trkpt><trkpt lat="38.890043588317546" lon="8.851292504597561"><ele>17.0</ele><time>2026-04-06T08:41:54Z</time></trkpt><trkpt lat="38.88997329287612" lon="8.85129775424972"><ele>17.0</ele><time>2026-04-06T08:41:55Z</time></trkpt><trkpt lat="38.88992613568523" lon="8.851353985513066"><ele>17.0</ele><time>2026-04-06T08:41:56Z</time></trkpt><trkpt lat="38.889815434836116" lon="8.851397647717722"><ele>17.0</ele><time>2026-04-06T08:41:58Z</time></trkpt><trkpt lat="38.889702236517856" lon="8.851449896101768"><ele>17.2</ele><time>2026-04-06T08:42:00Z</time></trkpt><trkpt lat="38.88960301378608" lon="8.85149371877065"><ele>17.4</ele><time>2026-04-06T08:42:02Z</time></trkpt><trkpt lat="38.88950824470645" lon="8.851547172200666"><ele>17.6</ele><time>2026-04-06T08:42:04Z</time></trkpt><trkpt lat="38.88941828453843" lon="8.851584271939817"><ele>17.8</ele><time>2026-04-06T08:42:06Z</time></trkpt><trkpt lat="38.8893351189821" lon="8.851588721181932"><ele>18.0</ele><time>2026-04-06T08:42:08Z</time></trkpt><trkpt lat="38.88923707473985" lon="8.851668104860291"><ele>18.000000000000004</ele><time>2026-04-06T08:42:10Z</time></trkpt><trkpt lat="38.88916362415701" lon="8.85170692544985"><ele>18.0</ele><time>2026-04-06T08:42:13Z</time></trkpt><trkpt lat="38.8890939031653" lon="8.851737423956509"><ele>18.0</ele><time>2026-04-06T08:42:15Z</time></trkpt><trkpt lat="38.889033258497456" lon="8.851765002465457"><ele>18.0</ele><time>2026-04-06T08:42:17Z</time></trkpt><trkpt lat="38.8889720734315" lon="8.851798712441035"><ele>18.0</ele><time>2026-04-06T08:42:19Z</time></trkpt><trkpt lat="38.888913805077934" lon="8.851838717622858"><ele>18.000000000000004</ele><time>2026-04-06T08:42:21Z</time></trkpt><trkpt lat="38.88882716736796" lon="8.851879239714371"><ele>18.0</ele><time>2026-04-06T08:42:24Z</time></trkpt><trkpt lat="38.8887420517206" lon="8.85192040425624"><ele>17.833333333333332</ele><time>2026-04-06T08:42:27Z</time></trkpt><trkpt lat="38.888658933861194" lon="8.851955759781763"><ele>17.666666666666668</ele><time>2026-04-06T08:42:30Z</time></trkpt><trkpt lat="38.88858195415496" lon="8.851984016365483"><ele>17.5</ele><time>2026-04-06T08:42:33Z</time></trkpt><trkpt lat="38.88850252304236" lon="8.852026993743777"><ele>17.333333333333336</ele><time>2026-04-06T08:42:36Z</time></trkpt><trkpt lat="38.888426126570224" lon="8.852050587901859"><ele>17.166666666666668</ele><time>2026-04-06T08:42:39Z</time></trkpt><trkpt lat="38.88834867582377" lon="8.852099322125648"><ele>17.0</ele><time>2026-04-06T08:42:42Z</time></trkpt><trkpt lat="38.888268750089466" lon="8.852120515530826"><ele>18.57142857142857</ele><time>2026-04-06T08:42:45Z</time></trkpt><trkpt lat="38.888197996546666" lon="8.8521582852281"><ele>20.142857142857142</ele><time>2026-04-06T08:42:48Z</time></trkpt><trkpt lat="38.888129592252525" lon="8.852186127577955"><ele>21.714285714285715</ele><time>2026-04-06T08:42:51Z</time></trkpt><trkpt lat="38.88806549733411" lon="8.852206293965596"><ele>23.285714285714285</ele><time>2026-04-06T08:42:54Z</time></trkpt><trkpt lat="38.887998036933006" lon="8.852264584869914"><ele>24.857142857142858</ele><time>2026-04-06T08:42:57Z</time></trkpt><trkpt lat="38.88792738023626" lon="8.852290615317857"><ele>26.428571428571427</ele><time>2026-04-06T08:43:00Z</time></trkpt><trkpt lat="38.88785861796114" lon="8.852324633948218"><ele>28.0</ele><time>2026-04-06T08:43:03Z</time></trkpt><trkpt lat="38.887776927727664" lon="8.852362990238044"><ele>28.0</ele><time>2026-04-06T08:43:07Z</time></trkpt><trkpt lat="38.887708608734776" lon="8.852394242812334"><ele>28.0</ele><time>2026-04-06T08:43:10Z</time></trkpt><trkpt lat="38.88764084576354" lon="8.852421174170125"><ele>28.0</ele><time>2026-04-06T08:43:13Z</time></trkpt><trkpt lat="38.88757231377366" lon="8.852439321286154"><ele>28.0</ele><time>2026-04-06T08:43:16Z</time></trkpt><trkpt lat="38.88750530162159" lon="8.852467330028018"><ele>28.0</ele><time>2026-04-06T08:43:19Z</time></trkpt><trkpt lat="38.887439859900205" lon="8.852516751668873"><ele>28.0</ele><time>2026-04-06T08:43:22Z</time></trkpt><trkpt lat="38.88737218468392" lon="8.852530140212716"><ele>28.0</ele><time>2026-04-06T08:43:25Z</time></trkpt><trkpt lat="38.88730681507731" lon="8.852552027454248"><ele>30.666666666666668</ele><time>2026-04-06T08:43:28Z</time></trkpt><trkpt lat="38.88724578932031" lon="8.852577102344867"><ele>33.333333333333336</ele><time>2026-04-06T08:43:31Z</time></trkpt><trkpt lat="38.887168827749704" lon="8.852571519221742"><ele>36.0</ele><time>2026-04-06T08:43:35Z</time></trkpt><trkpt lat="38.887129589877944" lon="8.852409001754708"><ele>38.666666666666664</ele><time>2026-04-06T08:44:42Z</time></trkpt><trkpt lat="38.88712926453378" lon="8.852301289993148"><ele>41.33333333333333</ele><time>2026-04-06T08:44:45Z</time></trkpt><trkpt lat="38.88713586241102" lon="8.852198737556883"><ele>44.0</ele><time>2026-04-06T08:44:48Z</time></trkpt><trkpt lat="38.887150610122845" lon="8.852079570829426"><ele>44.0</ele><time>2026-04-06T08:44:51Z</time></trkpt><trkpt lat="38.8871556035738" lon="8.851998457773638"><ele>44.0</ele><time>2026-04-06T08:44:53Z</time></trkpt><trkpt lat="38.88717506019637" lon="8.851908214160625"><ele>44.0</ele><time>2026-04-06T08:44:55Z</time></trkpt><trkpt lat="38.88719427888541" lon="8.851809388598507"><ele>44.0</ele><time>2026-04-06T08:44:57Z</time></trkpt><trkpt lat="38.887238588121754" lon="8.851704207808561"><ele>44.0</ele><time>2026-04-06T08:44:59Z</time></trkpt><trkpt lat="38.8872798869787" lon="8.851571374018722"><ele>44.0</ele><time>2026-04-06T08:45:01Z</time></trkpt><trkpt lat="38.88730361215252" lon="8.851495064333868"><ele>44.0</ele><time>2026-04-06T08:45:02Z</time></trkpt><trkpt lat="38.887331476003475" lon="8.85140544297352"><ele>44.0</ele><time>2026-04-06T08:45:03Z</time></trkpt><trkpt lat="38.88735890318939" lon="8.851317226157617"><ele>44.0</ele><time>2026-04-06T08:45:04Z</time></trkpt><trkpt lat="38.88737565717886" lon="8.851220623265691"><ele>44.0</ele><time>2026-04-06T08:45:05Z</time></trkpt><trkpt lat="38.88742300821979" lon="8.851148582168483"><ele>44.0</ele><time>2026-04-06T08:45:06Z</time></trkpt><trkpt lat="38.8874200001522" lon="8.85104656121451"><ele>44.0</ele><time>2026-04-06T08:45:07Z</time></trkpt><trkpt lat="38.88735096955159" lon="8.850914568339089"><ele>44.0</ele><time>2026-04-06T08:45:09Z</time></trkpt><trkpt lat="38.887306999657326" lon="8.850826782171863"><ele>44.0</ele><time>2026-04-06T08:45:11Z</time></trkpt><trkpt lat="38.887255593542804" lon="8.850741544063153"><ele>44.0</ele><time>2026-04-06T08:45:14Z</time></trkpt><trkpt lat="38.88720949891432" lon="8.850681673094545"><ele>44.0</ele><time>2026-04-06T08:45:16Z</time></trkpt><trkpt lat="38.887139580089695" lon="8.850651521263357"><ele>44.0</ele><time>2026-04-06T08:45:18Z</time></trkpt><trkpt lat="38.887085150368776" lon="8.850603556341335"><ele>44.0</ele><time>2026-04-06T08:45:20Z</time></trkpt><trkpt lat="38.88703492963564" lon="8.850554328428958"><ele>44.0</ele><time>2026-04-06T08:45:22Z</time></trkpt><trkpt lat="38.88695200080019" lon="8.850504844216234"><ele>44.0</ele><time>2026-04-06T08:45:25Z</time></trkpt><trkpt lat="38.88686261401792" lon="8.850485275283399"><ele>44.0</ele><time>2026-04-06T08:45:28Z</time></trkpt><trkpt lat="38.88677853294143" lon="8.850444090959792"><ele>44.0</ele><time>2026-04-06T08:45:31Z</time></trkpt><trkpt lat="38.886688531660894" lon="8.850416337577913"><ele>44.0</ele><time>2026-04-06T08:45:34Z</time></trkpt><trkpt lat="38.88660771815603" lon="8.850391254027791"><ele>44.0</ele><time>2026-04-06T08:45:37Z</time></trkpt><trkpt lat="38.886518167160595" lon="8.850359261688876"><ele>44.0</ele><time>2026-04-06T08:45:40Z</time></trkpt><trkpt lat="38.88645974769389" lon="8.850288957844478"><ele>44.666666666666664</ele><time>2026-04-06T08:45:44Z</time></trkpt><trkpt lat="38.886517950296444" lon="8.85022746170587"><ele>45.33333333333333</ele><time>2026-04-06T08:45:48Z</time></trkpt><trkpt lat="38.88658525428171" lon="8.850159803004527"><ele>46.0</ele><time>2026-04-06T08:45:51Z</time></trkpt><trkpt lat="38.88665170093009" lon="8.850101457039605"><ele>46.666666666666664</ele><time>2026-04-06T08:45:54Z</time></trkpt><trkpt lat="38.88671154363541" lon="8.850037892449055"><ele>47.333333333333336</ele><time>2026-04-06T08:45:57Z</time></trkpt><trkpt lat="38.88678266882865" lon="8.849986507718782"><ele>48.0</ele><time>2026-04-06T08:46:00Z</time></trkpt><trkpt lat="38.886844820211024" lon="8.849945583795062"><ele>48.833333333333336</ele><time>2026-04-06T08:46:03Z</time></trkpt><trkpt lat="38.88690109844596" lon="8.849891094957682"><ele>49.66666666666667</ele><time>2026-04-06T08:46:06Z</time></trkpt><trkpt lat="38.8869697786864" lon="8.849875342658732"><ele>50.5</ele><time>2026-04-06T08:46:09Z</time></trkpt><trkpt lat="38.88703159390187" lon="8.84982403986284"><ele>51.333333333333336</ele><time>2026-04-06T08:46:12Z</time></trkpt><trkpt lat="38.88709340131036" lon="8.84974774671661"><ele>52.16666666666667</ele><time>2026-04-06T08:46:15Z</time></trkpt><trkpt lat="38.88710615559672" lon="8.849654823165983"><ele>53.0</ele><time>2026-04-06T08:46:18Z</time></trkpt><trkpt lat="38.88706846492512" lon="8.849550428540914"><ele>53.00000000000001</ele><time>2026-04-06T08:46:21Z</time></trkpt><trkpt lat="38.887008183718876" lon="8.849465610584238"><ele>53.0</ele><time>2026-04-06T08:46:24Z</time></trkpt><trkpt lat="38.8869575181912" lon="8.849376251440688"><ele>53.0</ele><time>2026-04-06T08:46:28Z</time></trkpt><trkpt lat="38.886920854592226" lon="8.849297773992348"><ele>53.0</ele><time>2026-04-06T08:46:31Z</time></trkpt><trkpt lat="38.88688707627415" lon="8.849208818896159"><ele>53.00000000000001</ele><time>2026-04-06T08:46:34Z</time></trkpt><trkpt lat="38.88685429570376" lon="8.849117436522906"><ele>53.0</ele><time>2026-04-06T08:46:37Z</time></trkpt><trkpt lat="38.88682770302675" lon="8.849030244182616"><ele>53.833333333333336</ele><time>2026-04-06T08:46:40Z</time></trkpt><trkpt lat="38.886800511957595" lon="8.84893421963131"><ele>54.66666666666667</ele><time>2026-04-06T08:46:43Z</time></trkpt><trkpt lat="38.886770945054785" lon="8.848826880860708"><ele>55.5</ele><time>2026-04-06T08:46:46Z</time></trkpt><trkpt lat="38.886730916650535" lon="8.848721579995734"><ele>56.33333333333333</ele><time>2026-04-06T08:46:49Z</time></trkpt><trkpt lat="38.88670237010027" lon="8.848599211271736"><ele>57.166666666666664</ele><time>2026-04-06T08:46:52Z</time></trkpt><trkpt lat="38.88667825681538" lon="8.848518212321956"><ele>58.0</ele><time>2026-04-06T08:46:54Z</time></trkpt><trkpt lat="38.88665549387587" lon="8.848429651943945"><ele>60.33333333333333</ele><time>2026-04-06T08:46:56Z</time></trkpt><trkpt lat="38.886642913140285" lon="8.848343516373745"><ele>62.666666666666664</ele><time>2026-04-06T08:46:58Z</time></trkpt><trkpt lat="38.88662198036963" lon="8.848260613985344"><ele>65.0</ele><time>2026-04-06T08:47:00Z</time></trkpt><trkpt lat="38.88661265276211" lon="8.848145599752055"><ele>67.33333333333333</ele><time>2026-04-06T08:47:03Z</time></trkpt><trkpt lat="38.88661046446774" lon="8.84806299280108"><ele>69.66666666666667</ele><time>2026-04-06T08:47:05Z</time></trkpt><trkpt lat="38.88661143629501" lon="8.847944230658104"><ele>72.0</ele><time>2026-04-06T08:47:08Z</time></trkpt><trkpt lat="38.88660851315108" lon="8.84783308197393"><ele>72.00000000000001</ele><time>2026-04-06T08:47:11Z</time></trkpt><trkpt lat="38.88661552840371" lon="8.847745915526026"><ele>72.0</ele><time>2026-04-06T08:47:13Z</time></trkpt><trkpt lat="38.88661979411563" lon="8.847641079544788"><ele>72.0</ele><time>2026-04-06T08:47:16Z</time></trkpt><trkpt lat="38.886635221396574" lon="8.847561569584538"><ele>72.0</ele><time>2026-04-06T08:47:18Z</time></trkpt><trkpt lat="38.88665945193526" lon="8.84748096086945"><ele>72.0</ele><time>2026-04-06T08:47:20Z</time></trkpt><trkpt lat="38.88668017735421" lon="8.847386109018839"><ele>72.00000000000001</ele><time>2026-04-06T08:47:22Z</time></trkpt><trkpt lat="38.88670451792355" lon="8.847282244639608"><ele>72.0</ele><time>2026-04-06T08:47:24Z</time></trkpt><trkpt lat="38.88671174958855" lon="8.847182422272464"><ele>72.42857142857143</ele><time>2026-04-06T08:47:26Z</time></trkpt><trkpt lat="38.88669864909501" lon="8.847082185407668"><ele>72.85714285714286</ele><time>2026-04-06T08:47:28Z</time></trkpt><trkpt lat="38.886663427944455" lon="8.847002984084549"><ele>73.28571428571428</ele><time>2026-04-06T08:47:30Z</time></trkpt><trkpt lat="38.886621961889674" lon="8.846924786703953"><ele>73.71428571428572</ele><time>2026-04-06T08:47:32Z</time></trkpt><trkpt lat="38.886575196954475" lon="8.846850012385895"><ele>74.14285714285714</ele><time>2026-04-06T08:47:34Z</time></trkpt><trkpt lat="38.88652680120298" lon="8.846784408752443"><ele>74.57142857142857</ele><time>2026-04-06T08:47:36Z</time></trkpt><trkpt lat="38.886467204014686" lon="8.846725832103381"><ele>75.0</ele><time>2026-04-06T08:47:38Z</time></trkpt><trkpt lat="38.88640036433755" lon="8.846683836671762"><ele>75.42857142857142</ele><time>2026-04-06T08:47:40Z</time></trkpt><trkpt lat="38.88632608992158" lon="8.846671963586006"><ele>75.85714285714286</ele><time>2026-04-06T08:47:42Z</time></trkpt><trkpt lat="38.88626557741051" lon="8.846629585723056"><ele>76.28571428571428</ele><time>2026-04-06T08:47:44Z</time></trkpt><trkpt lat="38.88619891275597" lon="8.846606923591867"><ele>76.71428571428571</ele><time>2026-04-06T08:47:46Z</time></trkpt><trkpt lat="38.88612788292756" lon="8.846562390099903"><ele>77.14285714285714</ele><time>2026-04-06T08:47:49Z</time></trkpt><trkpt lat="38.886071246112806" lon="8.846494422097917"><ele>77.57142857142857</ele><time>2026-04-06T08:47:52Z</time></trkpt><trkpt lat="38.886032272009956" lon="8.846406673166955"><ele>78.0</ele><time>2026-04-06T08:47:55Z</time></trkpt><trkpt lat="38.88598881279083" lon="8.846319709680627"><ele>78.0</ele><time>2026-04-06T08:47:58Z</time></trkpt><trkpt lat="38.88596224989832" lon="8.846215072101328"><ele>78.0</ele><time>2026-04-06T08:48:01Z</time></trkpt><trkpt lat="38.8859194041857" lon="8.846113106623381"><ele>78.0</ele><time>2026-04-06T08:48:04Z</time></trkpt><trkpt lat="38.885869100379246" lon="8.846014352458994"><ele>78.0</ele><time>2026-04-06T08:48:07Z</time></trkpt><trkpt lat="38.885837587612215" lon="8.845921954151931"><ele>78.0</ele><time>2026-04-06T08:48:10Z</time></trkpt><trkpt lat="38.88582468276724" lon="8.84583861569724"><ele>78.0</ele><time>2026-04-06T08:48:13Z</time></trkpt><trkpt lat="38.88582615212525" lon="8.845738203936666"><ele>79.42857142857143</ele><time>2026-04-06T08:48:16Z</time></trkpt><trkpt lat="38.88581586138298" lon="8.845656311424317"><ele>80.85714285714285</ele><time>2026-04-06T08:48:18Z</time></trkpt><trkpt lat="38.88582333859686" lon="8.845563852151011"><ele>82.28571428571428</ele><time>2026-04-06T08:48:20Z</time></trkpt><trkpt lat="38.88584258510897" lon="8.845481573317993"><ele>83.71428571428572</ele><time>2026-04-06T08:48:24Z</time></trkpt><trkpt lat="38.8858438307087" lon="8.845388882351928"><ele>85.14285714285714</ele><time>2026-04-06T08:48:27Z</time></trkpt><trkpt lat="38.88585186232904" lon="8.845285009539912"><ele>86.57142857142857</ele><time>2026-04-06T08:48:30Z</time></trkpt><trkpt lat="38.88586023996816" lon="8.845168614863795"><ele>88.0</ele><time>2026-04-06T08:48:33Z</time></trkpt><trkpt lat="38.885886811088426" lon="8.845059118635616"><ele>86.83333333333333</ele><time>2026-04-06T08:48:36Z</time></trkpt><trkpt lat="38.88593776174023" lon="8.844974502396624"><ele>85.66666666666666</ele><time>2026-04-06T08:48:39Z</time></trkpt><trkpt lat="38.88598239242995" lon="8.844886983572932"><ele>84.5</ele><time>2026-04-06T08:48:42Z</time></trkpt><trkpt lat="38.88604636667604" lon="8.844814874607316"><ele>83.33333333333333</ele><time>2026-04-06T08:48:45Z</time></trkpt><trkpt lat="38.88610294936104" lon="8.844741478599518"><ele>82.16666666666667</ele><time>2026-04-06T08:48:48Z</time></trkpt><trkpt lat="38.88615478430372" lon="8.84465419250612"><ele>81.0</ele><time>2026-04-06T08:48:51Z</time></trkpt><trkpt lat="38.88620157114513" lon="8.844561960979359"><ele>81.0</ele><time>2026-04-06T08:48:54Z</time></trkpt><trkpt lat="38.88624750702935" lon="8.84446595905488"><ele>81.0</ele><time>2026-04-06T08:48:57Z</time></trkpt><trkpt lat="38.88629010107231" lon="8.844371772168492"><ele>81.0</ele><time>2026-04-06T08:49:00Z</time></trkpt><trkpt lat="38.88632679162316" lon="8.844277758900343"><ele>81.0</ele><time>2026-04-06T08:49:03Z</time></trkpt><trkpt lat="38.88635849676217" lon="8.844181996344572"><ele>81.0</ele><time>2026-04-06T08:49:06Z</time></trkpt><trkpt lat="38.886401881522644" lon="8.844099627852959"><ele>81.0</ele><time>2026-04-06T08:49:09Z</time></trkpt><trkpt lat="38.88643633239627" lon="8.844019436681714"><ele>82.83333333333333</ele><time>2026-04-06T08:49:12Z</time></trkpt><trkpt lat="38.88647702962889" lon="8.84392890273907"><ele>84.66666666666667</ele><time>2026-04-06T08:49:15Z</time></trkpt><trkpt lat="38.88650988772044" lon="8.843829585752424"><ele>86.5</ele><time>2026-04-06T08:49:18Z</time></trkpt><trkpt lat="38.88654781384214" lon="8.843737889645855"><ele>88.33333333333334</ele><time>2026-04-06T08:49:21Z</time></trkpt><trkpt lat="38.88659216637872" lon="8.843645979385661"><ele>90.16666666666667</ele><time>2026-04-06T08:49:24Z</time></trkpt><trkpt lat="38.886627002634306" lon="8.843550572365062"><ele>92.0</ele><time>2026-04-06T08:49:27Z</time></trkpt><trkpt lat="38.88666479986918" lon="8.843451480205227"><ele>91.0</ele><time>2026-04-06T08:49:30Z</time></trkpt><trkpt lat="38.88670845067531" lon="8.843363128663292"><ele>90.0</ele><time>2026-04-06T08:49:33Z</time></trkpt><trkpt lat="38.886749311546374" lon="8.843283359369364"><ele>89.0</ele><time>2026-04-06T08:49:36Z</time></trkpt><trkpt lat="38.88680408456211" lon="8.843199360429637"><ele>88.0</ele><time>2026-04-06T08:49:39Z</time></trkpt><trkpt lat="38.88685514459635" lon="8.843123964406619"><ele>87.0</ele><time>2026-04-06T08:49:42Z</time></trkpt><trkpt lat="38.88688879097401" lon="8.843035548325911"><ele>86.0</ele><time>2026-04-06T08:49:45Z</time></trkpt><trkpt lat="38.88693045396916" lon="8.842947015900164"><ele>86.0</ele><time>2026-04-06T08:49:48Z</time></trkpt><trkpt lat="38.88696927449104" lon="8.842853238526708"><ele>86.0</ele><time>2026-04-06T08:49:51Z</time></trkpt><trkpt lat="38.886972693164076" lon="8.84274705100879"><ele>86.0</ele><time>2026-04-06T08:49:54Z</time></trkpt><trkpt lat="38.88695699551145" lon="8.842643280703419"><ele>86.0</ele><time>2026-04-06T08:49:57Z</time></trkpt><trkpt lat="38.88694413612871" lon="8.842550236631773"><ele>86.0</ele><time>2026-04-06T08:50:01Z</time></trkpt><trkpt lat="38.886952516287536" lon="8.842463497247644"><ele>86.0</ele><time>2026-04-06T08:50:05Z</time></trkpt><trkpt lat="38.88694247796775" lon="8.8423779678086"><ele>88.8</ele><time>2026-04-06T08:50:08Z</time></trkpt><trkpt lat="38.886951575559394" lon="8.842280994126035"><ele>91.6</ele><time>2026-04-06T08:50:12Z</time></trkpt><trkpt lat="38.88712738445232" lon="8.842220207369838"><ele>94.4</ele><time>2026-04-06T08:50:13Z</time></trkpt><trkpt lat="38.88717800652542" lon="8.842123000705616"><ele>97.2</ele><time>2026-04-06T08:50:15Z</time></trkpt><trkpt lat="38.887213664931586" lon="8.842039726822117"><ele>100.0</ele><time>2026-04-06T08:50:17Z</time></trkpt><trkpt lat="38.88726488071752" lon="8.841925786256372"><ele>100.6</ele><time>2026-04-06T08:50:19Z</time></trkpt><trkpt lat="38.88732624045181" lon="8.84179520425421"><ele>101.2</ele><time>2026-04-06T08:50:21Z</time></trkpt><trkpt lat="38.88738938359769" lon="8.841673821084363"><ele>101.80000000000001</ele><time>2026-04-06T08:50:23Z</time></trkpt><trkpt lat="38.88744540002662" lon="8.841557001847333"><ele>102.4</ele><time>2026-04-06T08:50:25Z</time></trkpt><trkpt lat="38.88747981349054" lon="8.841436726274377"><ele>103.0</ele><time>2026-04-06T08:50:27Z</time></trkpt><trkpt lat="38.88748766735316" lon="8.841313170087979"><ele>103.00000000000001</ele><time>2026-04-06T08:50:29Z</time></trkpt><trkpt lat="38.887464960406746" lon="8.841216550381287"><ele>103.0</ele><time>2026-04-06T08:50:31Z</time></trkpt><trkpt lat="38.88745089851291" lon="8.841129165910218"><ele>103.0</ele><time>2026-04-06T08:50:33Z</time></trkpt><trkpt lat="38.88747398072017" lon="8.841039874944446"><ele>103.0</ele><time>2026-04-06T08:50:36Z</time></trkpt><trkpt lat="38.887523764560115" lon="8.84095246388774"><ele>103.00000000000001</ele><time>2026-04-06T08:50:39Z</time></trkpt><trkpt lat="38.887570953815896" lon="8.840879957278615"><ele>103.0</ele><time>2026-04-06T08:50:42Z</time></trkpt><trkpt lat="38.88764337168159" lon="8.840841979942168"><ele>101.50000000000001</ele><time>2026-04-06T08:50:45Z</time></trkpt><trkpt lat="38.88771338018891" lon="8.840812930498563"><ele>100.0</ele><time>2026-04-06T08:51:15Z</time></trkpt><trkpt lat="38.88777171755178" lon="8.840758682497274"><ele>98.5</ele><time>2026-04-06T08:51:17Z</time></trkpt><trkpt lat="38.88780619304158" lon="8.840667781720919"><ele>97.0</ele><time>2026-04-06T08:51:19Z</time></trkpt><trkpt lat="38.88783742535821" lon="8.840562062754882"><ele>95.5</ele><time>2026-04-06T08:51:22Z</time></trkpt><trkpt lat="38.88785682069895" lon="8.840483722900327"><ele>94.0</ele><time>2026-04-06T08:51:24Z</time></trkpt><trkpt lat="38.88786006283522" lon="8.84038817480307"><ele>94.0</ele><time>2026-04-06T08:51:26Z</time></trkpt><trkpt lat="38.887848559352356" lon="8.84028580591211"><ele>94.0</ele><time>2026-04-06T08:51:28Z</time></trkpt><trkpt lat="38.887886629704845" lon="8.840202559824792"><ele>94.0</ele><time>2026-04-06T08:51:30Z</time></trkpt><trkpt lat="38.887949722465386" lon="8.84015312126661"><ele>94.0</ele><time>2026-04-06T08:51:32Z</time></trkpt><trkpt lat="38.88802375771587" lon="8.840086612793188"><ele>94.0</ele><time>2026-04-06T08:51:35Z</time></trkpt><trkpt lat="38.888077218379216" lon="8.839968394108597"><ele>94.0</ele><time>2026-04-06T08:51:37Z</time></trkpt><trkpt lat="38.88813403537397" lon="8.839854923261628"><ele>94.5</ele><time>2026-04-06T08:51:39Z</time></trkpt><trkpt lat="38.88816507959695" lon="8.83977399657542"><ele>95.0</ele><time>2026-04-06T08:51:41Z</time></trkpt><trkpt lat="38.88819586556618" lon="8.839680185280391"><ele>95.5</ele><time>2026-04-06T08:51:44Z</time></trkpt><trkpt lat="38.88820760041619" lon="8.83957449129493"><ele>96.0</ele><time>2026-04-06T08:51:47Z</time></trkpt><trkpt lat="38.88822174862425" lon="8.839473626929049"><ele>96.50000000000001</ele><time>2026-04-06T08:51:50Z</time></trkpt><trkpt lat="38.88825056533982" lon="8.839369819525032"><ele>97.0</ele><time>2026-04-06T08:51:53Z</time></trkpt><trkpt lat="38.88827313198531" lon="8.839269114971996"><ele>98.16666666666667</ele><time>2026-04-06T08:51:56Z</time></trkpt><trkpt lat="38.88829783186911" lon="8.839174887796657"><ele>99.33333333333334</ele><time>2026-04-06T08:51:59Z</time></trkpt><trkpt lat="38.8883358793567" lon="8.839093761778491"><ele>100.5</ele><time>2026-04-06T08:52:02Z</time></trkpt><trkpt lat="38.88836587756672" lon="8.839002216754468"><ele>101.66666666666666</ele><time>2026-04-06T08:52:05Z</time></trkpt><trkpt lat="38.88836608745223" lon="8.838903657009634"><ele>102.83333333333333</ele><time>2026-04-06T08:52:08Z</time></trkpt><trkpt lat="38.88836566457657" lon="8.838810206516818"><ele>104.0</ele><time>2026-04-06T08:52:11Z</time></trkpt><trkpt lat="38.888365904989584" lon="8.838713555743295"><ele>104.0</ele><time>2026-04-06T08:52:14Z</time></trkpt><trkpt lat="38.88835101739678" lon="8.838615057135357"><ele>104.0</ele><time>2026-04-06T08:52:17Z</time></trkpt><trkpt lat="38.888330150448915" lon="8.838531443221093"><ele>104.0</ele><time>2026-04-06T08:52:20Z</time></trkpt><trkpt lat="38.888313497258046" lon="8.838435152404644"><ele>104.0</ele><time>2026-04-06T08:52:24Z</time></trkpt><trkpt lat="38.888360500183346" lon="8.838378800456741"><ele>104.0</ele><time>2026-04-06T08:52:29Z</time></trkpt><trkpt lat="38.888417110648945" lon="8.838420774613015"><ele>104.0</ele><time>2026-04-06T08:52:32Z</time></trkpt><trkpt lat="38.888495019954696" lon="8.83845077933492"><ele>104.0</ele><time>2026-04-06T08:52:36Z</time></trkpt><trkpt lat="38.88856587519313" lon="8.838461418316909"><ele>103.6</ele><time>2026-04-06T08:52:40Z</time></trkpt><trkpt lat="38.888631143070896" lon="8.838461678224151"><ele>103.2</ele><time>2026-04-06T08:53:01Z</time></trkpt><trkpt lat="38.88874724806421" lon="8.838483400876047"><ele>102.8</ele><time>2026-04-06T08:53:04Z</time></trkpt><trkpt lat="38.88884196338023" lon="8.838506114700339"><ele>102.39999999999999</ele><time>2026-04-06T08:53:06Z</time></trkpt><trkpt lat="38.888929505874195" lon="8.83854219160113"><ele>102.0</ele><time>2026-04-06T08:53:08Z</time></trkpt><trkpt lat="38.88901593756091" lon="8.838554409163445"><ele>101.14285714285714</ele><time>2026-04-06T08:53:11Z</time></trkpt><trkpt lat="38.889088425605806" lon="8.838578580769815"><ele>100.28571428571429</ele><time>2026-04-06T08:53:15Z</time></trkpt><trkpt lat="38.88915029345362" lon="8.83859590276119"><ele>99.42857142857142</ele><time>2026-04-06T08:53:20Z</time></trkpt><trkpt lat="38.889212804275736" lon="8.838615110716285"><ele>98.57142857142857</ele><time>2026-04-06T08:53:43Z</time></trkpt><trkpt lat="38.88927295648557" lon="8.838655733260627"><ele>97.71428571428571</ele><time>2026-04-06T08:53:50Z</time></trkpt><trkpt lat="38.88933895508195" lon="8.838663732245132"><ele>96.85714285714285</ele><time>2026-04-06T08:53:58Z</time></trkpt><trkpt lat="38.889403224327836" lon="8.838677417689642"><ele>96.0</ele><time>2026-04-06T08:54:03Z</time></trkpt><trkpt lat="38.889478565754395" lon="8.838712735471834"><ele>94.16666666666667</ele><time>2026-04-06T08:54:27Z</time></trkpt><trkpt lat="38.889522998119794" lon="8.838772160997966"><ele>92.33333333333333</ele><time>2026-04-06T08:54:29Z</time></trkpt><trkpt lat="38.88960166542582" lon="8.838779736756303"><ele>90.5</ele><time>2026-04-06T08:54:32Z</time></trkpt><trkpt lat="38.88967772104219" lon="8.838834668938247"><ele>88.66666666666666</ele><time>2026-04-06T08:54:34Z</time></trkpt><trkpt lat="38.889760015775536" lon="8.838907090345062"><ele>86.83333333333333</ele><time>2026-04-06T08:54:36Z</time></trkpt><trkpt lat="38.889827585424584" lon="8.838975502538528"><ele>85.0</ele><time>2026-04-06T08:54:38Z</time></trkpt><trkpt lat="38.88989472064356" lon="8.838987508099093"><ele>85.0</ele><time>2026-04-06T08:54:41Z</time></trkpt><trkpt lat="38.88997371736141" lon="8.838993451436044"><ele>85.0</ele><time>2026-04-06T08:54:43Z</time></trkpt><trkpt lat="38.890089249637796" lon="8.839002658200954"><ele>85.0</ele><time>2026-04-06T08:54:45Z</time></trkpt><trkpt lat="38.890209890806375" lon="8.838990845294756"><ele>85.0</ele><time>2026-04-06T08:54:47Z</time></trkpt><trkpt lat="38.89030649373654" lon="8.838981701098497"><ele>85.0</ele><time>2026-04-06T08:54:49Z</time></trkpt><trkpt lat="38.89042807410767" lon="8.838942549866724"><ele>83.0</ele><time>2026-04-06T08:54:51Z</time></trkpt><trkpt lat="38.89049342177151" lon="8.838918261093346"><ele>81.0</ele><time>2026-04-06T08:54:52Z</time></trkpt><trkpt lat="38.890560034945366" lon="8.838896717704927"><ele>79.0</ele><time>2026-04-06T08:54:53Z</time></trkpt><trkpt lat="38.890678130105684" lon="8.838852770618548"><ele>77.0</ele><time>2026-04-06T08:54:55Z</time></trkpt><trkpt lat="38.89079101534461" lon="8.838788295578574"><ele>75.0</ele><time>2026-04-06T08:54:57Z</time></trkpt><trkpt lat="38.89087463067914" lon="8.838738362736967"><ele>73.85714285714285</ele><time>2026-04-06T08:54:59Z</time></trkpt><trkpt lat="38.89095470213568" lon="8.838702577850238"><ele>72.71428571428571</ele><time>2026-04-06T08:55:01Z</time></trkpt><trkpt lat="38.891026386306045" lon="8.838688832571725"><ele>71.57142857142857</ele><time>2026-04-06T08:55:03Z</time></trkpt><trkpt lat="38.89109939664556" lon="8.838670256943725"><ele>70.42857142857142</ele><time>2026-04-06T08:55:05Z</time></trkpt><trkpt lat="38.89116784256253" lon="8.838648007469567"><ele>69.28571428571428</ele><time>2026-04-06T08:55:07Z</time></trkpt><trkpt lat="38.89123317719492" lon="8.838648779814061"><ele>68.14285714285714</ele><time>2026-04-06T08:55:09Z</time></trkpt><trkpt lat="38.891309513321296" lon="8.838637831358799"><ele>67.0</ele><time>2026-04-06T08:55:11Z</time></trkpt><trkpt lat="38.89139537121335" lon="8.838622672518209"><ele>67.0</ele><time>2026-04-06T08:55:13Z</time></trkpt><trkpt lat="38.89146980054607" lon="8.838577220254612"><ele>67.0</ele><time>2026-04-06T08:55:15Z</time></trkpt><trkpt lat="38.891552291825974" lon="8.838520231055561"><ele>67.0</ele><time>2026-04-06T08:55:17Z</time></trkpt><trkpt lat="38.89163766925326" lon="8.83846597720482"><ele>67.0</ele><time>2026-04-06T08:55:19Z</time></trkpt><trkpt lat="38.89172275813129" lon="8.838417892450895"><ele>67.0</ele><time>2026-04-06T08:55:21Z</time></trkpt><trkpt lat="38.891776336242636" lon="8.838367818193168"><ele>67.0</ele><time>2026-04-06T08:55:26Z</time></trkpt><trkpt lat="38.891825167233144" lon="8.838316754309563"><ele>68.33333333333333</ele><time>2026-04-06T08:55:29Z</time></trkpt><trkpt lat="38.89188427535166" lon="8.838263614397512"><ele>69.66666666666666</ele><time>2026-04-06T08:55:32Z</time></trkpt><trkpt lat="38.89196068412931" lon="8.838193107029827"><ele>71.0</ele><time>2026-04-06T08:55:35Z</time></trkpt><trkpt lat="38.892038043340506" lon="8.83813319978945"><ele>72.33333333333333</ele><time>2026-04-06T08:55:38Z</time></trkpt><trkpt lat="38.8921046204508" lon="8.8380754245418"><ele>73.66666666666667</ele><time>2026-04-06T08:55:41Z</time></trkpt><trkpt lat="38.892161297705144" lon="8.838036397185293"><ele>75.0</ele><time>2026-04-06T08:55:45Z</time></trkpt><trkpt lat="38.89221875610856" lon="8.837996446747315"><ele>74.99999999999999</ele><time>2026-04-06T08:55:50Z</time></trkpt><trkpt lat="38.89227495979042" lon="8.83794820193694"><ele>75.0</ele><time>2026-04-06T08:55:53Z</time></trkpt><trkpt lat="38.892336313585915" lon="8.837903208605683"><ele>75.0</ele><time>2026-04-06T08:55:58Z</time></trkpt><trkpt lat="38.89239834154752" lon="8.83785280016336"><ele>75.0</ele><time>2026-04-06T08:56:02Z</time></trkpt><trkpt lat="38.89245690678299" lon="8.837785323346575"><ele>75.0</ele><time>2026-04-06T08:56:06Z</time></trkpt><trkpt lat="38.89250949693616" lon="8.837702569826499"><ele>74.99999999999999</ele><time>2026-04-06T08:56:09Z</time></trkpt><trkpt lat="38.89257739919225" lon="8.837685398781895"><ele>75.0</ele><time>2026-04-06T08:56:12Z</time></trkpt><trkpt lat="38.89265429627519" lon="8.837689068907094"><ele>73.83333333333333</ele><time>2026-04-06T08:56:15Z</time></trkpt><trkpt lat="38.89270537514053" lon="8.83774103150439"><ele>72.66666666666667</ele><time>2026-04-06T08:56:19Z</time></trkpt><trkpt lat="38.892832007715825" lon="8.837664518709058"><ele>71.5</ele><time>2026-04-06T08:56:20Z</time></trkpt><trkpt lat="38.89287780797585" lon="8.837752804930826"><ele>70.33333333333334</ele><time>2026-04-06T08:56:23Z</time></trkpt><trkpt lat="38.89291679152446" lon="8.83782825118275"><ele>69.16666666666667</ele><time>2026-04-06T08:56:25Z</time></trkpt><trkpt lat="38.892952927021035" lon="8.837899983929605"><ele>68.0</ele><time>2026-04-06T08:56:27Z</time></trkpt><trkpt lat="38.89299795981106" lon="8.837992737934576"><ele>68.0</ele><time>2026-04-06T08:56:29Z</time></trkpt><trkpt lat="38.893030239450574" lon="8.838084224321985"><ele>68.0</ele><time>2026-04-06T08:56:31Z</time></trkpt><trkpt lat="38.89306269473053" lon="8.838190458098998"><ele>68.0</ele><time>2026-04-06T08:56:33Z</time></trkpt><trkpt lat="38.893084972677286" lon="8.838331578915467"><ele>68.0</ele><time>2026-04-06T08:56:35Z</time></trkpt><trkpt lat="38.8931011262944" lon="8.838464312433732"><ele>68.0</ele><time>2026-04-06T08:56:37Z</time></trkpt><trkpt lat="38.89309107071624" lon="8.838380482834639"><ele>68.0</ele><time>2026-04-06T09:02:45Z</time></trkpt><trkpt lat="38.893077936986224" lon="8.838283980581119"><ele>68.0</ele><time>2026-04-06T09:02:49Z</time></trkpt><trkpt lat="38.8930642829669" lon="8.838201793381462"><ele>68.0</ele><time>2026-04-06T09:02:52Z</time></trkpt><trkpt lat="38.89302757811985" lon="8.838076765741457"><ele>68.0</ele><time>2026-04-06T09:02:55Z</time></trkpt><trkpt lat="38.89299392866354" lon="8.837981312899402"><ele>68.0</ele><time>2026-04-06T09:02:58Z</time></trkpt><trkpt lat="38.89295962867675" lon="8.837908353376175"><ele>68.0</ele><time>2026-04-06T09:03:00Z</time></trkpt><trkpt lat="38.89292417720314" lon="8.837840007810719"><ele>68.0</ele><time>2026-04-06T09:03:02Z</time></trkpt><trkpt lat="38.89288181058757" lon="8.83776055100297"><ele>68.0</ele><time>2026-04-06T09:03:05Z</time></trkpt><trkpt lat="38.8928357214161" lon="8.837671648807493"><ele>68.0</ele><time>2026-04-06T09:03:08Z</time></trkpt><trkpt lat="38.89279738661217" lon="8.837598046097051"><ele>68.0</ele><time>2026-04-06T09:03:11Z</time></trkpt><trkpt lat="38.8927609382814" lon="8.837528065084216"><ele>68.0</ele><time>2026-04-06T09:03:14Z</time></trkpt><trkpt lat="38.892496773764364" lon="8.83772402089677"><ele>68.99999999999999</ele><time>2026-04-06T09:03:17Z</time></trkpt><trkpt lat="38.89243108137145" lon="8.837778733016862"><ele>70.0</ele><time>2026-04-06T09:03:20Z</time></trkpt><trkpt lat="38.89238378812818" lon="8.837835961580248"><ele>71.0</ele><time>2026-04-06T09:03:23Z</time></trkpt><trkpt lat="38.89232748886578" lon="8.83790443292041"><ele>72.0</ele><time>2026-04-06T09:03:26Z</time></trkpt><trkpt lat="38.89225910175368" lon="8.837942284235254"><ele>73.0</ele><time>2026-04-06T09:03:30Z</time></trkpt><trkpt lat="38.892191971002156" lon="8.837993285300415"><ele>73.99999999999999</ele><time>2026-04-06T09:04:40Z</time></trkpt><trkpt lat="38.89212915922293" lon="8.838030526442978"><ele>75.0</ele><time>2026-04-06T09:04:43Z</time></trkpt><trkpt lat="38.89207554639199" lon="8.838078936789433"><ele>75.0</ele><time>2026-04-06T09:04:46Z</time></trkpt><trkpt lat="38.892010101023985" lon="8.838133122398375"><ele>75.0</ele><time>2026-04-06T09:04:49Z</time></trkpt><trkpt lat="38.891920173127325" lon="8.838202205532085"><ele>75.0</ele><time>2026-04-06T09:04:51Z</time></trkpt><trkpt lat="38.89186458253078" lon="8.838257393717855"><ele>75.0</ele><time>2026-04-06T09:04:52Z</time></trkpt><trkpt lat="38.89181851709126" lon="8.838312657357001"><ele>75.0</ele><time>2026-04-06T09:04:53Z</time></trkpt><trkpt lat="38.89175310436229" lon="8.838363036419175"><ele>75.0</ele><time>2026-04-06T09:04:55Z</time></trkpt><trkpt lat="38.89167857782763" lon="8.838416140822005"><ele>73.66666666666667</ele><time>2026-04-06T09:04:58Z</time></trkpt><trkpt lat="38.89162704764132" lon="8.838473227674498"><ele>72.33333333333333</ele><time>2026-04-06T09:05:00Z</time></trkpt><trkpt lat="38.89154796890157" lon="8.838503834622287"><ele>71.0</ele><time>2026-04-06T09:05:03Z</time></trkpt><trkpt lat="38.89147497821342" lon="8.838561538129527"><ele>69.66666666666666</ele><time>2026-04-06T09:05:06Z</time></trkpt><trkpt lat="38.89140577462669" lon="8.838610619491085"><ele>68.33333333333333</ele><time>2026-04-06T09:05:09Z</time></trkpt><trkpt lat="38.891333653025136" lon="8.83863316458752"><ele>67.0</ele><time>2026-04-06T09:05:12Z</time></trkpt><trkpt lat="38.89125336413756" lon="8.838650672055032"><ele>67.0</ele><time>2026-04-06T09:05:15Z</time></trkpt><trkpt lat="38.891182648958136" lon="8.838665277640013"><ele>67.0</ele><time>2026-04-06T09:05:18Z</time></trkpt><trkpt lat="38.891118485911036" lon="8.838665662778805"><ele>67.0</ele><time>2026-04-06T09:05:22Z</time></trkpt><trkpt lat="38.891186699633955" lon="8.838646346560182"><ele>67.0</ele><time>2026-04-06T09:05:40Z</time></trkpt><trkpt lat="38.89112767248277" lon="8.838674714730887"><ele>67.0</ele><time>2026-04-06T09:06:09Z</time></trkpt><trkpt lat="38.891053669633294" lon="8.83869287825502"><ele>67.0</ele><time>2026-04-06T09:06:41Z</time></trkpt><trkpt lat="38.8909909022052" lon="8.838709678046875"><ele>67.0</ele><time>2026-04-06T09:06:43Z</time></trkpt><trkpt lat="38.890924583873066" lon="8.838729992796953"><ele>68.33333333333333</ele><time>2026-04-06T09:06:45Z</time></trkpt><trkpt lat="38.890838480805854" lon="8.838747125888927"><ele>69.66666666666666</ele><time>2026-04-06T09:06:48Z</time></trkpt><trkpt lat="38.89075170481699" lon="8.838796852990637"><ele>71.0</ele><time>2026-04-06T09:06:51Z</time></trkpt><trkpt lat="38.890693751377604" lon="8.838829751915647"><ele>72.33333333333333</ele><time>2026-04-06T09:06:53Z</time></trkpt><trkpt lat="38.89061638269261" lon="8.838868446234457"><ele>73.66666666666667</ele><time>2026-04-06T09:06:56Z</time></trkpt><trkpt lat="38.890542346904304" lon="8.83890708360622"><ele>75.0</ele><time>2026-04-06T09:06:59Z</time></trkpt><trkpt lat="38.89045421723577" lon="8.838935997652234"><ele>75.0</ele><time>2026-04-06T09:07:02Z</time></trkpt><trkpt lat="38.890366669847246" lon="8.838960575424142"><ele>75.0</ele><time>2026-04-06T09:07:05Z</time></trkpt><trkpt lat="38.890282045121296" lon="8.838980828362503"><ele>75.0</ele><time>2026-04-06T09:07:08Z</time></trkpt><trkpt lat="38.89019721606249" lon="8.838988844555791"><ele>75.0</ele><time>2026-04-06T09:07:11Z</time></trkpt><trkpt lat="38.89011495514695" lon="8.838994541202085"><ele>75.0</ele><time>2026-04-06T09:07:14Z</time></trkpt><trkpt lat="38.89003085313319" lon="8.838998162304655"><ele>75.0</ele><time>2026-04-06T09:07:17Z</time></trkpt><trkpt lat="38.889941492935066" lon="8.838996103333988"><ele>76.66666666666667</ele><time>2026-04-06T09:07:20Z</time></trkpt><trkpt lat="38.88985678818673" lon="8.8389881711633"><ele>78.33333333333333</ele><time>2026-04-06T09:07:23Z</time></trkpt><trkpt lat="38.88978444994894" lon="8.838944334852668"><ele>80.0</ele><time>2026-04-06T09:07:26Z</time></trkpt><trkpt lat="38.88972082249065" lon="8.838899519548631"><ele>81.66666666666666</ele><time>2026-04-06T09:07:29Z</time></trkpt><trkpt lat="38.88966548474286" lon="8.83882094964694"><ele>83.33333333333333</ele><time>2026-04-06T09:07:33Z</time></trkpt><trkpt lat="38.88959378730907" lon="8.838785155103862"><ele>85.0</ele><time>2026-04-06T09:07:37Z</time></trkpt><trkpt lat="38.88951523590131" lon="8.838763901813921"><ele>85.0</ele><time>2026-04-06T09:07:41Z</time></trkpt><trkpt lat="38.88943805904301" lon="8.838742008140342"><ele>85.0</ele><time>2026-04-06T09:08:28Z</time></trkpt><trkpt lat="38.88937501031779" lon="8.83871048592082"><ele>85.0</ele><time>2026-04-06T09:08:52Z</time></trkpt><trkpt lat="38.88482779961272" lon="8.84023729091308"><ele>82.0</ele><time>2026-04-06T09:26:22Z</time></trkpt><trkpt lat="38.884915818610565" lon="8.840173845567039"><ele>79.0</ele><time>2026-04-06T09:26:25Z</time></trkpt><trkpt lat="38.88498554302626" lon="8.840119994637194"><ele>76.0</ele><time>2026-04-06T09:26:27Z</time></trkpt><trkpt lat="38.885060150184756" lon="8.840054327331423"><ele>73.0</ele><time>2026-04-06T09:26:29Z</time></trkpt><trkpt lat="38.88512711700755" lon="8.839996174477811"><ele>70.0</ele><time>2026-04-06T09:26:31Z</time></trkpt><trkpt lat="38.88521844751772" lon="8.839922176939597"><ele>69.4</ele><time>2026-04-06T09:26:33Z</time></trkpt><trkpt lat="38.8853470491236" lon="8.839815234193495"><ele>68.8</ele><time>2026-04-06T09:26:39Z</time></trkpt><trkpt lat="38.885411995833" lon="8.839805215477828"><ele>68.2</ele><time>2026-04-06T09:26:42Z</time></trkpt><trkpt lat="38.88547900919502" lon="8.83974856978841"><ele>67.6</ele><time>2026-04-06T09:26:46Z</time></trkpt><trkpt lat="38.88556821457183" lon="8.839726800865703"><ele>67.0</ele><time>2026-04-06T09:26:49Z</time></trkpt><trkpt lat="38.88561763179421" lon="8.839669212108229"><ele>67.0</ele><time>2026-04-06T09:26:51Z</time></trkpt><trkpt lat="38.88569408687705" lon="8.839605345985127"><ele>67.0</ele><time>2026-04-06T09:26:54Z</time></trkpt><trkpt lat="38.885857925797076" lon="8.839610435576123"><ele>67.0</ele><time>2026-04-06T09:27:01Z</time></trkpt><trkpt lat="38.88592284767384" lon="8.839597850743436"><ele>67.0</ele><time>2026-04-06T09:27:13Z</time></trkpt><trkpt lat="38.88598771437773" lon="8.839578183822121"><ele>67.0</ele><time>2026-04-06T09:27:16Z</time></trkpt><trkpt lat="38.88610169131744" lon="8.839494419116587"><ele>68.33333333333333</ele><time>2026-04-06T09:27:22Z</time></trkpt><trkpt lat="38.88617134917408" lon="8.839474457759989"><ele>69.66666666666666</ele><time>2026-04-06T09:27:25Z</time></trkpt><trkpt lat="38.88623871473328" lon="8.839465387085104"><ele>71.0</ele><time>2026-04-06T09:27:28Z</time></trkpt><trkpt lat="38.88631886220791" lon="8.839439030683945"><ele>72.33333333333333</ele><time>2026-04-06T09:27:32Z</time></trkpt><trkpt lat="38.88639149185392" lon="8.83941844701508"><ele>73.66666666666667</ele><time>2026-04-06T09:27:35Z</time></trkpt><trkpt lat="38.88646116507554" lon="8.839401739509384"><ele>75.0</ele><time>2026-04-06T09:27:38Z</time></trkpt><trkpt lat="38.88660731947327" lon="8.83936914212853"><ele>75.0</ele><time>2026-04-06T09:27:45Z</time></trkpt><trkpt lat="38.886673373640605" lon="8.83937426536268"><ele>75.0</ele><time>2026-04-06T09:27:48Z</time></trkpt><trkpt lat="38.88674169754476" lon="8.839350927989633"><ele>75.0</ele><time>2026-04-06T09:27:53Z</time></trkpt><trkpt lat="38.88681285767811" lon="8.839343703822967"><ele>75.0</ele><time>2026-04-06T09:27:57Z</time></trkpt><trkpt lat="38.88689367082386" lon="8.83931632085516"><ele>75.0</ele><time>2026-04-06T09:28:01Z</time></trkpt><trkpt lat="38.88702855600775" lon="8.839302117752402"><ele>75.0</ele><time>2026-04-06T09:28:08Z</time></trkpt><trkpt lat="38.88710104090111" lon="8.83925457761523"><ele>77.16666666666667</ele><time>2026-04-06T09:28:11Z</time></trkpt><trkpt lat="38.887170117889156" lon="8.839251574462104"><ele>79.33333333333333</ele><time>2026-04-06T09:28:14Z</time></trkpt><trkpt lat="38.88725130329935" lon="8.839263427787792"><ele>81.5</ele><time>2026-04-06T09:28:19Z</time></trkpt><trkpt lat="38.88732938092069" lon="8.839267237762016"><ele>83.66666666666666</ele><time>2026-04-06T09:28:22Z</time></trkpt><trkpt lat="38.88743772128214" lon="8.8393777315537"><ele>85.83333333333333</ele><time>2026-04-06T09:28:28Z</time></trkpt><trkpt lat="38.88745114512748" lon="8.839459136239256"><ele>88.0</ele><time>2026-04-06T09:28:31Z</time></trkpt><trkpt lat="38.8874360440596" lon="8.839552686715894"><ele>88.0</ele><time>2026-04-06T09:28:34Z</time></trkpt><trkpt lat="38.88740635594424" lon="8.839647904234859"><ele>88.0</ele><time>2026-04-06T09:28:37Z</time></trkpt><trkpt lat="38.88736904513875" lon="8.839731138231034"><ele>88.0</ele><time>2026-04-06T09:28:40Z</time></trkpt><trkpt lat="38.887326915701" lon="8.83980756536313"><ele>88.0</ele><time>2026-04-06T09:28:43Z</time></trkpt><trkpt lat="38.88722983310627" lon="8.839975929099406"><ele>88.0</ele><time>2026-04-06T09:28:49Z</time></trkpt><trkpt lat="38.88716351380524" lon="8.840025681398533"><ele>88.0</ele><time>2026-04-06T09:28:52Z</time></trkpt><trkpt lat="38.88712557791598" lon="8.840124045523003"><ele>88.0</ele><time>2026-04-06T09:28:55Z</time></trkpt><trkpt lat="38.887096067113546" lon="8.84021942739584"><ele>88.0</ele><time>2026-04-06T09:28:58Z</time></trkpt><trkpt lat="38.88706162708956" lon="8.840319634572317"><ele>88.0</ele><time>2026-04-06T09:29:01Z</time></trkpt><trkpt lat="38.88705131734152" lon="8.840411345282401"><ele>88.0</ele><time>2026-04-06T09:29:03Z</time></trkpt><trkpt lat="38.886995604438404" lon="8.840490986412192"><ele>88.0</ele><time>2026-04-06T09:29:06Z</time></trkpt><trkpt lat="38.886939693165466" lon="8.84065696207422"><ele>89.83333333333333</ele><time>2026-04-06T09:29:12Z</time></trkpt><trkpt lat="38.88695619680681" lon="8.840754646693336"><ele>91.66666666666666</ele><time>2026-04-06T09:29:15Z</time></trkpt><trkpt lat="38.88695956201085" lon="8.840839680631527"><ele>93.5</ele><time>2026-04-06T09:29:18Z</time></trkpt><trkpt lat="38.88697989557648" lon="8.840934869353436"><ele>95.33333333333333</ele><time>2026-04-06T09:29:21Z</time></trkpt><trkpt lat="38.886991649162006" lon="8.841031874379809"><ele>97.16666666666667</ele><time>2026-04-06T09:29:24Z</time></trkpt><trkpt lat="38.88699725601324" lon="8.841130349853081"><ele>99.0</ele><time>2026-04-06T09:29:27Z</time></trkpt><trkpt lat="38.886998065576094" lon="8.841331289972914"><ele>99.66666666666667</ele><time>2026-04-06T09:29:33Z</time></trkpt><trkpt lat="38.8869766356939" lon="8.841419792407217"><ele>100.33333333333334</ele><time>2026-04-06T09:29:36Z</time></trkpt><trkpt lat="38.887026103992824" lon="8.841499186263176"><ele>101.0</ele><time>2026-04-06T09:29:39Z</time></trkpt><trkpt lat="38.88710551950981" lon="8.841483542499292"><ele>101.66666666666667</ele><time>2026-04-06T09:29:42Z</time></trkpt><trkpt lat="38.88716640462184" lon="8.84145397816354"><ele>102.33333333333334</ele><time>2026-04-06T09:29:45Z</time></trkpt><trkpt lat="38.887262422947295" lon="8.841414256610449"><ele>103.0</ele><time>2026-04-06T09:29:49Z</time></trkpt><trkpt lat="38.887375896888535" lon="8.841326233500046"><ele>103.0</ele><time>2026-04-06T09:29:55Z</time></trkpt><trkpt lat="38.887451213009754" lon="8.841320021863233"><ele>103.0</ele><time>2026-04-06T09:29:59Z</time></trkpt><trkpt lat="38.88748116878989" lon="8.841416591395973"><ele>103.0</ele><time>2026-04-06T09:30:04Z</time></trkpt><trkpt lat="38.887456720830905" lon="8.841506559547744"><ele>103.0</ele><time>2026-04-06T09:30:08Z</time></trkpt><trkpt lat="38.887417266224" lon="8.841607993623468"><ele>103.0</ele><time>2026-04-06T09:30:12Z</time></trkpt><trkpt lat="38.88734550272846" lon="8.84176679149245"><ele>102.50000000000001</ele><time>2026-04-06T09:30:18Z</time></trkpt><trkpt lat="38.88730251853956" lon="8.841841797208598"><ele>102.0</ele><time>2026-04-06T09:30:21Z</time></trkpt><trkpt lat="38.88725845073225" lon="8.841933860627233"><ele>101.5</ele><time>2026-04-06T09:30:25Z</time></trkpt><trkpt lat="38.887219225401054" lon="8.841999219472312"><ele>101.0</ele><time>2026-04-06T09:30:28Z</time></trkpt><trkpt lat="38.88718653267879" lon="8.842080808717808"><ele>100.50000000000001</ele><time>2026-04-06T09:30:31Z</time></trkpt><trkpt lat="38.88716793560407" lon="8.842164034353356"><ele>100.0</ele><time>2026-04-06T09:30:34Z</time></trkpt><trkpt lat="38.88706611968601" lon="8.84230190262669"><ele>100.00000000000001</ele><time>2026-04-06T09:30:40Z</time></trkpt><trkpt lat="38.88700163156588" lon="8.8423395368982"><ele>100.0</ele><time>2026-04-06T09:30:43Z</time></trkpt><trkpt lat="38.886947065457306" lon="8.842398636448774"><ele>100.0</ele><time>2026-04-06T09:30:46Z</time></trkpt><trkpt lat="38.88692152793462" lon="8.842491894784217"><ele>100.0</ele><time>2026-04-06T09:30:50Z</time></trkpt><trkpt lat="38.8869387335515" lon="8.842595640333057"><ele>100.00000000000001</ele><time>2026-04-06T09:30:54Z</time></trkpt><trkpt lat="38.88695397760032" lon="8.842691137528064"><ele>100.0</ele><time>2026-04-06T09:30:59Z</time></trkpt><trkpt lat="38.88688672762629" lon="8.843035316966775"><ele>100.66666666666667</ele><time>2026-04-06T09:32:36Z</time></trkpt><trkpt lat="38.886840503898554" lon="8.843116553594514"><ele>101.33333333333334</ele><time>2026-04-06T09:32:37Z</time></trkpt><trkpt lat="38.886804907142135" lon="8.84318907997072"><ele>102.0</ele><time>2026-04-06T09:32:38Z</time></trkpt><trkpt lat="38.88672668173715" lon="8.843296038893508"><ele>102.66666666666666</ele><time>2026-04-06T09:32:40Z</time></trkpt><trkpt lat="38.886687619174396" lon="8.843378862961147"><ele>103.33333333333333</ele><time>2026-04-06T09:32:41Z</time></trkpt><trkpt lat="38.88665377735187" lon="8.843462692443541"><ele>104.0</ele><time>2026-04-06T09:32:42Z</time></trkpt><trkpt lat="38.88662713824917" lon="8.84353608887636"><ele>102.28571428571428</ele><time>2026-04-06T09:32:43Z</time></trkpt><trkpt lat="38.886571242514506" lon="8.843609148708145"><ele>100.57142857142858</ele><time>2026-04-06T09:32:44Z</time></trkpt><trkpt lat="38.88653799546426" lon="8.843683283295205"><ele>98.85714285714286</ele><time>2026-04-06T09:32:45Z</time></trkpt><trkpt lat="38.8865022368441" lon="8.843769328396805"><ele>97.14285714285714</ele><time>2026-04-06T09:32:46Z</time></trkpt><trkpt lat="38.886469774922396" lon="8.843847440720081"><ele>95.42857142857142</ele><time>2026-04-06T09:32:47Z</time></trkpt><trkpt lat="38.88644004545432" lon="8.843918977996653"><ele>93.71428571428572</ele><time>2026-04-06T09:32:48Z</time></trkpt><trkpt lat="38.8864039602409" lon="8.84400609751964"><ele>92.0</ele><time>2026-04-06T09:32:49Z</time></trkpt><trkpt lat="38.88637321972234" lon="8.844081052732914"><ele>92.0</ele><time>2026-04-06T09:32:50Z</time></trkpt><trkpt lat="38.88634358296956" lon="8.844153316595113"><ele>92.0</ele><time>2026-04-06T09:32:51Z</time></trkpt><trkpt lat="38.88629771372358" lon="8.84426516046324"><ele>92.0</ele><time>2026-04-06T09:32:53Z</time></trkpt><trkpt lat="38.886225090772335" lon="8.844435030554116"><ele>92.0</ele><time>2026-04-06T09:33:00Z</time></trkpt><trkpt lat="38.88618835396474" lon="8.844514838629285"><ele>92.0</ele><time>2026-04-06T09:33:03Z</time></trkpt><trkpt lat="38.88614281581934" lon="8.844608338155247"><ele>92.6</ele><time>2026-04-06T09:33:06Z</time></trkpt><trkpt lat="38.886088344753354" lon="8.844704396030146"><ele>93.19999999999999</ele><time>2026-04-06T09:33:08Z</time></trkpt><trkpt lat="38.8860199220387" lon="8.844831577266262"><ele>93.8</ele><time>2026-04-06T09:33:10Z</time></trkpt><trkpt lat="38.885961631823164" lon="8.844897724716882"><ele>94.4</ele><time>2026-04-06T09:33:11Z</time></trkpt><trkpt lat="38.885914660896894" lon="8.844965527630123"><ele>95.0</ele><time>2026-04-06T09:33:12Z</time></trkpt><trkpt lat="38.88585614525437" lon="8.845108662109753"><ele>93.6</ele><time>2026-04-06T09:33:14Z</time></trkpt><trkpt lat="38.88582827300944" lon="8.845379481254202"><ele>92.2</ele><time>2026-04-06T09:33:18Z</time></trkpt><trkpt lat="38.885809095990304" lon="8.845460611154287"><ele>90.80000000000001</ele><time>2026-04-06T09:33:21Z</time></trkpt><trkpt lat="38.88580419792848" lon="8.845543683038112"><ele>89.4</ele><time>2026-04-06T09:33:26Z</time></trkpt><trkpt lat="38.88581523180787" lon="8.845637257594834"><ele>88.0</ele><time>2026-04-06T09:33:32Z</time></trkpt><trkpt lat="38.885811992389826" lon="8.845729956947153"><ele>88.0</ele><time>2026-04-06T09:33:36Z</time></trkpt><trkpt lat="38.88580765653021" lon="8.845923347056067"><ele>88.0</ele><time>2026-04-06T09:33:42Z</time></trkpt><trkpt lat="38.885830294037326" lon="8.846017804339716"><ele>88.0</ele><time>2026-04-06T09:33:44Z</time></trkpt><trkpt lat="38.885883765800905" lon="8.846114621104217"><ele>88.0</ele><time>2026-04-06T09:33:46Z</time></trkpt><trkpt lat="38.88595378878486" lon="8.846233864793286"><ele>88.0</ele><time>2026-04-06T09:33:48Z</time></trkpt><trkpt lat="38.88601586930462" lon="8.846363907201729"><ele>85.5</ele><time>2026-04-06T09:33:50Z</time></trkpt><trkpt lat="38.88603065000645" lon="8.846497994301911"><ele>83.0</ele><time>2026-04-06T09:33:52Z</time></trkpt><trkpt lat="38.88609676071088" lon="8.846586879895762"><ele>80.5</ele><time>2026-04-06T09:33:54Z</time></trkpt><trkpt lat="38.886185598427446" lon="8.8466401792423"><ele>78.0</ele><time>2026-04-06T09:34:14Z</time></trkpt><trkpt lat="38.88640086992651" lon="8.84672512217197"><ele>78.0</ele><time>2026-04-06T09:34:18Z</time></trkpt><trkpt lat="38.88645656577489" lon="8.84676605789718"><ele>78.0</ele><time>2026-04-06T09:34:19Z</time></trkpt><trkpt lat="38.88654386158683" lon="8.84686687914254"><ele>78.0</ele><time>2026-04-06T09:34:21Z</time></trkpt><trkpt lat="38.886617774572564" lon="8.846993279803065"><ele>78.0</ele><time>2026-04-06T09:34:23Z</time></trkpt><trkpt lat="38.886671512098715" lon="8.847108144476755"><ele>78.0</ele><time>2026-04-06T09:34:25Z</time></trkpt><trkpt lat="38.88670251263334" lon="8.84722201321066"><ele>77.4</ele><time>2026-04-06T09:34:27Z</time></trkpt><trkpt lat="38.88667908895317" lon="8.84732227013828"><ele>76.8</ele><time>2026-04-06T09:34:29Z</time></trkpt><trkpt lat="38.88665479931639" lon="8.84741442648142"><ele>76.2</ele><time>2026-04-06T09:34:31Z</time></trkpt><trkpt lat="38.886619721504914" lon="8.847543852953923"><ele>75.6</ele><time>2026-04-06T09:34:33Z</time></trkpt><trkpt lat="38.88660561409252" lon="8.847662500792158"><ele>75.0</ele><time>2026-04-06T09:34:35Z</time></trkpt><trkpt lat="38.88657816936763" lon="8.84793947631083"><ele>74.5</ele><time>2026-04-06T09:34:39Z</time></trkpt><trkpt lat="38.886577135518536" lon="8.848034722613242"><ele>74.0</ele><time>2026-04-06T09:34:40Z</time></trkpt><trkpt lat="38.886578807104044" lon="8.848138418245568"><ele>73.5</ele><time>2026-04-06T09:34:41Z</time></trkpt><trkpt lat="38.88659855575119" lon="8.848249137057659"><ele>73.0</ele><time>2026-04-06T09:34:42Z</time></trkpt><trkpt lat="38.88661556302512" lon="8.848393722686566"><ele>72.5</ele><time>2026-04-06T09:34:44Z</time></trkpt><trkpt lat="38.886646645189735" lon="8.848469174166132"><ele>72.0</ele><time>2026-04-06T09:34:45Z</time></trkpt><trkpt lat="38.8866726325601" lon="8.848586444268136"><ele>71.2</ele><time>2026-04-06T09:34:47Z</time></trkpt><trkpt lat="38.88669645839522" lon="8.84867790652752"><ele>70.4</ele><time>2026-04-06T09:34:49Z</time></trkpt><trkpt lat="38.88672809662287" lon="8.84879935886117"><ele>69.6</ele><time>2026-04-06T09:34:51Z</time></trkpt><trkpt lat="38.886759060882895" lon="8.848912028568813"><ele>68.8</ele><time>2026-04-06T09:34:53Z</time></trkpt><trkpt lat="38.886799753435454" lon="8.849032629668281"><ele>68.0</ele><time>2026-04-06T09:34:56Z</time></trkpt><trkpt lat="38.88687652324147" lon="8.849247288887362"><ele>65.5</ele><time>2026-04-06T09:35:00Z</time></trkpt><trkpt lat="38.88692094965057" lon="8.849382174346102"><ele>63.0</ele><time>2026-04-06T09:35:02Z</time></trkpt><trkpt lat="38.88696208758326" lon="8.849460313700366"><ele>60.5</ele><time>2026-04-06T09:35:03Z</time></trkpt><trkpt lat="38.88701371708902" lon="8.849532319141684"><ele>58.0</ele><time>2026-04-06T09:35:04Z</time></trkpt><trkpt lat="38.8870651801285" lon="8.849610199686586"><ele>55.50000000000001</ele><time>2026-04-06T09:35:05Z</time></trkpt><trkpt lat="38.887082675910676" lon="8.849696390974803"><ele>53.0</ele><time>2026-04-06T09:35:07Z</time></trkpt><trkpt lat="38.88702240705355" lon="8.849787503081423"><ele>53.00000000000001</ele><time>2026-04-06T09:35:10Z</time></trkpt><trkpt lat="38.886927946127045" lon="8.849844973206595"><ele>53.0</ele><time>2026-04-06T09:35:12Z</time></trkpt><trkpt lat="38.886859897178724" lon="8.849887627826337"><ele>53.0</ele><time>2026-04-06T09:35:13Z</time></trkpt><trkpt lat="38.88680079955658" lon="8.849926673491089"><ele>53.0</ele><time>2026-04-06T09:35:14Z</time></trkpt><trkpt lat="38.88674389107018" lon="8.849964273036317"><ele>53.00000000000001</ele><time>2026-04-06T09:35:15Z</time></trkpt><trkpt lat="38.886681285570845" lon="8.850014683096505"><ele>53.0</ele><time>2026-04-06T09:35:16Z</time></trkpt><trkpt lat="38.886615535346756" lon="8.850071591390439"><ele>51.75</ele><time>2026-04-06T09:35:17Z</time></trkpt><trkpt lat="38.8864968635727" lon="8.850210436595505"><ele>50.5</ele><time>2026-04-06T09:35:19Z</time></trkpt><trkpt lat="38.88641336924982" lon="8.850304060001875"><ele>49.25</ele><time>2026-04-06T09:35:21Z</time></trkpt><trkpt lat="38.88646046028175" lon="8.850382515492575"><ele>48.0</ele><time>2026-04-06T09:35:24Z</time></trkpt><trkpt lat="38.88657884200866" lon="8.850421800431171"><ele>48.0</ele><time>2026-04-06T09:35:27Z</time></trkpt><trkpt lat="38.886650908435676" lon="8.85043567548238"><ele>48.0</ele><time>2026-04-06T09:35:28Z</time></trkpt><trkpt lat="38.88676942288428" lon="8.850468023076349"><ele>48.0</ele><time>2026-04-06T09:35:30Z</time></trkpt><trkpt lat="38.88688244901598" lon="8.850499236252725"><ele>48.0</ele><time>2026-04-06T09:35:32Z</time></trkpt><trkpt lat="38.88696656051825" lon="8.850559582612911"><ele>48.0</ele><time>2026-04-06T09:35:34Z</time></trkpt><trkpt lat="38.88707326807305" lon="8.850629095518913"><ele>47.4</ele><time>2026-04-06T09:35:36Z</time></trkpt><trkpt lat="38.88718607921188" lon="8.850693315517992"><ele>46.8</ele><time>2026-04-06T09:35:38Z</time></trkpt><trkpt lat="38.88728217744554" lon="8.850804583332854"><ele>46.2</ele><time>2026-04-06T09:35:40Z</time></trkpt><trkpt lat="38.88731702628163" lon="8.85090375715015"><ele>45.6</ele><time>2026-04-06T09:35:42Z</time></trkpt><trkpt lat="38.887346007987226" lon="8.8509946487692"><ele>45.0</ele><time>2026-04-06T09:35:44Z</time></trkpt><trkpt lat="38.88739389363624" lon="8.851094631350591"><ele>45.0</ele><time>2026-04-06T09:35:47Z</time></trkpt><trkpt lat="38.88738137934378" lon="8.851195771138405"><ele>45.0</ele><time>2026-04-06T09:35:49Z</time></trkpt><trkpt lat="38.88732852415122" lon="8.851299566629452"><ele>45.0</ele><time>2026-04-06T09:35:51Z</time></trkpt><trkpt lat="38.88729106475977" lon="8.8514388330154"><ele>45.0</ele><time>2026-04-06T09:35:53Z</time></trkpt><trkpt lat="38.88724974666487" lon="8.85156027182196"><ele>45.0</ele><time>2026-04-06T09:35:55Z</time></trkpt><trkpt lat="38.88722264255357" lon="8.851682217930268"><ele>45.0</ele><time>2026-04-06T09:35:57Z</time></trkpt><trkpt lat="38.88718552989977" lon="8.851790199657637"><ele>45.0</ele><time>2026-04-06T09:35:59Z</time></trkpt><trkpt lat="38.8871279718666" lon="8.852015270189893"><ele>45.0</ele><time>2026-04-06T09:36:03Z</time></trkpt><trkpt lat="38.88711002982192" lon="8.852136668076668"><ele>45.0</ele><time>2026-04-06T09:36:05Z</time></trkpt><trkpt lat="38.887098549176116" lon="8.852256611748611"><ele>44.8</ele><time>2026-04-06T09:36:07Z</time></trkpt><trkpt lat="38.88709593545575" lon="8.85235161726975"><ele>44.6</ele><time>2026-04-06T09:36:12Z</time></trkpt><trkpt lat="38.887096923080605" lon="8.852461010045591"><ele>44.400000000000006</ele><time>2026-04-06T09:36:19Z</time></trkpt><trkpt lat="38.8871041191018" lon="8.852568725556251"><ele>44.2</ele><time>2026-04-06T09:36:21Z</time></trkpt><trkpt lat="38.88713611761769" lon="8.852759662886738"><ele>44.0</ele><time>2026-04-06T09:37:54Z</time></trkpt><trkpt lat="38.887174094983905" lon="8.852939796753688"><ele>43.2</ele><time>2026-04-06T09:37:58Z</time></trkpt><trkpt lat="38.887200794930116" lon="8.853038606724324"><ele>42.400000000000006</ele><time>2026-04-06T09:38:00Z</time></trkpt><trkpt lat="38.887227392648626" lon="8.853187955526243"><ele>41.6</ele><time>2026-04-06T09:38:02Z</time></trkpt><trkpt lat="38.88723365825329" lon="8.853323454385189"><ele>40.8</ele><time>2026-04-06T09:38:04Z</time></trkpt><trkpt lat="38.887261725487484" lon="8.853439721849126"><ele>40.0</ele><time>2026-04-06T09:38:06Z</time></trkpt><trkpt lat="38.8872709640759" lon="8.853560136396155"><ele>40.0</ele><time>2026-04-06T09:38:08Z</time></trkpt><trkpt lat="38.88729573607812" lon="8.853673842635855"><ele>40.0</ele><time>2026-04-06T09:38:10Z</time></trkpt><trkpt lat="38.8873134268699" lon="8.853778401116779"><ele>40.0</ele><time>2026-04-06T09:38:12Z</time></trkpt><trkpt lat="38.887335300488516" lon="8.85387997205164"><ele>40.0</ele><time>2026-04-06T09:38:14Z</time></trkpt><trkpt lat="38.887347801211" lon="8.853990220166063"><ele>40.0</ele><time>2026-04-06T09:38:16Z</time></trkpt><trkpt lat="38.88735868950515" lon="8.854175820492305"><ele>40.0</ele><time>2026-04-06T09:38:20Z</time></trkpt><trkpt lat="38.887364313749416" lon="8.854278587983565"><ele>40.0</ele><time>2026-04-06T09:38:23Z</time></trkpt><trkpt lat="38.887367632808015" lon="8.854425775983083"><ele>40.0</ele><time>2026-04-06T09:38:25Z</time></trkpt><trkpt lat="38.88735394505074" lon="8.854598206729005"><ele>40.0</ele><time>2026-04-06T09:38:27Z</time></trkpt><trkpt lat="38.887352710708434" lon="8.854754414816197"><ele>39.0</ele><time>2026-04-06T09:38:29Z</time></trkpt><trkpt lat="38.88734265678219" lon="8.85491288200675"><ele>38.0</ele><time>2026-04-06T09:38:31Z</time></trkpt><trkpt lat="38.8873505489528" lon="8.855029486490112"><ele>37.0</ele><time>2026-04-06T09:38:33Z</time></trkpt><trkpt lat="38.88734847004141" lon="8.8551387260798"><ele>36.0</ele><time>2026-04-06T09:38:36Z</time></trkpt><trkpt lat="38.88732641161557" lon="8.855234579431263"><ele>35.0</ele><time>2026-04-06T09:38:39Z</time></trkpt><trkpt lat="38.88729102529344" lon="8.855399025729646"><ele>33.83333333333333</ele><time>2026-04-06T09:38:45Z</time></trkpt><trkpt lat="38.887254826349164" lon="8.855491523099579"><ele>32.666666666666664</ele><time>2026-04-06T09:38:50Z</time></trkpt><trkpt lat="38.887198199692214" lon="8.855567526571798"><ele>31.5</ele><time>2026-04-06T09:38:53Z</time></trkpt><trkpt lat="38.88717371242419" lon="8.85564978788642"><ele>30.333333333333336</ele><time>2026-04-06T09:38:55Z</time></trkpt><trkpt lat="38.8871176371786" lon="8.855751494640229"><ele>29.166666666666668</ele><time>2026-04-06T09:38:58Z</time></trkpt><trkpt lat="38.88706259207137" lon="8.855860785869092"><ele>28.0</ele><time>2026-04-06T09:39:00Z</time></trkpt><trkpt lat="38.886967018570566" lon="8.856038541580059"><ele>26.833333333333336</ele><time>2026-04-06T09:39:04Z</time></trkpt><trkpt lat="38.88692964948863" lon="8.856144888726703"><ele>25.666666666666668</ele><time>2026-04-06T09:39:06Z</time></trkpt><trkpt lat="38.88689682978818" lon="8.856248190747715"><ele>24.5</ele><time>2026-04-06T09:39:08Z</time></trkpt><trkpt lat="38.88686685675132" lon="8.85634831105523"><ele>23.333333333333336</ele><time>2026-04-06T09:39:10Z</time></trkpt><trkpt lat="38.886859890929216" lon="8.85643914974381"><ele>22.166666666666668</ele><time>2026-04-06T09:39:17Z</time></trkpt><trkpt lat="38.88683162217165" lon="8.856556057126678"><ele>21.0</ele><time>2026-04-06T09:39:19Z</time></trkpt><trkpt lat="38.88681745739696" lon="8.856697864348341"><ele>21.0</ele><time>2026-04-06T09:39:21Z</time></trkpt><trkpt lat="38.88683721661778" lon="8.856915202087478"><ele>21.0</ele><time>2026-04-06T09:39:24Z</time></trkpt><trkpt lat="38.8868208107453" lon="8.85673717785265"><ele>21.0</ele><time>2026-04-06T09:39:39Z</time></trkpt><trkpt lat="38.886899633360954" lon="8.856542618341164"><ele>21.0</ele><time>2026-04-06T09:39:41Z</time></trkpt><trkpt lat="38.88715727457885" lon="8.856592155682511"><ele>21.0</ele><time>2026-04-06T09:39:42Z</time></trkpt><trkpt lat="38.88722853659317" lon="8.856693029517762"><ele>21.0</ele><time>2026-04-06T09:39:43Z</time></trkpt><trkpt lat="38.88707227405655" lon="8.855854095295944"><ele>22.166666666666668</ele><time>2026-04-06T09:39:53Z</time></trkpt><trkpt lat="38.887125057952716" lon="8.85573138881404"><ele>23.333333333333336</ele><time>2026-04-06T09:39:55Z</time></trkpt><trkpt lat="38.887185785190034" lon="8.855625173382883"><ele>24.5</ele><time>2026-04-06T09:39:57Z</time></trkpt><trkpt lat="38.8872412583439" lon="8.855551532370297"><ele>25.666666666666668</ele><time>2026-04-06T09:39:59Z</time></trkpt><trkpt lat="38.887280428726235" lon="8.855463435504998"><ele>26.833333333333336</ele><time>2026-04-06T09:40:01Z</time></trkpt><trkpt lat="38.88731362426116" lon="8.855375907056823"><ele>28.0</ele><time>2026-04-06T09:40:03Z</time></trkpt><trkpt lat="38.887343276723165" lon="8.855281912047609"><ele>29.4</ele><time>2026-04-06T09:40:05Z</time></trkpt><trkpt lat="38.88736318028692" lon="8.855075274521013"><ele>30.799999999999997</ele><time>2026-04-06T09:40:09Z</time></trkpt><trkpt lat="38.88736387249961" lon="8.854971417586803"><ele>32.2</ele><time>2026-04-06T09:40:11Z</time></trkpt><trkpt lat="38.8873570164676" lon="8.854870300357911"><ele>33.6</ele><time>2026-04-06T09:40:13Z</time></trkpt><trkpt lat="38.887361242023616" lon="8.854756567897837"><ele>35.0</ele><time>2026-04-06T09:40:15Z</time></trkpt><trkpt lat="38.8873615892571" lon="8.854643465992284"><ele>35.0</ele><time>2026-04-06T09:40:17Z</time></trkpt><trkpt lat="38.88736846608691" lon="8.854521142088501"><ele>35.0</ele><time>2026-04-06T09:40:19Z</time></trkpt><trkpt lat="38.88736912227194" lon="8.854413485201382"><ele>35.0</ele><time>2026-04-06T09:40:21Z</time></trkpt><trkpt lat="38.88737770465466" lon="8.854294621932894"><ele>35.0</ele><time>2026-04-06T09:40:23Z</time></trkpt><trkpt lat="38.88737298992262" lon="8.854179273930665"><ele>35.0</ele><time>2026-04-06T09:40:25Z</time></trkpt><trkpt lat="38.88736953168082" lon="8.854077858813861"><ele>35.0</ele><time>2026-04-06T09:40:29Z</time></trkpt><trkpt lat="38.8873463837492" lon="8.853893276972137"><ele>35.666666666666664</ele><time>2026-04-06T09:40:33Z</time></trkpt><trkpt lat="38.88733049214355" lon="8.853793314596459"><ele>36.33333333333333</ele><time>2026-04-06T09:40:35Z</time></trkpt><trkpt lat="38.88730915426888" lon="8.853690036301945"><ele>37.0</ele><time>2026-04-06T09:40:37Z</time></trkpt><trkpt lat="38.88729059387155" lon="8.853573230378204"><ele>37.666666666666664</ele><time>2026-04-06T09:40:39Z</time></trkpt><trkpt lat="38.887275137129286" lon="8.85346289384972"><ele>38.333333333333336</ele><time>2026-04-06T09:40:41Z</time></trkpt><trkpt lat="38.88726177218672" lon="8.853354432436182"><ele>39.0</ele><time>2026-04-06T09:40:43Z</time></trkpt><trkpt lat="38.88724992069169" lon="8.853246541814373"><ele>39.0</ele><time>2026-04-06T09:40:45Z</time></trkpt><trkpt lat="38.887235310025815" lon="8.853132124347157"><ele>39.0</ele><time>2026-04-06T09:40:47Z</time></trkpt><trkpt lat="38.88720463152896" lon="8.853018405972112"><ele>39.0</ele><time>2026-04-06T09:40:49Z</time></trkpt><trkpt lat="38.88719507047451" lon="8.852901112849306"><ele>39.0</ele><time>2026-04-06T09:40:51Z</time></trkpt><trkpt lat="38.88715059993069" lon="8.852677743344021"><ele>39.833333333333336</ele><time>2026-04-06T09:40:55Z</time></trkpt><trkpt lat="38.887149036583295" lon="8.85258405318393"><ele>40.666666666666664</ele><time>2026-04-06T09:40:58Z</time></trkpt><trkpt lat="38.88723955597603" lon="8.852600412893624"><ele>41.5</ele><time>2026-04-06T09:41:01Z</time></trkpt><trkpt lat="38.88732330760669" lon="8.852583516273343"><ele>42.33333333333333</ele><time>2026-04-06T09:41:03Z</time></trkpt><trkpt lat="38.88742047348705" lon="8.852546550235502"><ele>43.166666666666664</ele><time>2026-04-06T09:41:05Z</time></trkpt><trkpt lat="38.88748400251695" lon="8.852521095134067"><ele>44.0</ele><time>2026-04-06T09:41:06Z</time></trkpt><trkpt lat="38.887545808090216" lon="8.85249526254546"><ele>40.800000000000004</ele><time>2026-04-06T09:41:07Z</time></trkpt><trkpt lat="38.88761658576832" lon="8.852465679965636"><ele>37.6</ele><time>2026-04-06T09:41:08Z</time></trkpt><trkpt lat="38.88776078778382" lon="8.85240315597654"><ele>34.4</ele><time>2026-04-06T09:41:10Z</time></trkpt><trkpt lat="38.887841546168424" lon="8.85236595545318"><ele>31.2</ele><time>2026-04-06T09:41:11Z</time></trkpt><trkpt lat="38.887904437111615" lon="8.852336500861947"><ele>28.0</ele><time>2026-04-06T09:41:12Z</time></trkpt><trkpt lat="38.888048749956944" lon="8.852269240305645"><ele>28.0</ele><time>2026-04-06T09:41:14Z</time></trkpt><trkpt lat="38.88820232755889" lon="8.852197674882166"><ele>27.999999999999996</ele><time>2026-04-06T09:41:16Z</time></trkpt><trkpt lat="38.88827933336956" lon="8.852161791069314"><ele>27.999999999999996</ele><time>2026-04-06T09:41:17Z</time></trkpt><trkpt lat="38.888356539399794" lon="8.852125813958272"><ele>28.0</ele><time>2026-04-06T09:41:18Z</time></trkpt><trkpt lat="38.88843368438794" lon="8.852089302328542"><ele>28.0</ele><time>2026-04-06T09:41:19Z</time></trkpt><trkpt lat="38.8885187943495" lon="8.852048721051352"><ele>25.799999999999997</ele><time>2026-04-06T09:41:20Z</time></trkpt><trkpt lat="38.88860749789673" lon="8.85199642122855"><ele>23.599999999999998</ele><time>2026-04-06T09:41:21Z</time></trkpt><trkpt lat="38.88870070725896" lon="8.851958698012872"><ele>21.4</ele><time>2026-04-06T09:41:22Z</time></trkpt><trkpt lat="38.88879768216807" lon="8.851911412630091"><ele>19.2</ele><time>2026-04-06T09:41:23Z</time></trkpt><trkpt lat="38.888902855780806" lon="8.851866532672751"><ele>17.0</ele><time>2026-04-06T09:41:24Z</time></trkpt><trkpt lat="38.888998094642076" lon="8.851820028058812"><ele>17.0</ele><time>2026-04-06T09:41:25Z</time></trkpt><trkpt lat="38.88910024750749" lon="8.85179476949504"><ele>17.0</ele><time>2026-04-06T09:41:26Z</time></trkpt><trkpt lat="38.88919000014942" lon="8.851744486357301"><ele>17.0</ele><time>2026-04-06T09:41:27Z</time></trkpt><trkpt lat="38.889284338498506" lon="8.851672211168282"><ele>17.0</ele><time>2026-04-06T09:41:28Z</time></trkpt><trkpt lat="38.88939185959446" lon="8.85162257643922"><ele>17.0</ele><time>2026-04-06T09:41:29Z</time></trkpt><trkpt lat="38.88950781332015" lon="8.851566243400203"><ele>16.25</ele><time>2026-04-06T09:41:30Z</time></trkpt><trkpt lat="38.88961818784094" lon="8.851513094961543"><ele>15.5</ele><time>2026-04-06T09:41:31Z</time></trkpt><trkpt lat="38.889725756481404" lon="8.851461080022354"><ele>14.75</ele><time>2026-04-06T09:41:32Z</time></trkpt><trkpt lat="38.889828517600975" lon="8.851412804578596"><ele>14.0</ele><time>2026-04-06T09:41:33Z</time></trkpt><trkpt lat="38.89001006944562" lon="8.851331317454592"><ele>14.000000000000002</ele><time>2026-04-06T09:41:35Z</time></trkpt><trkpt lat="38.89008657210653" lon="8.85129797938238"><ele>14.0</ele><time>2026-04-06T09:41:36Z</time></trkpt><trkpt lat="38.89015870698667" lon="8.851263953470353"><ele>14.0</ele><time>2026-04-06T09:41:37Z</time></trkpt><trkpt lat="38.890225014222366" lon="8.851231856945455"><ele>14.0</ele><time>2026-04-06T09:41:38Z</time></trkpt><trkpt lat="38.89028542907831" lon="8.85120099889329"><ele>14.000000000000002</ele><time>2026-04-06T09:41:39Z</time></trkpt><trkpt lat="38.890382851104775" lon="8.851155226706169"><ele>14.0</ele><time>2026-04-06T09:41:41Z</time></trkpt><trkpt lat="38.89046786563005" lon="8.851115875371939"><ele>14.500000000000002</ele><time>2026-04-06T09:41:43Z</time></trkpt><trkpt lat="38.89054758818797" lon="8.85107719960496"><ele>15.0</ele><time>2026-04-06T09:41:45Z</time></trkpt><trkpt lat="38.8906281354868" lon="8.851040325813688"><ele>15.5</ele><time>2026-04-06T09:41:47Z</time></trkpt><trkpt lat="38.89071244081383" lon="8.851005001763498"><ele>16.0</ele><time>2026-04-06T09:41:49Z</time></trkpt><trkpt lat="38.89079481464637" lon="8.850960020269532"><ele>16.5</ele><time>2026-04-06T09:41:51Z</time></trkpt><trkpt lat="38.89088068407387" lon="8.850923523301129"><ele>17.0</ele><time>2026-04-06T09:41:53Z</time></trkpt><trkpt lat="38.89096034512127" lon="8.850883973818728"><ele>17.6</ele><time>2026-04-06T09:41:55Z</time></trkpt><trkpt lat="38.89111188478748" lon="8.850808389434029"><ele>18.2</ele><time>2026-04-06T09:41:59Z</time></trkpt><trkpt lat="38.89118669602621" lon="8.850774515223637"><ele>18.8</ele><time>2026-04-06T09:42:01Z</time></trkpt><trkpt lat="38.89126731848124" lon="8.850733175777037"><ele>19.4</ele><time>2026-04-06T09:42:03Z</time></trkpt><trkpt lat="38.89135149696884" lon="8.850699583758365"><ele>20.0</ele><time>2026-04-06T09:42:05Z</time></trkpt><trkpt lat="38.89143067216897" lon="8.850660395522738"><ele>20.0</ele><time>2026-04-06T09:42:07Z</time></trkpt><trkpt lat="38.89151886397606" lon="8.850613343175285"><ele>20.0</ele><time>2026-04-06T09:42:09Z</time></trkpt><trkpt lat="38.89161857213323" lon="8.85056830712506"><ele>20.0</ele><time>2026-04-06T09:42:11Z</time></trkpt><trkpt lat="38.89172807605237" lon="8.850516325168568"><ele>20.0</ele><time>2026-04-06T09:42:13Z</time></trkpt><trkpt lat="38.891799793400345" lon="8.850487179366858"><ele>20.0</ele><time>2026-04-06T09:42:16Z</time></trkpt><trkpt lat="38.891949455104104" lon="8.850459841579525"><ele>20.666666666666668</ele><time>2026-04-06T09:42:24Z</time></trkpt><trkpt lat="38.892016949673526" lon="8.850470882395028"><ele>21.333333333333336</ele><time>2026-04-06T09:42:28Z</time></trkpt><trkpt lat="38.89205648226445" lon="8.850580653025709"><ele>22.0</ele><time>2026-04-06T09:42:30Z</time></trkpt><trkpt lat="38.89213986347648" lon="8.8506545253811"><ele>22.666666666666668</ele><time>2026-04-06T09:42:32Z</time></trkpt><trkpt lat="38.892214870957616" lon="8.85067250083421"><ele>23.333333333333332</ele><time>2026-04-06T09:42:34Z</time></trkpt><trkpt lat="38.892293165947045" lon="8.850742546030038"><ele>24.0</ele><time>2026-04-06T09:42:36Z</time></trkpt><trkpt lat="38.8923726081343" lon="8.850821741748861"><ele>23.75</ele><time>2026-04-06T09:42:38Z</time></trkpt><trkpt lat="38.89255622966035" lon="8.851007677169257"><ele>23.5</ele><time>2026-04-06T09:42:42Z</time></trkpt><trkpt lat="38.89262636165978" lon="8.851092417604614"><ele>23.25</ele><time>2026-04-06T09:42:44Z</time></trkpt><trkpt lat="38.89267993306703" lon="8.851148678268824"><ele>23.0</ele><time>2026-04-06T09:42:47Z</time></trkpt><trkpt lat="38.89270632935648" lon="8.851226427732561"><ele>23.0</ele><time>2026-04-06T09:42:49Z</time></trkpt><trkpt lat="38.89272026467006" lon="8.85135229453281"><ele>23.0</ele><time>2026-04-06T09:42:51Z</time></trkpt><trkpt lat="38.89273127092363" lon="8.851473611790786"><ele>23.0</ele><time>2026-04-06T09:42:53Z</time></trkpt><trkpt lat="38.89274692658384" lon="8.851628433679188"><ele>23.0</ele><time>2026-04-06T09:42:55Z</time></trkpt><trkpt lat="38.89275532972383" lon="8.851713770406185"><ele>23.0</ele><time>2026-04-06T09:42:56Z</time></trkpt><trkpt lat="38.892765552829076" lon="8.851800422211138"><ele>22.799999999999997</ele><time>2026-04-06T09:42:57Z</time></trkpt><trkpt lat="38.89277529409076" lon="8.851885814569071"><ele>22.6</ele><time>2026-04-06T09:42:58Z</time></trkpt><trkpt lat="38.89278220078146" lon="8.851970690081844"><ele>22.4</ele><time>2026-04-06T09:42:59Z</time></trkpt><trkpt lat="38.892810953144284" lon="8.852217820275829"><ele>22.200000000000003</ele><time>2026-04-06T09:43:02Z</time></trkpt><trkpt lat="38.892820871334266" lon="8.85230136651465"><ele>22.0</ele><time>2026-04-06T09:43:03Z</time></trkpt><trkpt lat="38.892828590468326" lon="8.852388358310833"><ele>22.0</ele><time>2026-04-06T09:43:04Z</time></trkpt><trkpt lat="38.89283877274877" lon="8.85247521441732"><ele>22.0</ele><time>2026-04-06T09:43:05Z</time></trkpt><trkpt lat="38.89284928009386" lon="8.852559998896705"><ele>22.0</ele><time>2026-04-06T09:43:06Z</time></trkpt><trkpt lat="38.892858552839535" lon="8.852642651225931"><ele>22.0</ele><time>2026-04-06T09:43:07Z</time></trkpt><trkpt lat="38.89286620294265" lon="8.852727588790701"><ele>22.0</ele><time>2026-04-06T09:43:08Z</time></trkpt><trkpt lat="38.892876452180744" lon="8.852811634763043"><ele>22.0</ele><time>2026-04-06T09:43:09Z</time></trkpt><trkpt lat="38.89288532385078" lon="8.852897220687472"><ele>22.0</ele><time>2026-04-06T09:43:10Z</time></trkpt><trkpt lat="38.892893122383185" lon="8.852981899200223"><ele>21.714285714285715</ele><time>2026-04-06T09:43:11Z</time></trkpt><trkpt lat="38.89290192931814" lon="8.85306302450684"><ele>21.428571428571427</ele><time>2026-04-06T09:43:12Z</time></trkpt><trkpt lat="38.89291026496926" lon="8.853146445062016"><ele>21.142857142857142</ele><time>2026-04-06T09:43:13Z</time></trkpt><trkpt lat="38.892917451208326" lon="8.85322973438008"><ele>20.857142857142858</ele><time>2026-04-06T09:43:14Z</time></trkpt><trkpt lat="38.89292612126011" lon="8.85331129512527"><ele>20.571428571428573</ele><time>2026-04-06T09:43:15Z</time></trkpt><trkpt lat="38.89293453693405" lon="8.853394092925281"><ele>20.285714285714285</ele><time>2026-04-06T09:43:16Z</time></trkpt><trkpt lat="38.89294271458388" lon="8.853476778458854"><ele>20.0</ele><time>2026-04-06T09:43:17Z</time></trkpt><trkpt lat="38.892953510330756" lon="8.853564716654702"><ele>20.0</ele><time>2026-04-06T09:43:18Z</time></trkpt><trkpt lat="38.89296311429128" lon="8.853647722288011"><ele>20.0</ele><time>2026-04-06T09:43:19Z</time></trkpt><trkpt lat="38.89297174934717" lon="8.853731918152292"><ele>20.0</ele><time>2026-04-06T09:43:20Z</time></trkpt><trkpt lat="38.89299105758757" lon="8.853896809142295"><ele>20.0</ele><time>2026-04-06T09:43:22Z</time></trkpt><trkpt lat="38.89299923821525" lon="8.85398087940139"><ele>20.0</ele><time>2026-04-06T09:43:23Z</time></trkpt><trkpt lat="38.89300841111504" lon="8.85406472116926"><ele>20.0</ele><time>2026-04-06T09:43:24Z</time></trkpt><trkpt lat="38.893018992000584" lon="8.85414612613275"><ele>20.0</ele><time>2026-04-06T09:43:25Z</time></trkpt><trkpt lat="38.893026626732514" lon="8.854229667732413"><ele>20.0</ele><time>2026-04-06T09:43:26Z</time></trkpt><trkpt lat="38.893033906168085" lon="8.85431476715483"><ele>20.0</ele><time>2026-04-06T09:43:27Z</time></trkpt><trkpt lat="38.89304559838644" lon="8.854395610208671"><ele>20.0</ele><time>2026-04-06T09:43:28Z</time></trkpt><trkpt lat="38.89305241030867" lon="8.854479630560162"><ele>20.0</ele><time>2026-04-06T09:43:29Z</time></trkpt><trkpt lat="38.89306052220598" lon="8.854565455264956"><ele>20.0</ele><time>2026-04-06T09:43:30Z</time></trkpt><trkpt lat="38.893071060674075" lon="8.854654825212293"><ele>20.0</ele><time>2026-04-06T09:43:31Z</time></trkpt><trkpt lat="38.893080723974265" lon="8.854737979616148"><ele>20.142857142857142</ele><time>2026-04-06T09:43:32Z</time></trkpt><trkpt lat="38.89308961579201" lon="8.854819469253602"><ele>20.285714285714285</ele><time>2026-04-06T09:43:33Z</time></trkpt><trkpt lat="38.89309948801105" lon="8.854904223612584"><ele>20.42857142857143</ele><time>2026-04-06T09:43:34Z</time></trkpt><trkpt lat="38.89311016560675" lon="8.854989656077084"><ele>20.57142857142857</ele><time>2026-04-06T09:43:35Z</time></trkpt><trkpt lat="38.89311991912923" lon="8.855074387125356"><ele>20.714285714285715</ele><time>2026-04-06T09:43:36Z</time></trkpt><trkpt lat="38.89313014292362" lon="8.85516085096172"><ele>20.857142857142858</ele><time>2026-04-06T09:43:37Z</time></trkpt><trkpt lat="38.89313587014455" lon="8.855243956161578"><ele>21.0</ele><time>2026-04-06T09:43:38Z</time></trkpt><trkpt lat="38.893143845083735" lon="8.85532785177329"><ele>20.666666666666668</ele><time>2026-04-06T09:43:39Z</time></trkpt><trkpt lat="38.893153251363245" lon="8.855412655533152"><ele>20.333333333333332</ele><time>2026-04-06T09:43:40Z</time></trkpt><trkpt lat="38.89316398104937" lon="8.855500051193081"><ele>20.0</ele><time>2026-04-06T09:43:41Z</time></trkpt><trkpt lat="38.8931816821888" lon="8.855662928807362"><ele>19.666666666666664</ele><time>2026-04-06T09:43:43Z</time></trkpt><trkpt lat="38.89319123548101" lon="8.85574376880637"><ele>19.333333333333332</ele><time>2026-04-06T09:43:44Z</time></trkpt><trkpt lat="38.89319845436891" lon="8.855825303930876"><ele>19.0</ele><time>2026-04-06T09:43:45Z</time></trkpt><trkpt lat="38.89320735970966" lon="8.85590750278421"><ele>18.8</ele><time>2026-04-06T09:43:46Z</time></trkpt><trkpt lat="38.89322399830743" lon="8.856071234925892"><ele>18.599999999999998</ele><time>2026-04-06T09:43:48Z</time></trkpt><trkpt lat="38.89323407241723" lon="8.856153952685474"><ele>18.4</ele><time>2026-04-06T09:43:49Z</time></trkpt><trkpt lat="38.89324324151524" lon="8.856236757449004"><ele>18.2</ele><time>2026-04-06T09:43:50Z</time></trkpt><trkpt lat="38.89325957210707" lon="8.856401751487894"><ele>18.0</ele><time>2026-04-06T09:43:52Z</time></trkpt><trkpt lat="38.89326832416107" lon="8.856482209772201"><ele>18.0</ele><time>2026-04-06T09:43:53Z</time></trkpt><trkpt lat="38.8932859848613" lon="8.856641261649619"><ele>18.0</ele><time>2026-04-06T09:43:55Z</time></trkpt><trkpt lat="38.89329397411299" lon="8.856724493411347"><ele>18.0</ele><time>2026-04-06T09:43:56Z</time></trkpt><trkpt lat="38.89330204240635" lon="8.856808789578476"><ele>18.0</ele><time>2026-04-06T09:43:57Z</time></trkpt><trkpt lat="38.89330992582873" lon="8.856893306901974"><ele>18.0</ele><time>2026-04-06T09:43:58Z</time></trkpt><trkpt lat="38.89331892184155" lon="8.856977523517068"><ele>18.0</ele><time>2026-04-06T09:43:59Z</time></trkpt><trkpt lat="38.893333216721864" lon="8.857059612176513"><ele>17.833333333333332</ele><time>2026-04-06T09:44:00Z</time></trkpt><trkpt lat="38.89334101737549" lon="8.85714583404651"><ele>17.666666666666668</ele><time>2026-04-06T09:44:01Z</time></trkpt><trkpt lat="38.89334894702045" lon="8.857229107273858"><ele>17.5</ele><time>2026-04-06T09:44:02Z</time></trkpt><trkpt lat="38.893365816978125" lon="8.857396465798777"><ele>17.333333333333336</ele><time>2026-04-06T09:44:04Z</time></trkpt><trkpt lat="38.89337573585787" lon="8.857479631852103"><ele>17.166666666666668</ele><time>2026-04-06T09:44:05Z</time></trkpt><trkpt lat="38.89338546758624" lon="8.857561951066279"><ele>17.0</ele><time>2026-04-06T09:44:06Z</time></trkpt><trkpt lat="38.89339405306064" lon="8.857646987536889"><ele>16.857142857142854</ele><time>2026-04-06T09:44:07Z</time></trkpt><trkpt lat="38.893397698551915" lon="8.857732752129815"><ele>16.714285714285715</ele><time>2026-04-06T09:44:08Z</time></trkpt><trkpt lat="38.89340337397243" lon="8.85781434114064"><ele>16.57142857142857</ele><time>2026-04-06T09:44:09Z</time></trkpt><trkpt lat="38.89341817217866" lon="8.857900080289784"><ele>16.428571428571427</ele><time>2026-04-06T09:44:10Z</time></trkpt><trkpt lat="38.89342522668889" lon="8.85798421558186"><ele>16.285714285714285</ele><time>2026-04-06T09:44:11Z</time></trkpt><trkpt lat="38.89343322275975" lon="8.858068021163955"><ele>16.142857142857142</ele><time>2026-04-06T09:44:12Z</time></trkpt><trkpt lat="38.89344134704455" lon="8.85814908374719"><ele>16.0</ele><time>2026-04-06T09:44:13Z</time></trkpt><trkpt lat="38.89346384867306" lon="8.858308815464985"><ele>16.166666666666664</ele><time>2026-04-06T09:44:15Z</time></trkpt><trkpt lat="38.89346583310891" lon="8.858399225250368"><ele>16.333333333333332</ele><time>2026-04-06T09:44:16Z</time></trkpt><trkpt lat="38.89347488569607" lon="8.858485921606272"><ele>16.5</ele><time>2026-04-06T09:44:17Z</time></trkpt><trkpt lat="38.893483501489015" lon="8.85856843486432"><ele>16.666666666666668</ele><time>2026-04-06T09:44:18Z</time></trkpt><trkpt lat="38.893499520902715" lon="8.858721852234652"><ele>16.833333333333336</ele><time>2026-04-06T09:44:20Z</time></trkpt><trkpt lat="38.893511279015094" lon="8.858834459559553"><ele>17.0</ele><time>2026-04-06T09:44:22Z</time></trkpt><trkpt lat="38.893664985581545" lon="8.858837918418716"><ele>17.0</ele><time>2026-04-06T09:44:23Z</time></trkpt><trkpt lat="38.893865240817675" lon="8.858884150644913"><ele>17.0</ele><time>2026-04-06T09:44:27Z</time></trkpt><trkpt lat="38.89397533082604" lon="8.858880414862318"><ele>17.0</ele><time>2026-04-06T09:44:29Z</time></trkpt><trkpt lat="38.89408624863473" lon="8.858848916708242"><ele>17.0</ele><time>2026-04-06T09:44:31Z</time></trkpt><trkpt lat="38.89418643921343" lon="8.858779144880659"><ele>17.833333333333336</ele><time>2026-04-06T09:44:33Z</time></trkpt><trkpt lat="38.89426570362369" lon="8.858670342692927"><ele>18.666666666666668</ele><time>2026-04-06T09:44:35Z</time></trkpt><trkpt lat="38.89430232200315" lon="8.858599741765103"><ele>19.5</ele><time>2026-04-06T09:44:36Z</time></trkpt><trkpt lat="38.89433885413266" lon="8.858532984360759"><ele>20.333333333333332</ele><time>2026-04-06T09:44:37Z</time></trkpt><trkpt lat="38.894412125023536" lon="8.858407839589143"><ele>21.166666666666664</ele><time>2026-04-06T09:44:39Z</time></trkpt><trkpt lat="38.89445186207557" lon="8.858344551301883"><ele>22.0</ele><time>2026-04-06T09:44:40Z</time></trkpt><trkpt lat="38.89449632622225" lon="8.85828277378059"><ele>22.0</ele><time>2026-04-06T09:44:41Z</time></trkpt><trkpt lat="38.894565486749855" lon="8.858156824622524"><ele>22.0</ele><time>2026-04-06T09:44:43Z</time></trkpt><trkpt lat="38.89463459331316" lon="8.858041772786837"><ele>22.0</ele><time>2026-04-06T09:44:45Z</time></trkpt><trkpt lat="38.89470688724787" lon="8.857844903202482"><ele>22.0</ele><time>2026-04-06T09:44:49Z</time></trkpt><trkpt lat="38.89473609432561" lon="8.857759098158168"><ele>22.0</ele><time>2026-04-06T09:44:51Z</time></trkpt><trkpt lat="38.89475667951909" lon="8.857661507752333"><ele>22.0</ele><time>2026-04-06T09:44:53Z</time></trkpt><trkpt lat="38.89477708424758" lon="8.857558833604983"><ele>22.0</ele><time>2026-04-06T09:44:55Z</time></trkpt><trkpt lat="38.89480952897187" lon="8.857465706207238"><ele>22.0</ele><time>2026-04-06T09:44:58Z</time></trkpt><trkpt lat="38.89483809530397" lon="8.857348246693498"><ele>22.0</ele><time>2026-04-06T09:45:01Z</time></trkpt><trkpt lat="38.89487219585004" lon="8.857240511613657"><ele>22.0</ele><time>2026-04-06T09:45:04Z</time></trkpt><trkpt lat="38.89491115658225" lon="8.85716196499509"><ele>22.400000000000002</ele><time>2026-04-06T09:45:06Z</time></trkpt><trkpt lat="38.895025999529786" lon="8.857013401168842"><ele>22.8</ele><time>2026-04-06T09:45:10Z</time></trkpt><trkpt lat="38.89508479084659" lon="8.85695114531405"><ele>23.2</ele><time>2026-04-06T09:45:13Z</time></trkpt><trkpt lat="38.89513411581767" lon="8.856893547916624"><ele>23.6</ele><time>2026-04-06T09:45:16Z</time></trkpt><trkpt lat="38.895201898773635" lon="8.856846511599556"><ele>24.0</ele><time>2026-04-06T09:45:19Z</time></trkpt><trkpt lat="38.89526400756122" lon="8.856769015217793"><ele>25.0</ele><time>2026-04-06T09:45:22Z</time></trkpt><trkpt lat="38.895327294323984" lon="8.856709301359698"><ele>26.0</ele><time>2026-04-06T09:45:25Z</time></trkpt><trkpt lat="38.895398825661864" lon="8.856654904273473"><ele>27.0</ele><time>2026-04-06T09:45:28Z</time></trkpt><trkpt lat="38.89552099201574" lon="8.856508103859985"><ele>28.0</ele><time>2026-04-06T09:45:34Z</time></trkpt><trkpt lat="38.895584946700644" lon="8.85647144993921"><ele>29.0</ele><time>2026-04-06T09:45:37Z</time></trkpt><trkpt lat="38.89563959294899" lon="8.85640149763637"><ele>29.0</ele><time>2026-04-06T09:45:40Z</time></trkpt><trkpt lat="38.895731026981984" lon="8.856368335949519"><ele>29.0</ele><time>2026-04-06T09:45:43Z</time></trkpt><trkpt lat="38.8958002569894" lon="8.85633845660507"><ele>29.0</ele><time>2026-04-06T09:45:45Z</time></trkpt><trkpt lat="38.89587886243573" lon="8.856291952226464"><ele>29.0</ele><time>2026-04-06T09:45:47Z</time></trkpt><trkpt lat="38.895970882400675" lon="8.856258983154937"><ele>29.0</ele><time>2026-04-06T09:45:49Z</time></trkpt><trkpt lat="38.896143050636866" lon="8.856198695035939"><ele>29.833333333333332</ele><time>2026-04-06T09:45:53Z</time></trkpt><trkpt lat="38.896225016231384" lon="8.856156211253953"><ele>30.666666666666664</ele><time>2026-04-06T09:45:55Z</time></trkpt><trkpt lat="38.89630575074631" lon="8.85610541968495"><ele>31.5</ele><time>2026-04-06T09:45:57Z</time></trkpt><trkpt lat="38.8963808607915" lon="8.856045045116682"><ele>32.333333333333336</ele><time>2026-04-06T09:45:59Z</time></trkpt><trkpt lat="38.89644539949543" lon="8.855959890317505"><ele>33.16666666666667</ele><time>2026-04-06T09:46:01Z</time></trkpt><trkpt lat="38.89650800280468" lon="8.855880374375479"><ele>34.0</ele><time>2026-04-06T09:46:03Z</time></trkpt><trkpt lat="38.89657307968879" lon="8.85581312899836"><ele>34.0</ele><time>2026-04-06T09:46:05Z</time></trkpt><trkpt lat="38.89664593255181" lon="8.855743033050466"><ele>34.0</ele><time>2026-04-06T09:46:07Z</time></trkpt><trkpt lat="38.89671929531773" lon="8.855672784067245"><ele>34.0</ele><time>2026-04-06T09:46:09Z</time></trkpt><trkpt lat="38.89685827393899" lon="8.855537717462772"><ele>34.0</ele><time>2026-04-06T09:46:13Z</time></trkpt><trkpt lat="38.89690908032819" lon="8.8554876723227"><ele>34.0</ele><time>2026-04-06T09:46:15Z</time></trkpt><trkpt lat="38.89697232345084" lon="8.855422364564548"><ele>34.71428571428571</ele><time>2026-04-06T09:46:17Z</time></trkpt><trkpt lat="38.89701978023231" lon="8.855345773470432"><ele>35.42857142857143</ele><time>2026-04-06T09:46:19Z</time></trkpt><trkpt lat="38.89708003921506" lon="8.855290068536444"><ele>36.14285714285714</ele><time>2026-04-06T09:46:21Z</time></trkpt><trkpt lat="38.89710885764148" lon="8.855204022239631"><ele>36.857142857142854</ele><time>2026-04-06T09:46:23Z</time></trkpt><trkpt lat="38.89714204935422" lon="8.855118442437973"><ele>37.57142857142857</ele><time>2026-04-06T09:46:25Z</time></trkpt><trkpt lat="38.89716872145564" lon="8.855041902999192"><ele>38.285714285714285</ele><time>2026-04-06T09:46:27Z</time></trkpt><trkpt lat="38.89720025799621" lon="8.854958449874212"><ele>39.0</ele><time>2026-04-06T09:46:29Z</time></trkpt><trkpt lat="38.89724026769604" lon="8.854849682737827"><ele>39.0</ele><time>2026-04-06T09:46:31Z</time></trkpt><trkpt lat="38.897310080675716" lon="8.854606232897957"><ele>39.0</ele><time>2026-04-06T09:46:35Z</time></trkpt><trkpt lat="38.897357957352924" lon="8.85448470714157"><ele>39.0</ele><time>2026-04-06T09:46:37Z</time></trkpt><trkpt lat="38.89741834202927" lon="8.854367147664117"><ele>39.0</ele><time>2026-04-06T09:46:39Z</time></trkpt><trkpt lat="38.897448819201514" lon="8.854292227609202"><ele>38.5</ele><time>2026-04-06T09:46:40Z</time></trkpt><trkpt lat="38.89749499338234" lon="8.854222389026779"><ele>38.0</ele><time>2026-04-06T09:46:41Z</time></trkpt><trkpt lat="38.897533985308186" lon="8.854154830445557"><ele>37.5</ele><time>2026-04-06T09:46:42Z</time></trkpt><trkpt lat="38.89761953871877" lon="8.854051802666474"><ele>37.0</ele><time>2026-04-06T09:46:44Z</time></trkpt><trkpt lat="38.897671927723" lon="8.85399745582716"><ele>36.5</ele><time>2026-04-06T09:46:45Z</time></trkpt><trkpt lat="38.89771623431977" lon="8.853927542688965"><ele>36.0</ele><time>2026-04-06T09:46:46Z</time></trkpt><trkpt lat="38.89781398730895" lon="8.853847640005663"><ele>35.6</ele><time>2026-04-06T09:46:48Z</time></trkpt><trkpt lat="38.89786278088716" lon="8.853792914082904"><ele>35.2</ele><time>2026-04-06T09:46:49Z</time></trkpt><trkpt lat="38.897913198633205" lon="8.853730153098658"><ele>34.8</ele><time>2026-04-06T09:46:50Z</time></trkpt><trkpt lat="38.89796381334717" lon="8.85365543904378"><ele>34.4</ele><time>2026-04-06T09:46:52Z</time></trkpt><trkpt lat="38.89811187803542" lon="8.853469636376126"><ele>34.0</ele><time>2026-04-06T09:46:56Z</time></trkpt><trkpt lat="38.89819233941655" lon="8.853382099697699"><ele>34.0</ele><time>2026-04-06T09:46:58Z</time></trkpt><trkpt lat="38.898261015544584" lon="8.853308679757431"><ele>34.0</ele><time>2026-04-06T09:47:00Z</time></trkpt><trkpt lat="38.89830708371658" lon="8.853252451158696"><ele>34.0</ele><time>2026-04-06T09:47:02Z</time></trkpt><trkpt lat="38.89825625830943" lon="8.853316467130163"><ele>34.0</ele><time>2026-04-06T09:47:50Z</time></trkpt><trkpt lat="38.89815182832632" lon="8.853424421619806"><ele>34.0</ele><time>2026-04-06T09:47:53Z</time></trkpt><trkpt lat="38.89810030447675" lon="8.853482514222383"><ele>34.0</ele><time>2026-04-06T09:47:54Z</time></trkpt><trkpt lat="38.89802824675036" lon="8.853567794236335"><ele>38.0</ele><time>2026-04-06T09:47:56Z</time></trkpt><trkpt lat="38.89796050780176" lon="8.853649122792003"><ele>42.0</ele><time>2026-04-06T09:47:58Z</time></trkpt><trkpt lat="38.89781904413658" lon="8.853662133555297"><ele>46.0</ele><time>2026-04-06T09:48:00Z</time></trkpt><trkpt lat="38.89780675710155" lon="8.853827306417825"><ele>50.0</ele><time>2026-04-06T09:48:03Z</time></trkpt><trkpt lat="38.89771610491237" lon="8.853902203247197"><ele>50.0</ele><time>2026-04-06T09:48:05Z</time></trkpt><trkpt lat="38.897627426391026" lon="8.853989886243918"><ele>50.0</ele><time>2026-04-06T09:48:07Z</time></trkpt><trkpt lat="38.89754710665508" lon="8.854082862596277"><ele>50.0</ele><time>2026-04-06T09:48:09Z</time></trkpt><trkpt lat="38.89750670969847" lon="8.854145596752456"><ele>50.0</ele><time>2026-04-06T09:48:10Z</time></trkpt><trkpt lat="38.8974628097569" lon="8.854218720862796"><ele>50.0</ele><time>2026-04-06T09:48:11Z</time></trkpt><trkpt lat="38.89739424872854" lon="8.854374747838055"><ele>47.25</ele><time>2026-04-06T09:48:13Z</time></trkpt><trkpt lat="38.89734238715488" lon="8.854513564544186"><ele>44.5</ele><time>2026-04-06T09:48:15Z</time></trkpt><trkpt lat="38.89728079744789" lon="8.854647736431195"><ele>41.75</ele><time>2026-04-06T09:48:17Z</time></trkpt><trkpt lat="38.8972301062191" lon="8.854789312443303"><ele>39.0</ele><time>2026-04-06T09:48:19Z</time></trkpt><trkpt lat="38.89718603082529" lon="8.854921661826594"><ele>39.0</ele><time>2026-04-06T09:48:21Z</time></trkpt><trkpt lat="38.89714829879074" lon="8.855062851919621"><ele>39.0</ele><time>2026-04-06T09:48:23Z</time></trkpt><trkpt lat="38.897112736351" lon="8.855184958889657"><ele>39.0</ele><time>2026-04-06T09:48:25Z</time></trkpt><trkpt lat="38.897056986668254" lon="8.855290625410428"><ele>39.0</ele><time>2026-04-06T09:48:27Z</time></trkpt><trkpt lat="38.89696802146824" lon="8.855397290837695"><ele>39.0</ele><time>2026-04-06T09:48:29Z</time></trkpt><trkpt lat="38.89686843645065" lon="8.855494053868647"><ele>39.25</ele><time>2026-04-06T09:48:31Z</time></trkpt><trkpt lat="38.89677426190866" lon="8.855592143962795"><ele>39.5</ele><time>2026-04-06T09:48:33Z</time></trkpt><trkpt lat="38.89656879696193" lon="8.855776040628646"><ele>39.75</ele><time>2026-04-06T09:48:37Z</time></trkpt><trkpt lat="38.8965169952799" lon="8.855823552368758"><ele>40.0</ele><time>2026-04-06T09:48:38Z</time></trkpt><trkpt lat="38.896470328652576" lon="8.855878071290709"><ele>39.66666666666667</ele><time>2026-04-06T09:48:39Z</time></trkpt><trkpt lat="38.8963833227425" lon="8.855989235897619"><ele>39.333333333333336</ele><time>2026-04-06T09:48:41Z</time></trkpt><trkpt lat="38.8963388148551" lon="8.856048970825778"><ele>39.0</ele><time>2026-04-06T09:48:42Z</time></trkpt><trkpt lat="38.89628047798075" lon="8.856085367381977"><ele>38.666666666666664</ele><time>2026-04-06T09:48:43Z</time></trkpt><trkpt lat="38.89623244804572" lon="8.856147495644217"><ele>38.33333333333333</ele><time>2026-04-06T09:48:44Z</time></trkpt><trkpt lat="38.896164818914365" lon="8.856171851025525"><ele>38.0</ele><time>2026-04-06T09:48:45Z</time></trkpt><trkpt lat="38.89610079440659" lon="8.85620430100547"><ele>38.0</ele><time>2026-04-06T09:48:46Z</time></trkpt><trkpt lat="38.8960278209623" lon="8.856214873813599"><ele>38.0</ele><time>2026-04-06T09:48:47Z</time></trkpt><trkpt lat="38.89596736791563" lon="8.85625391305058"><ele>38.0</ele><time>2026-04-06T09:48:48Z</time></trkpt><trkpt lat="38.89589579185402" lon="8.856270687455082"><ele>38.0</ele><time>2026-04-06T09:48:49Z</time></trkpt><trkpt lat="38.895832066284406" lon="8.856296939468102"><ele>38.0</ele><time>2026-04-06T09:48:50Z</time></trkpt><trkpt lat="38.89576503765833" lon="8.85632753596838"><ele>38.0</ele><time>2026-04-06T09:48:51Z</time></trkpt><trkpt lat="38.89570501530535" lon="8.856353761749691"><ele>38.0</ele><time>2026-04-06T09:48:52Z</time></trkpt><trkpt lat="38.89564453251621" lon="8.856391450235625"><ele>36.5</ele><time>2026-04-06T09:48:53Z</time></trkpt><trkpt lat="38.89556781838908" lon="8.856449049869546"><ele>35.0</ele><time>2026-04-06T09:48:55Z</time></trkpt><trkpt lat="38.89552558645572" lon="8.856462799956937"><ele>33.5</ele><time>2026-04-06T09:53:45Z</time></trkpt><trkpt lat="38.895600837606686" lon="8.856416727527574"><ele>32.0</ele><time>2026-04-06T09:54:05Z</time></trkpt><trkpt lat="38.89566931176234" lon="8.856363395722175"><ele>30.499999999999996</ele><time>2026-04-06T09:54:08Z</time></trkpt><trkpt lat="38.895729864709786" lon="8.856336808616296"><ele>29.0</ele><time>2026-04-06T09:54:10Z</time></trkpt><trkpt lat="38.895817943364555" lon="8.856291383292204"><ele>29.0</ele><time>2026-04-06T09:54:12Z</time></trkpt><trkpt lat="38.89591126582237" lon="8.856258982646334"><ele>29.0</ele><time>2026-04-06T09:54:14Z</time></trkpt><trkpt lat="38.896001358917346" lon="8.856218671346262"><ele>29.0</ele><time>2026-04-06T09:54:16Z</time></trkpt><trkpt lat="38.89609669419994" lon="8.85619156501324"><ele>29.0</ele><time>2026-04-06T09:54:18Z</time></trkpt><trkpt lat="38.89619196954011" lon="8.856174382104507"><ele>29.0</ele><time>2026-04-06T09:54:20Z</time></trkpt><trkpt lat="38.89626919731116" lon="8.85612244129422"><ele>30.0</ele><time>2026-04-06T09:54:22Z</time></trkpt><trkpt lat="38.89633909183944" lon="8.856049515006651"><ele>31.0</ele><time>2026-04-06T09:54:24Z</time></trkpt><trkpt lat="38.896426088375456" lon="8.855985879348106"><ele>32.0</ele><time>2026-04-06T09:54:26Z</time></trkpt><trkpt lat="38.89648631939603" lon="8.85589646828812"><ele>33.0</ele><time>2026-04-06T09:54:28Z</time></trkpt><trkpt lat="38.896559151613" lon="8.855827146028837"><ele>34.0</ele><time>2026-04-06T09:54:30Z</time></trkpt><trkpt lat="38.896636305751024" lon="8.855752251212317"><ele>34.0</ele><time>2026-04-06T09:54:32Z</time></trkpt><trkpt lat="38.89671530573177" lon="8.855676604284557"><ele>34.0</ele><time>2026-04-06T09:54:34Z</time></trkpt><trkpt lat="38.89679696940451" lon="8.855597410700097"><ele>34.0</ele><time>2026-04-06T09:54:36Z</time></trkpt><trkpt lat="38.89687014991774" lon="8.855502883366503"><ele>34.0</ele><time>2026-04-06T09:54:38Z</time></trkpt><trkpt lat="38.8969582248429" lon="8.85542426829751"><ele>34.0</ele><time>2026-04-06T09:54:40Z</time></trkpt><trkpt lat="38.89704057644474" lon="8.855327693698989"><ele>35.25</ele><time>2026-04-06T09:54:42Z</time></trkpt><trkpt lat="38.89711294845451" lon="8.855210206078542"><ele>36.5</ele><time>2026-04-06T09:54:44Z</time></trkpt><trkpt lat="38.89715634395771" lon="8.855066417687215"><ele>37.75</ele><time>2026-04-06T09:54:46Z</time></trkpt><trkpt lat="38.89720262310351" lon="8.854920942610612"><ele>39.0</ele><time>2026-04-06T09:54:48Z</time></trkpt><trkpt lat="38.89725255897047" lon="8.854787687757673"><ele>39.0</ele><time>2026-04-06T09:54:50Z</time></trkpt><trkpt lat="38.89729963160702" lon="8.854655940298562"><ele>39.0</ele><time>2026-04-06T09:54:52Z</time></trkpt><trkpt lat="38.897325794386944" lon="8.854582101497142"><ele>39.0</ele><time>2026-04-06T09:54:53Z</time></trkpt><trkpt lat="38.89736080458432" lon="8.854500666920432"><ele>39.0</ele><time>2026-04-06T09:54:54Z</time></trkpt><trkpt lat="38.89739630921539" lon="8.85441560049775"><ele>39.0</ele><time>2026-04-06T09:54:55Z</time></trkpt><trkpt lat="38.89743090697455" lon="8.854331136991963"><ele>39.0</ele><time>2026-04-06T09:54:56Z</time></trkpt><trkpt lat="38.897467801534106" lon="8.854242024954326"><ele>38.57142857142858</ele><time>2026-04-06T09:54:57Z</time></trkpt><trkpt lat="38.897524309473155" lon="8.854166718045455"><ele>38.14285714285714</ele><time>2026-04-06T09:54:58Z</time></trkpt><trkpt lat="38.897574470776455" lon="8.854096645960842"><ele>37.714285714285715</ele><time>2026-04-06T09:54:59Z</time></trkpt><trkpt lat="38.89762948097881" lon="8.854042249923038"><ele>37.28571428571429</ele><time>2026-04-06T09:55:00Z</time></trkpt><trkpt lat="38.89768370874343" lon="8.853985023248153"><ele>36.85714285714286</ele><time>2026-04-06T09:55:01Z</time></trkpt><trkpt lat="38.89773473263729" lon="8.85393117762246"><ele>36.42857142857143</ele><time>2026-04-06T09:55:02Z</time></trkpt><trkpt lat="38.89777553107496" lon="8.853865251277108"><ele>36.0</ele><time>2026-04-06T09:55:03Z</time></trkpt><trkpt lat="38.89787076768846" lon="8.853764736609318"><ele>35.6</ele><time>2026-04-06T09:55:05Z</time></trkpt><trkpt lat="38.89794626815733" lon="8.853686477900593"><ele>35.2</ele><time>2026-04-06T09:55:07Z</time></trkpt><trkpt lat="38.89800967305382" lon="8.853591526214839"><ele>34.8</ele><time>2026-04-06T09:55:09Z</time></trkpt><trkpt lat="38.89808749536851" lon="8.853496766795713"><ele>34.4</ele><time>2026-04-06T09:55:11Z</time></trkpt><trkpt lat="38.89817446889453" lon="8.853400768992982"><ele>34.0</ele><time>2026-04-06T09:55:13Z</time></trkpt><trkpt lat="38.898259908247276" lon="8.853309620158672"><ele>34.0</ele><time>2026-04-06T09:55:15Z</time></trkpt><trkpt lat="38.89835016194545" lon="8.853221920638452"><ele>34.0</ele><time>2026-04-06T09:55:17Z</time></trkpt><trkpt lat="38.8984082529872" lon="8.85318043656441"><ele>34.0</ele><time>2026-04-06T09:55:18Z</time></trkpt><trkpt lat="38.89846795039351" lon="8.853151141399396"><ele>34.0</ele><time>2026-04-06T09:55:19Z</time></trkpt><trkpt lat="38.89856321977652" lon="8.853089197197475"><ele>34.0</ele><time>2026-04-06T09:55:21Z</time></trkpt><trkpt lat="38.89864954847092" lon="8.853030243753505"><ele>34.0</ele><time>2026-04-06T09:55:23Z</time></trkpt><trkpt lat="38.89873937660623" lon="8.852966562934188"><ele>36.2</ele><time>2026-04-06T09:55:25Z</time></trkpt><trkpt lat="38.89883976756187" lon="8.85291687294286"><ele>38.4</ele><time>2026-04-06T09:55:27Z</time></trkpt><trkpt lat="38.89893210014791" lon="8.852882414599229"><ele>40.6</ele><time>2026-04-06T09:55:29Z</time></trkpt><trkpt lat="38.8990318074996" lon="8.852854472888561"><ele>42.8</ele><time>2026-04-06T09:55:31Z</time></trkpt><trkpt lat="38.89913453003067" lon="8.852794308293248"><ele>45.0</ele><time>2026-04-06T09:55:33Z</time></trkpt><trkpt lat="38.89923997218911" lon="8.85274727186179"><ele>45.4</ele><time>2026-04-06T09:55:35Z</time></trkpt><trkpt lat="38.899336747766185" lon="8.852700308209831"><ele>45.8</ele><time>2026-04-06T09:55:37Z</time></trkpt><trkpt lat="38.89943986399825" lon="8.852649326595037"><ele>46.2</ele><time>2026-04-06T09:55:39Z</time></trkpt><trkpt lat="38.89954259676296" lon="8.852598534570445"><ele>46.6</ele><time>2026-04-06T09:55:41Z</time></trkpt><trkpt lat="38.89965082024171" lon="8.852564200648882"><ele>47.0</ele><time>2026-04-06T09:55:43Z</time></trkpt><trkpt lat="38.899749754164745" lon="8.852504327315856"><ele>47.0</ele><time>2026-04-06T09:55:45Z</time></trkpt><trkpt lat="38.89983885010371" lon="8.852451906764648"><ele>47.0</ele><time>2026-04-06T09:55:47Z</time></trkpt><trkpt lat="38.89994163876877" lon="8.852401022230842"><ele>47.0</ele><time>2026-04-06T09:55:49Z</time></trkpt><trkpt lat="38.90005221550429" lon="8.852359445843025"><ele>47.0</ele><time>2026-04-06T09:55:51Z</time></trkpt><trkpt lat="38.900114362520526" lon="8.852339942621537"><ele>47.0</ele><time>2026-04-06T09:55:52Z</time></trkpt><trkpt lat="38.900219090418474" lon="8.8522750932936"><ele>49.6</ele><time>2026-04-06T09:55:54Z</time></trkpt><trkpt lat="38.900261178577296" lon="8.852210800022926"><ele>52.2</ele><time>2026-04-06T09:55:55Z</time></trkpt><trkpt lat="38.900342850663804" lon="8.852178756258848"><ele>54.8</ele><time>2026-04-06T09:55:57Z</time></trkpt><trkpt lat="38.90043013357922" lon="8.852101022121882"><ele>57.4</ele><time>2026-04-06T09:55:59Z</time></trkpt><trkpt lat="38.900531937657114" lon="8.852065749703929"><ele>60.0</ele><time>2026-04-06T09:56:01Z</time></trkpt><trkpt lat="38.90062401230075" lon="8.85202096919614"><ele>60.0</ele><time>2026-04-06T09:56:03Z</time></trkpt><trkpt lat="38.900708722559216" lon="8.851979794024707"><ele>60.0</ele><time>2026-04-06T09:56:05Z</time></trkpt><trkpt lat="38.900782399644456" lon="8.851898213675454"><ele>60.0</ele><time>2026-04-06T09:56:07Z</time></trkpt><trkpt lat="38.90085827612709" lon="8.851816795731958"><ele>60.0</ele><time>2026-04-06T09:56:09Z</time></trkpt><trkpt lat="38.90093856475885" lon="8.851744428561943"><ele>60.0</ele><time>2026-04-06T09:56:11Z</time></trkpt><trkpt lat="38.90099445363078" lon="8.85164523513879"><ele>59.333333333333336</ele><time>2026-04-06T09:56:13Z</time></trkpt><trkpt lat="38.901055721077064" lon="8.851554546517523"><ele>58.66666666666667</ele><time>2026-04-06T09:56:15Z</time></trkpt><trkpt lat="38.90110957217574" lon="8.851479677068605"><ele>58.0</ele><time>2026-04-06T09:56:17Z</time></trkpt><trkpt lat="38.90116038927202" lon="8.851367185743374"><ele>57.333333333333336</ele><time>2026-04-06T09:56:19Z</time></trkpt><trkpt lat="38.901212045828856" lon="8.85127039704114"><ele>56.66666666666667</ele><time>2026-04-06T09:56:21Z</time></trkpt><trkpt lat="38.901274136319" lon="8.851227169800252"><ele>56.0</ele><time>2026-04-06T09:56:23Z</time></trkpt><trkpt lat="38.901334171661375" lon="8.85118415032333"><ele>56.00000000000001</ele><time>2026-04-06T09:56:28Z</time></trkpt><trkpt lat="38.90127409197143" lon="8.851153112854336"><ele>56.0</ele><time>2026-04-06T09:56:36Z</time></trkpt><trkpt lat="38.90124219978089" lon="8.851246057492862"><ele>56.0</ele><time>2026-04-06T09:56:38Z</time></trkpt><trkpt lat="38.90117235232387" lon="8.851322008449818"><ele>56.0</ele><time>2026-04-06T09:56:40Z</time></trkpt><trkpt lat="38.90113084310233" lon="8.851389134303128"><ele>56.00000000000001</ele><time>2026-04-06T09:56:42Z</time></trkpt><trkpt lat="38.901054283118135" lon="8.851348277240804"><ele>56.0</ele><time>2026-04-06T09:56:46Z</time></trkpt><trkpt lat="38.90100672791119" lon="8.851261195359376"><ele>56.0</ele><time>2026-04-06T09:56:48Z</time></trkpt><trkpt lat="38.90095699893575" lon="8.85118146401878"><ele>56.0</ele><time>2026-04-06T09:56:51Z</time></trkpt><trkpt lat="38.90095434133" lon="8.851080680021218"><ele>56.0</ele><time>2026-04-06T09:56:54Z</time></trkpt><trkpt lat="38.9009692222832" lon="8.851001276748816"><ele>56.0</ele><time>2026-04-06T09:56:56Z</time></trkpt><trkpt lat="38.90099713570976" lon="8.850923275353413"><ele>56.0</ele><time>2026-04-06T09:56:58Z</time></trkpt><trkpt lat="38.901031138573835" lon="8.850849190565548"><ele>56.0</ele><time>2026-04-06T09:57:00Z</time></trkpt><trkpt lat="38.901067304623275" lon="8.850762172506226"><ele>56.0</ele><time>2026-04-06T09:57:02Z</time></trkpt><trkpt lat="38.90111195329141" lon="8.850665713527082"><ele>55.833333333333336</ele><time>2026-04-06T09:57:05Z</time></trkpt><trkpt lat="38.90117013280147" lon="8.85058023771324"><ele>55.66666666666667</ele><time>2026-04-06T09:57:08Z</time></trkpt><trkpt lat="38.90123145593928" lon="8.850505910611119"><ele>55.5</ele><time>2026-04-06T09:57:11Z</time></trkpt><trkpt lat="38.901305630303426" lon="8.850422630456695"><ele>55.33333333333333</ele><time>2026-04-06T09:57:14Z</time></trkpt><trkpt lat="38.901350958117064" lon="8.850359627731583"><ele>55.166666666666664</ele><time>2026-04-06T09:57:16Z</time></trkpt><trkpt lat="38.90140625579374" lon="8.850284020882958"><ele>55.0</ele><time>2026-04-06T09:57:19Z</time></trkpt><trkpt lat="38.90144631429658" lon="8.850200870508264"><ele>55.166666666666664</ele><time>2026-04-06T09:57:22Z</time></trkpt><trkpt lat="38.901429473589836" lon="8.850099275268766"><ele>55.33333333333333</ele><time>2026-04-06T09:57:24Z</time></trkpt><trkpt lat="38.90141877892568" lon="8.849975215151833"><ele>55.5</ele><time>2026-04-06T09:57:26Z</time></trkpt><trkpt lat="38.901396506789524" lon="8.849859236016151"><ele>55.66666666666667</ele><time>2026-04-06T09:57:28Z</time></trkpt><trkpt lat="38.901371350993664" lon="8.849775996815362"><ele>55.833333333333336</ele><time>2026-04-06T09:57:30Z</time></trkpt><trkpt lat="38.90133989179133" lon="8.849678879581262"><ele>56.0</ele><time>2026-04-06T09:57:32Z</time></trkpt><trkpt lat="38.90130768434651" lon="8.849595324732599"><ele>56.00000000000001</ele><time>2026-04-06T09:57:34Z</time></trkpt><trkpt lat="38.90129790452878" lon="8.849504041043936"><ele>56.0</ele><time>2026-04-06T09:57:36Z</time></trkpt><trkpt lat="38.90129216073847" lon="8.849399283450264"><ele>56.0</ele><time>2026-04-06T09:57:38Z</time></trkpt><trkpt lat="38.90131081822966" lon="8.849280233669061"><ele>56.0</ele><time>2026-04-06T09:57:41Z</time></trkpt><trkpt lat="38.90135522780321" lon="8.849206349351778"><ele>56.00000000000001</ele><time>2026-04-06T09:57:43Z</time></trkpt><trkpt lat="38.9014019396761" lon="8.849125704902479"><ele>56.0</ele><time>2026-04-06T09:57:45Z</time></trkpt><trkpt lat="38.901468330666816" lon="8.849037399309482"><ele>55.66666666666667</ele><time>2026-04-06T09:57:48Z</time></trkpt><trkpt lat="38.90152195512717" lon="8.848976921135751"><ele>55.333333333333336</ele><time>2026-04-06T09:57:50Z</time></trkpt><trkpt lat="38.90157871540833" lon="8.848936773290651"><ele>55.0</ele><time>2026-04-06T09:57:52Z</time></trkpt><trkpt lat="38.90159869260981" lon="8.848817461992287"><ele>54.66666666666667</ele><time>2026-04-06T09:57:55Z</time></trkpt><trkpt lat="38.901591727208114" lon="8.848708961761243"><ele>54.333333333333336</ele><time>2026-04-06T09:57:57Z</time></trkpt><trkpt lat="38.90159742809202" lon="8.848606002160341"><ele>54.0</ele><time>2026-04-06T09:57:59Z</time></trkpt><trkpt lat="38.90162201680472" lon="8.848504038719629"><ele>54.333333333333336</ele><time>2026-04-06T09:58:01Z</time></trkpt><trkpt lat="38.90165214605394" lon="8.848421301026589"><ele>54.66666666666667</ele><time>2026-04-06T09:58:03Z</time></trkpt><trkpt lat="38.90169626006543" lon="8.84835241272508"><ele>55.0</ele><time>2026-04-06T09:58:05Z</time></trkpt><trkpt lat="38.901751718696744" lon="8.848274245657691"><ele>55.333333333333336</ele><time>2026-04-06T09:58:07Z</time></trkpt><trkpt lat="38.90180965021797" lon="8.848200426637046"><ele>55.66666666666667</ele><time>2026-04-06T09:58:09Z</time></trkpt><trkpt lat="38.90187109793989" lon="8.848151544745436"><ele>56.0</ele><time>2026-04-06T09:58:11Z</time></trkpt><trkpt lat="38.90193038869871" lon="8.848091784098827"><ele>57.16666666666667</ele><time>2026-04-06T09:58:13Z</time></trkpt><trkpt lat="38.9019701806226" lon="8.847990209262507"><ele>58.333333333333336</ele><time>2026-04-06T09:58:15Z</time></trkpt><trkpt lat="38.902017481070146" lon="8.847901030046183"><ele>59.5</ele><time>2026-04-06T09:58:17Z</time></trkpt><trkpt lat="38.902063910564465" lon="8.847812258976457"><ele>60.66666666666667</ele><time>2026-04-06T09:58:19Z</time></trkpt><trkpt lat="38.90211447831259" lon="8.847744554265349"><ele>61.833333333333336</ele><time>2026-04-06T09:58:21Z</time></trkpt><trkpt lat="38.9021794392482" lon="8.847687069960473"><ele>63.0</ele><time>2026-04-06T09:58:23Z</time></trkpt><trkpt lat="38.90225181237328" lon="8.847633761653597"><ele>62.42857142857143</ele><time>2026-04-06T09:58:25Z</time></trkpt><trkpt lat="38.902301403080266" lon="8.84757986380875"><ele>61.85714285714286</ele><time>2026-04-06T09:58:27Z</time></trkpt><trkpt lat="38.90236481731351" lon="8.847516661604924"><ele>61.285714285714285</ele><time>2026-04-06T09:58:30Z</time></trkpt><trkpt lat="38.90241495521072" lon="8.847462408042333"><ele>60.714285714285715</ele><time>2026-04-06T09:58:33Z</time></trkpt><trkpt lat="38.902450492628915" lon="8.847367191802524"><ele>60.142857142857146</ele><time>2026-04-06T09:58:37Z</time></trkpt><trkpt lat="38.9025071551624" lon="8.847284410624122"><ele>59.57142857142857</ele><time>2026-04-06T09:58:41Z</time></trkpt><trkpt lat="38.90256053049998" lon="8.847238320415672"><ele>59.0</ele><time>2026-04-06T09:58:45Z</time></trkpt><trkpt lat="38.90260889049994" lon="8.847178633231133"><ele>59.14285714285714</ele><time>2026-04-06T09:59:11Z</time></trkpt><trkpt lat="38.90264003946147" lon="8.847103181085457"><ele>59.28571428571429</ele><time>2026-04-06T09:59:14Z</time></trkpt><trkpt lat="38.90269060621119" lon="8.847038085416209"><ele>59.42857142857143</ele><time>2026-04-06T09:59:17Z</time></trkpt><trkpt lat="38.90275586116509" lon="8.846992681338609"><ele>59.57142857142857</ele><time>2026-04-06T09:59:20Z</time></trkpt><trkpt lat="38.90280601755015" lon="8.84692186855998"><ele>59.71428571428571</ele><time>2026-04-06T09:59:23Z</time></trkpt><trkpt lat="38.90286034003333" lon="8.846849530844233"><ele>59.85714285714286</ele><time>2026-04-06T09:59:26Z</time></trkpt><trkpt lat="38.9029197508732" lon="8.846797598724152"><ele>60.0</ele><time>2026-04-06T09:59:29Z</time></trkpt><trkpt lat="38.90297173069146" lon="8.846717242821512"><ele>60.0</ele><time>2026-04-06T09:59:32Z</time></trkpt><trkpt lat="38.90302005627624" lon="8.846655960570818"><ele>60.0</ele><time>2026-04-06T09:59:35Z</time></trkpt><trkpt lat="38.90307019756435" lon="8.846570661919177"><ele>60.0</ele><time>2026-04-06T09:59:38Z</time></trkpt><trkpt lat="38.90313203726231" lon="8.846479851627246"><ele>60.0</ele><time>2026-04-06T09:59:41Z</time></trkpt><trkpt lat="38.90317677967704" lon="8.846416356442884"><ele>60.0</ele><time>2026-04-06T09:59:43Z</time></trkpt><trkpt lat="38.903228097097816" lon="8.846362892354763"><ele>60.0</ele><time>2026-04-06T09:59:45Z</time></trkpt><trkpt lat="38.90327972765389" lon="8.846306838183757"><ele>60.0</ele><time>2026-04-06T09:59:47Z</time></trkpt><trkpt lat="38.903327281492494" lon="8.846249525490004"><ele>60.0</ele><time>2026-04-06T09:59:49Z</time></trkpt><trkpt lat="38.90338317340601" lon="8.846198981465369"><ele>60.0</ele><time>2026-04-06T09:59:51Z</time></trkpt><trkpt lat="38.90343984225052" lon="8.846125907688268"><ele>60.0</ele><time>2026-04-06T09:59:54Z</time></trkpt><trkpt lat="38.903502609651866" lon="8.846081104564187"><ele>60.0</ele><time>2026-04-06T09:59:56Z</time></trkpt><trkpt lat="38.90355648294616" lon="8.846039234629274"><ele>60.0</ele><time>2026-04-06T09:59:58Z</time></trkpt><trkpt lat="38.903609469459475" lon="8.84598140490165"><ele>60.0</ele><time>2026-04-06T10:00:00Z</time></trkpt><trkpt lat="38.903672175458574" lon="8.84593104501462"><ele>60.0</ele><time>2026-04-06T10:00:03Z</time></trkpt><trkpt lat="38.90373639429226" lon="8.845902076393504"><ele>61.142857142857146</ele><time>2026-04-06T10:00:07Z</time></trkpt><trkpt lat="38.903763035141466" lon="8.845828239747783"><ele>62.28571428571428</ele><time>2026-04-06T10:00:09Z</time></trkpt><trkpt lat="38.903831638349146" lon="8.845779300302263"><ele>63.42857142857142</ele><time>2026-04-06T10:00:12Z</time></trkpt><trkpt lat="38.90387240766708" lon="8.845714942799093"><ele>64.57142857142857</ele><time>2026-04-06T10:00:14Z</time></trkpt><trkpt lat="38.9039105540092" lon="8.845649487854045"><ele>65.71428571428571</ele><time>2026-04-06T10:00:16Z</time></trkpt><trkpt lat="38.90394952448826" lon="8.845582984466494"><ele>66.85714285714285</ele><time>2026-04-06T10:00:18Z</time></trkpt><trkpt lat="38.90398920201658" lon="8.84550819388373"><ele>68.0</ele><time>2026-04-06T10:00:20Z</time></trkpt><trkpt lat="38.90402592792818" lon="8.845441344961358"><ele>68.0</ele><time>2026-04-06T10:00:22Z</time></trkpt><trkpt lat="38.90406427880743" lon="8.845365190589082"><ele>68.0</ele><time>2026-04-06T10:00:24Z</time></trkpt><trkpt lat="38.90411181841697" lon="8.845311444979115"><ele>68.0</ele><time>2026-04-06T10:00:26Z</time></trkpt><trkpt lat="38.90417190189872" lon="8.845232234000118"><ele>68.0</ele><time>2026-04-06T10:00:29Z</time></trkpt><trkpt lat="38.90424667842782" lon="8.845154519112388"><ele>68.0</ele><time>2026-04-06T10:00:32Z</time></trkpt><trkpt lat="38.9043019591253" lon="8.845095656056529"><ele>68.0</ele><time>2026-04-06T10:00:34Z</time></trkpt><trkpt lat="38.9043700331676" lon="8.845042269973678"><ele>68.42857142857142</ele><time>2026-04-06T10:00:36Z</time></trkpt><trkpt lat="38.90442120022923" lon="8.84497950191845"><ele>68.85714285714286</ele><time>2026-04-06T10:00:38Z</time></trkpt><trkpt lat="38.90447866985394" lon="8.844924081162887"><ele>69.28571428571428</ele><time>2026-04-06T10:00:40Z</time></trkpt><trkpt lat="38.904531195393794" lon="8.84486243994751"><ele>69.71428571428571</ele><time>2026-04-06T10:00:42Z</time></trkpt><trkpt lat="38.90458656593058" lon="8.84481291837801"><ele>70.14285714285714</ele><time>2026-04-06T10:00:44Z</time></trkpt><trkpt lat="38.90463274596916" lon="8.84473367739597"><ele>70.57142857142857</ele><time>2026-04-06T10:00:47Z</time></trkpt><trkpt lat="38.90463081057161" lon="8.844650829295894"><ele>71.0</ele><time>2026-04-06T10:01:23Z</time></trkpt><trkpt lat="38.904620519771086" lon="8.844550989347264"><ele>71.0</ele><time>2026-04-06T10:01:26Z</time></trkpt><trkpt lat="38.90458456998358" lon="8.844477929950328"><ele>71.0</ele><time>2026-04-06T10:01:29Z</time></trkpt><trkpt lat="38.90462737520544" lon="8.844557457502066"><ele>71.0</ele><time>2026-04-06T10:01:52Z</time></trkpt><trkpt lat="38.90465036921725" lon="8.844636810056413"><ele>71.0</ele><time>2026-04-06T10:01:53Z</time></trkpt><trkpt lat="38.90464131440144" lon="8.844734630704872"><ele>71.0</ele><time>2026-04-06T10:01:55Z</time></trkpt><trkpt lat="38.9045859454353" lon="8.844812341789968"><ele>71.0</ele><time>2026-04-06T10:01:57Z</time></trkpt><trkpt lat="38.904515557772456" lon="8.84487951405203"><ele>71.0</ele><time>2026-04-06T10:01:59Z</time></trkpt><trkpt lat="38.90445993790434" lon="8.844941496381598"><ele>71.0</ele><time>2026-04-06T10:02:01Z</time></trkpt><trkpt lat="38.904394757681814" lon="8.845007837819045"><ele>71.0</ele><time>2026-04-06T10:02:03Z</time></trkpt><trkpt lat="38.904336017706456" lon="8.845080275329344"><ele>71.0</ele><time>2026-04-06T10:02:05Z</time></trkpt><trkpt lat="38.9042612192656" lon="8.845143318285105"><ele>71.0</ele><time>2026-04-06T10:02:07Z</time></trkpt><trkpt lat="38.90420225573653" lon="8.845211878608591"><ele>71.0</ele><time>2026-04-06T10:02:09Z</time></trkpt><trkpt lat="38.90414163366197" lon="8.845279358381747"><ele>70.5</ele><time>2026-04-06T10:02:11Z</time></trkpt><trkpt lat="38.904095488977234" lon="8.845343986433004"><ele>70.0</ele><time>2026-04-06T10:02:13Z</time></trkpt><trkpt lat="38.90403888851767" lon="8.84543336121721"><ele>69.5</ele><time>2026-04-06T10:02:15Z</time></trkpt><trkpt lat="38.903982788951794" lon="8.845543397357186"><ele>69.0</ele><time>2026-04-06T10:02:17Z</time></trkpt><trkpt lat="38.90394585932758" lon="8.845610745687845"><ele>68.5</ele><time>2026-04-06T10:02:18Z</time></trkpt><trkpt lat="38.90390748101132" lon="8.84568153783775"><ele>68.0</ele><time>2026-04-06T10:02:19Z</time></trkpt><trkpt lat="38.90387497044825" lon="8.845758328384202"><ele>68.0</ele><time>2026-04-06T10:02:20Z</time></trkpt><trkpt lat="38.90382598892373" lon="8.845821188976638"><ele>68.0</ele><time>2026-04-06T10:02:21Z</time></trkpt><trkpt lat="38.903751340986666" lon="8.845889583507791"><ele>68.0</ele><time>2026-04-06T10:02:23Z</time></trkpt><trkpt lat="38.903696310667705" lon="8.84597084855489"><ele>68.0</ele><time>2026-04-06T10:02:26Z</time></trkpt><trkpt lat="38.90363039213662" lon="8.845981739355262"><ele>68.0</ele><time>2026-04-06T10:02:29Z</time></trkpt><trkpt lat="38.90356408531209" lon="8.84603869844758"><ele>68.0</ele><time>2026-04-06T10:02:32Z</time></trkpt><trkpt lat="38.903478935728835" lon="8.846087426577183"><ele>66.66666666666667</ele><time>2026-04-06T10:02:34Z</time></trkpt><trkpt lat="38.90340414419975" lon="8.846169860044093"><ele>65.33333333333334</ele><time>2026-04-06T10:02:37Z</time></trkpt><trkpt lat="38.90335470994799" lon="8.84623394876306"><ele>64.0</ele><time>2026-04-06T10:02:39Z</time></trkpt><trkpt lat="38.903289756828045" lon="8.846300361270577"><ele>62.66666666666667</ele><time>2026-04-06T10:02:41Z</time></trkpt><trkpt lat="38.90321672824023" lon="8.846377020146539"><ele>61.333333333333336</ele><time>2026-04-06T10:02:43Z</time></trkpt><trkpt lat="38.903151512851004" lon="8.846441479940939"><ele>60.0</ele><time>2026-04-06T10:02:45Z</time></trkpt><trkpt lat="38.903090882828145" lon="8.846532349322889"><ele>60.0</ele><time>2026-04-06T10:02:47Z</time></trkpt><trkpt lat="38.903019720541934" lon="8.84663351440237"><ele>60.0</ele><time>2026-04-06T10:02:49Z</time></trkpt><trkpt lat="38.90294888758093" lon="8.846765346353811"><ele>60.0</ele><time>2026-04-06T10:02:51Z</time></trkpt><trkpt lat="38.90289611102951" lon="8.846859875635682"><ele>60.0</ele><time>2026-04-06T10:02:52Z</time></trkpt><trkpt lat="38.902848741227444" lon="8.846920879667191"><ele>60.0</ele><time>2026-04-06T10:02:53Z</time></trkpt><trkpt lat="38.902758496407344" lon="8.847018940156248"><ele>59.833333333333336</ele><time>2026-04-06T10:02:56Z</time></trkpt><trkpt lat="38.902691151125964" lon="8.8471020438682"><ele>59.66666666666667</ele><time>2026-04-06T10:02:58Z</time></trkpt><trkpt lat="38.902635825162854" lon="8.847150881056688"><ele>59.5</ele><time>2026-04-06T10:03:01Z</time></trkpt><trkpt lat="38.90260400678655" lon="8.847245404705575"><ele>59.333333333333336</ele><time>2026-04-06T10:03:05Z</time></trkpt><trkpt lat="38.9025452294357" lon="8.847335977467084"><ele>59.16666666666667</ele><time>2026-04-06T10:03:08Z</time></trkpt><trkpt lat="38.90251014903671" lon="8.847421626345993"><ele>59.0</ele><time>2026-04-06T10:03:10Z</time></trkpt><trkpt lat="38.90244738094486" lon="8.847474019957572"><ele>59.00000000000001</ele><time>2026-04-06T10:03:13Z</time></trkpt><trkpt lat="38.90238330689277" lon="8.847497103268381"><ele>59.0</ele><time>2026-04-06T10:03:16Z</time></trkpt><trkpt lat="38.90233534000141" lon="8.847557251269045"><ele>59.0</ele><time>2026-04-06T10:03:18Z</time></trkpt><trkpt lat="38.90227587206276" lon="8.847618290008748"><ele>59.0</ele><time>2026-04-06T10:03:20Z</time></trkpt><trkpt lat="38.90219833157296" lon="8.847683408223093"><ele>59.00000000000001</ele><time>2026-04-06T10:03:22Z</time></trkpt><trkpt lat="38.90212603516518" lon="8.84774396498459"><ele>59.0</ele><time>2026-04-06T10:03:24Z</time></trkpt><trkpt lat="38.902061195077586" lon="8.847818789824771"><ele>58.400000000000006</ele><time>2026-04-06T10:03:26Z</time></trkpt><trkpt lat="38.90201756851429" lon="8.847914559338914"><ele>57.800000000000004</ele><time>2026-04-06T10:03:28Z</time></trkpt><trkpt lat="38.90195305437459" lon="8.848028977839892"><ele>57.199999999999996</ele><time>2026-04-06T10:03:30Z</time></trkpt><trkpt lat="38.90189578759479" lon="8.848147409018454"><ele>56.599999999999994</ele><time>2026-04-06T10:03:32Z</time></trkpt><trkpt lat="38.90181575725016" lon="8.848211139801025"><ele>56.0</ele><time>2026-04-06T10:03:34Z</time></trkpt><trkpt lat="38.901746548655524" lon="8.848294509887449"><ele>56.0</ele><time>2026-04-06T10:03:36Z</time></trkpt><trkpt lat="38.901671879311905" lon="8.848395434908058"><ele>55.99999999999999</ele><time>2026-04-06T10:03:38Z</time></trkpt><trkpt lat="38.901621935317564" lon="8.848508210183114"><ele>55.99999999999999</ele><time>2026-04-06T10:03:40Z</time></trkpt><trkpt lat="38.90158701980139" lon="8.848644993046662"><ele>56.0</ele><time>2026-04-06T10:03:42Z</time></trkpt><trkpt lat="38.90157739657388" lon="8.848802600085106"><ele>56.0</ele><time>2026-04-06T10:03:44Z</time></trkpt><trkpt lat="38.90157860434705" lon="8.84893707360659"><ele>56.0</ele><time>2026-04-06T10:03:46Z</time></trkpt><trkpt lat="38.901516425169966" lon="8.849005539831257"><ele>55.99999999999999</ele><time>2026-04-06T10:03:48Z</time></trkpt><trkpt lat="38.90143706416789" lon="8.849081337631235"><ele>55.99999999999999</ele><time>2026-04-06T10:03:50Z</time></trkpt><trkpt lat="38.9013571119384" lon="8.849186676613899"><ele>56.0</ele><time>2026-04-06T10:03:52Z</time></trkpt><trkpt lat="38.901300277519994" lon="8.849313309748304"><ele>56.0</ele><time>2026-04-06T10:03:54Z</time></trkpt><trkpt lat="38.90128861466349" lon="8.849444280052579"><ele>56.00000000000001</ele><time>2026-04-06T10:03:56Z</time></trkpt><trkpt lat="38.90131550248179" lon="8.849583027045355"><ele>56.0</ele><time>2026-04-06T10:03:58Z</time></trkpt><trkpt lat="38.90134100034131" lon="8.849695993654414"><ele>56.0</ele><time>2026-04-06T10:04:00Z</time></trkpt><trkpt lat="38.9013756579645" lon="8.8498216863693"><ele>56.0</ele><time>2026-04-06T10:04:02Z</time></trkpt><trkpt lat="38.901392413027615" lon="8.849911338413445"><ele>56.00000000000001</ele><time>2026-04-06T10:04:03Z</time></trkpt><trkpt lat="38.90141015576267" lon="8.849995686943574"><ele>56.0</ele><time>2026-04-06T10:04:04Z</time></trkpt><trkpt lat="38.90141489289426" lon="8.850079858640727"><ele>55.8</ele><time>2026-04-06T10:04:05Z</time></trkpt><trkpt lat="38.90142220023985" lon="8.850208611078358"><ele>55.599999999999994</ele><time>2026-04-06T10:04:07Z</time></trkpt><trkpt lat="38.90141273154114" lon="8.850290584813047"><ele>55.4</ele><time>2026-04-06T10:04:09Z</time></trkpt><trkpt lat="38.90136142143344" lon="8.850373666195575"><ele>55.2</ele><time>2026-04-06T10:04:11Z</time></trkpt><trkpt lat="38.90129046411869" lon="8.850458255463174"><ele>55.0</ele><time>2026-04-06T10:04:13Z</time></trkpt><trkpt lat="38.901211448667574" lon="8.850549461259627"><ele>55.0</ele><time>2026-04-06T10:04:15Z</time></trkpt><trkpt lat="38.90115666747887" lon="8.850621235862308"><ele>55.0</ele><time>2026-04-06T10:04:17Z</time></trkpt><trkpt lat="38.90109377515438" lon="8.850710184195732"><ele>55.0</ele><time>2026-04-06T10:04:19Z</time></trkpt><trkpt lat="38.901040628597585" lon="8.850838556428364"><ele>55.0</ele><time>2026-04-06T10:04:21Z</time></trkpt><trkpt lat="38.90099733166135" lon="8.850940505912185"><ele>55.0</ele><time>2026-04-06T10:04:23Z</time></trkpt><trkpt lat="38.900964083591084" lon="8.851044919164442"><ele>55.2</ele><time>2026-04-06T10:04:25Z</time></trkpt><trkpt lat="38.900957626767074" lon="8.85117872948397"><ele>55.4</ele><time>2026-04-06T10:04:27Z</time></trkpt><trkpt lat="38.90101486665186" lon="8.851293170869996"><ele>55.599999999999994</ele><time>2026-04-06T10:04:29Z</time></trkpt><trkpt lat="38.901093411303" lon="8.851380488958885"><ele>55.8</ele><time>2026-04-06T10:04:31Z</time></trkpt><trkpt lat="38.90112024572433" lon="8.851474807353037"><ele>56.0</ele><time>2026-04-06T10:04:33Z</time></trkpt><trkpt lat="38.90103376192677" lon="8.851542814943716"><ele>56.0</ele><time>2026-04-06T10:04:35Z</time></trkpt><trkpt lat="38.900980057797845" lon="8.851624932020185"><ele>55.99999999999999</ele><time>2026-04-06T10:04:37Z</time></trkpt><trkpt lat="38.90092554604319" lon="8.85169997451085"><ele>55.99999999999999</ele><time>2026-04-06T10:04:39Z</time></trkpt><trkpt lat="38.90086360759235" lon="8.851778721037167"><ele>56.0</ele><time>2026-04-06T10:04:41Z</time></trkpt><trkpt lat="38.90079407540563" lon="8.851855812306294"><ele>56.0</ele><time>2026-04-06T10:04:43Z</time></trkpt><trkpt lat="38.90069784724507" lon="8.851935725784084"><ele>56.8</ele><time>2026-04-06T10:04:45Z</time></trkpt><trkpt lat="38.900612657894584" lon="8.8519808649581"><ele>57.599999999999994</ele><time>2026-04-06T10:04:47Z</time></trkpt><trkpt lat="38.9005330114019" lon="8.852040664413781"><ele>58.4</ele><time>2026-04-06T10:04:49Z</time></trkpt><trkpt lat="38.90043954006464" lon="8.85207100806039"><ele>59.2</ele><time>2026-04-06T10:04:51Z</time></trkpt><trkpt lat="38.900348102905006" lon="8.852127788114743"><ele>60.0</ele><time>2026-04-06T10:04:53Z</time></trkpt><trkpt lat="38.90027280225625" lon="8.852197695781708"><ele>60.0</ele><time>2026-04-06T10:04:55Z</time></trkpt><trkpt lat="38.900188094194185" lon="8.852254549088435"><ele>60.0</ele><time>2026-04-06T10:04:57Z</time></trkpt><trkpt lat="38.900096363039" lon="8.85231945637398"><ele>60.0</ele><time>2026-04-06T10:04:59Z</time></trkpt><trkpt lat="38.899996059447275" lon="8.852348844799982"><ele>60.0</ele><time>2026-04-06T10:05:01Z</time></trkpt><trkpt lat="38.89989234415623" lon="8.852379694773333"><ele>60.0</ele><time>2026-04-06T10:05:03Z</time></trkpt><trkpt lat="38.89977231004592" lon="8.852439116502708"><ele>60.0</ele><time>2026-04-06T10:05:05Z</time></trkpt><trkpt lat="38.89970455009244" lon="8.852472660345219"><ele>60.0</ele><time>2026-04-06T10:05:06Z</time></trkpt><trkpt lat="38.89963251071162" lon="8.852508322770115"><ele>60.0</ele><time>2026-04-06T10:05:07Z</time></trkpt><trkpt lat="38.899562543455296" lon="8.852542950046812"><ele>60.0</ele><time>2026-04-06T10:05:08Z</time></trkpt><trkpt lat="38.899494240744794" lon="8.852576719507198"><ele>60.0</ele><time>2026-04-06T10:05:09Z</time></trkpt><trkpt lat="38.89942870250509" lon="8.852609122208424"><ele>60.0</ele><time>2026-04-06T10:05:10Z</time></trkpt><trkpt lat="38.899363602383076" lon="8.852641308367826"><ele>60.0</ele><time>2026-04-06T10:05:11Z</time></trkpt><trkpt lat="38.89929869159804" lon="8.852673400797581"><ele>57.85714285714286</ele><time>2026-04-06T10:05:12Z</time></trkpt><trkpt lat="38.89923758477042" lon="8.852703612366112"><ele>55.71428571428571</ele><time>2026-04-06T10:05:13Z</time></trkpt><trkpt lat="38.89911890967951" lon="8.852756109004403"><ele>53.57142857142857</ele><time>2026-04-06T10:05:15Z</time></trkpt><trkpt lat="38.89905897509277" lon="8.852782845180672"><ele>51.42857142857143</ele><time>2026-04-06T10:05:16Z</time></trkpt><trkpt lat="38.89899938788571" lon="8.852809426182384"><ele>49.28571428571429</ele><time>2026-04-06T10:05:17Z</time></trkpt><trkpt lat="38.898939157400555" lon="8.852836294199978"><ele>47.14285714285714</ele><time>2026-04-06T10:05:18Z</time></trkpt><trkpt lat="38.898877321677176" lon="8.852865875865643"><ele>45.0</ele><time>2026-04-06T10:05:19Z</time></trkpt><trkpt lat="38.89881374906658" lon="8.852897065793949"><ele>45.0</ele><time>2026-04-06T10:05:20Z</time></trkpt><trkpt lat="38.89874745490154" lon="8.852933540099146"><ele>45.0</ele><time>2026-04-06T10:05:21Z</time></trkpt><trkpt lat="38.898678454185486" lon="8.852973101133998"><ele>45.0</ele><time>2026-04-06T10:05:22Z</time></trkpt><trkpt lat="38.898609264666604" lon="8.853013796813295"><ele>45.0</ele><time>2026-04-06T10:05:23Z</time></trkpt><trkpt lat="38.89853968714054" lon="8.853058665497493"><ele>45.0</ele><time>2026-04-06T10:05:24Z</time></trkpt><trkpt lat="38.89847284605052" lon="8.853101695636216"><ele>45.0</ele><time>2026-04-06T10:05:25Z</time></trkpt><trkpt lat="38.89840530060805" lon="8.853145520141704"><ele>45.714285714285715</ele><time>2026-04-06T10:05:26Z</time></trkpt><trkpt lat="38.8983361388416" lon="8.853194683438081"><ele>46.42857142857143</ele><time>2026-04-06T10:05:27Z</time></trkpt><trkpt lat="38.89828125871903" lon="8.853259881358094"><ele>47.142857142857146</ele><time>2026-04-06T10:05:28Z</time></trkpt><trkpt lat="38.898213255686635" lon="8.853297949664874"><ele>47.85714285714286</ele><time>2026-04-06T10:05:29Z</time></trkpt><trkpt lat="38.89815662092718" lon="8.853350059078103"><ele>48.57142857142857</ele><time>2026-04-06T10:05:30Z</time></trkpt><trkpt lat="38.89810482658031" lon="8.85341116291263"><ele>49.28571428571429</ele><time>2026-04-06T10:05:31Z</time></trkpt><trkpt lat="38.89805875357679" lon="8.853477266090161"><ele>50.0</ele><time>2026-04-06T10:05:32Z</time></trkpt><trkpt lat="38.8979983944019" lon="8.853560580096683"><ele>50.0</ele><time>2026-04-06T10:05:33Z</time></trkpt><trkpt lat="38.897915567158115" lon="8.853662343068523"><ele>50.0</ele><time>2026-04-06T10:05:35Z</time></trkpt><trkpt lat="38.89784378735696" lon="8.853777405014617"><ele>50.0</ele><time>2026-04-06T10:05:37Z</time></trkpt><trkpt lat="38.89775452891786" lon="8.853855004323844"><ele>50.0</ele><time>2026-04-06T10:05:39Z</time></trkpt><trkpt lat="38.89766407352729" lon="8.853950462053964"><ele>48.16666666666667</ele><time>2026-04-06T10:05:41Z</time></trkpt><trkpt lat="38.89757519141089" lon="8.854042231972011"><ele>46.333333333333336</ele><time>2026-04-06T10:05:43Z</time></trkpt><trkpt lat="38.8975260462263" lon="8.85410132415688"><ele>44.5</ele><time>2026-04-06T10:05:44Z</time></trkpt><trkpt lat="38.89748183900657" lon="8.854169997510994"><ele>42.66666666666667</ele><time>2026-04-06T10:05:45Z</time></trkpt><trkpt lat="38.897444134634966" lon="8.85424264800592"><ele>40.833333333333336</ele><time>2026-04-06T10:05:46Z</time></trkpt><trkpt lat="38.897392450582515" lon="8.854380837512192"><ele>39.0</ele><time>2026-04-06T10:05:48Z</time></trkpt><trkpt lat="38.89733212320822" lon="8.854492171893291"><ele>39.0</ele><time>2026-04-06T10:05:50Z</time></trkpt><trkpt lat="38.89728541941598" lon="8.85460867890288"><ele>39.0</ele><time>2026-04-06T10:05:52Z</time></trkpt><trkpt lat="38.89724172863811" lon="8.854731126101198"><ele>39.0</ele><time>2026-04-06T10:05:54Z</time></trkpt><trkpt lat="38.897211644956286" lon="8.854859860415594"><ele>39.0</ele><time>2026-04-06T10:05:56Z</time></trkpt><trkpt lat="38.89715806125984" lon="8.854985312985596"><ele>39.0</ele><time>2026-04-06T10:05:58Z</time></trkpt><trkpt lat="38.89711825207359" lon="8.855113093928948"><ele>39.2</ele><time>2026-04-06T10:06:00Z</time></trkpt><trkpt lat="38.89706938256198" lon="8.85523380934458"><ele>39.4</ele><time>2026-04-06T10:06:02Z</time></trkpt><trkpt lat="38.897000273755545" lon="8.855341565380485"><ele>39.6</ele><time>2026-04-06T10:06:04Z</time></trkpt><trkpt lat="38.896917250335356" lon="8.85542492900245"><ele>39.8</ele><time>2026-04-06T10:06:06Z</time></trkpt><trkpt lat="38.89683520304446" lon="8.855528006737284"><ele>40.0</ele><time>2026-04-06T10:06:08Z</time></trkpt><trkpt lat="38.89673446827003" lon="8.855604675767141"><ele>39.5</ele><time>2026-04-06T10:06:10Z</time></trkpt><trkpt lat="38.89664328085471" lon="8.855692303270002"><ele>39.0</ele><time>2026-04-06T10:06:12Z</time></trkpt><trkpt lat="38.89654655839033" lon="8.855785560041108"><ele>38.5</ele><time>2026-04-06T10:06:14Z</time></trkpt><trkpt lat="38.89646423752924" lon="8.855899104082527"><ele>38.0</ele><time>2026-04-06T10:06:16Z</time></trkpt><trkpt lat="38.89637800940435" lon="8.856008573412176"><ele>38.0</ele><time>2026-04-06T10:06:18Z</time></trkpt><trkpt lat="38.896323033707624" lon="8.856051566412834"><ele>38.0</ele><time>2026-04-06T10:06:19Z</time></trkpt><trkpt lat="38.89621279499438" lon="8.856126476446903"><ele>38.0</ele><time>2026-04-06T10:06:21Z</time></trkpt><trkpt lat="38.89614707978322" lon="8.85616073299604"><ele>38.0</ele><time>2026-04-06T10:06:22Z</time></trkpt><trkpt lat="38.89606819625454" lon="8.85619701757138"><ele>38.0</ele><time>2026-04-06T10:06:23Z</time></trkpt><trkpt lat="38.895997071500794" lon="8.856226079038965"><ele>38.0</ele><time>2026-04-06T10:06:24Z</time></trkpt><trkpt lat="38.89592643907342" lon="8.856271496455363"><ele>36.5</ele><time>2026-04-06T10:06:25Z</time></trkpt><trkpt lat="38.89585325911761" lon="8.856298990175825"><ele>35.0</ele><time>2026-04-06T10:06:26Z</time></trkpt><trkpt lat="38.895781482645944" lon="8.856331917583205"><ele>33.5</ele><time>2026-04-06T10:06:27Z</time></trkpt><trkpt lat="38.895707633616645" lon="8.856340806555414"><ele>32.0</ele><time>2026-04-06T10:06:28Z</time></trkpt><trkpt lat="38.89563656087997" lon="8.856377038376566"><ele>30.499999999999996</ele><time>2026-04-06T10:06:29Z</time></trkpt><trkpt lat="38.89557054240164" lon="8.856425612989787"><ele>29.0</ele><time>2026-04-06T10:06:31Z</time></trkpt><trkpt lat="38.89558089545588" lon="8.856553518827257"><ele>28.999999999999996</ele><time>2026-04-06T10:07:22Z</time></trkpt><trkpt lat="38.89564687921906" lon="8.856610546723994"><ele>29.0</ele><time>2026-04-06T10:07:24Z</time></trkpt><trkpt lat="38.895725348186495" lon="8.856693195237002"><ele>29.0</ele><time>2026-04-06T10:07:26Z</time></trkpt><trkpt lat="38.89578319812795" lon="8.85674781911777"><ele>29.0</ele><time>2026-04-06T10:07:27Z</time></trkpt><trkpt lat="38.8958812686618" lon="8.856842638070649"><ele>28.999999999999996</ele><time>2026-04-06T10:07:29Z</time></trkpt><trkpt lat="38.89593087378081" lon="8.856894943511222"><ele>29.0</ele><time>2026-04-06T10:07:30Z</time></trkpt><trkpt lat="38.89603581659656" lon="8.856965037473184"><ele>30.666666666666664</ele><time>2026-04-06T10:07:32Z</time></trkpt><trkpt lat="38.896079126417916" lon="8.857100072172265"><ele>32.33333333333333</ele><time>2026-04-06T10:07:34Z</time></trkpt><trkpt lat="38.89612366043671" lon="8.857207296663244"><ele>34.0</ele><time>2026-04-06T10:07:36Z</time></trkpt><trkpt lat="38.89615153946572" lon="8.85729427724073"><ele>35.666666666666664</ele><time>2026-04-06T10:07:38Z</time></trkpt><trkpt lat="38.89616323017436" lon="8.857377910802207"><ele>37.333333333333336</ele><time>2026-04-06T10:07:41Z</time></trkpt><trkpt lat="38.89614443594621" lon="8.857457053124042"><ele>39.0</ele><time>2026-04-06T10:07:46Z</time></trkpt><trkpt lat="38.89612059472909" lon="8.85755843471136"><ele>39.0</ele><time>2026-04-06T10:07:48Z</time></trkpt><trkpt lat="38.89612203544665" lon="8.857681398466779"><ele>44.0</ele><time>2026-04-06T10:07:50Z</time></trkpt><trkpt lat="38.89620290924162" lon="8.857736710441603"><ele>44.0</ele><time>2026-04-06T10:07:52Z</time></trkpt><trkpt lat="38.89627653385949" lon="8.857726074241214"><ele>44.0</ele><time>2026-04-06T10:07:55Z</time></trkpt></trkseg></trk></gpx>